Wetterdaten: Montag, 20.11.2017
Datum Zeit Temp. A. Pool Temp. Feuchte A. Luftdruck Regen Wind Richtung Richtung Sonnenschein ET UV Solar Taupunkt Windchill Windben Empfang
20.11.2017 00:00 3,5 C 5,0 C 86 % 1018,5 hPa 0,0 l/m 21,2 km/h (4 Bft) SW 215 0 min 0,000 mm 0,0 UV-I 0 W/m 1,4 C -5,6 C 33,8 km/h (5 Bft) 98,11 %
20.11.2017 00:02 3,4 C 5,0 C 86 % 1018,5 hPa 0,0 l/m 26,0 km/h (4 Bft) W 277 0 min 0,000 mm 0,0 UV-I 0 W/m 1,3 C -7,4 C 41,8 km/h (6 Bft) 97,67 %
20.11.2017 00:04 3,4 C 5,0 C 87 % 1018,5 hPa 0,0 l/m 21,1 km/h (4 Bft) W-SW 244 0 min 0,000 mm 0,0 UV-I 0 W/m 1,4 C -5,7 C 35,4 km/h (5 Bft) 97,56 %
20.11.2017 00:06 3,3 C 5,0 C 87 % 1018,6 hPa 0,0 l/m 17,9 km/h (3 Bft) W-SW 242 0 min 0,000 mm 0,0 UV-I 0 W/m 1,3 C -4,4 C 29,0 km/h (5 Bft) 98,00 %
20.11.2017 00:08 3,3 C 5,0 C 88 % 1018,6 hPa 0,2 l/m 21,7 km/h (4 Bft) W-SW 246 0 min 0,000 mm 0,0 UV-I 0 W/m 1,5 C -6,1 C 33,8 km/h (5 Bft) 93,10 %
20.11.2017 00:10 3,3 C 5,0 C 88 % 1018,5 hPa 0,0 l/m 22,8 km/h (4 Bft) W 270 0 min 0,000 mm 0,0 UV-I 0 W/m 1,5 C -6,5 C 32,2 km/h (5 Bft) 95,38 %
20.11.2017 00:12 3,2 C 5,0 C 88 % 1018,6 hPa 0,0 l/m 15,5 km/h (3 Bft) W-SW 241 0 min 0,000 mm 0,0 UV-I 0 W/m 1,4 C -3,4 C 24,1 km/h (4 Bft) 93,62 %
20.11.2017 00:14 3,2 C 5,0 C 88 % 1018,5 hPa 0,0 l/m 17,3 km/h (3 Bft) W-SW 249 0 min 0,000 mm 0,0 UV-I 0 W/m 1,4 C -4,3 C 24,1 km/h (4 Bft) 96,00 %
20.11.2017 00:16 3,2 C 5,0 C 88 % 1018,5 hPa 0,0 l/m 19,0 km/h (3 Bft) SW 230 0 min 0,000 mm 0,0 UV-I 0 W/m 1,4 C -5,1 C 24,1 km/h (4 Bft) 94,29 %
20.11.2017 00:18 3,1 C 5,0 C 88 % 1018,4 hPa 0,0 l/m 16,0 km/h (3 Bft) W-SW 240 0 min 0,000 mm 0,0 UV-I 0 W/m 1,3 C -3,8 C 20,9 km/h (4 Bft) 94,92 %
20.11.2017 00:20 3,1 C 5,0 C 89 % 1018,6 hPa 0,0 l/m 13,0 km/h (3 Bft) W-SW 246 0 min 0,000 mm 0,0 UV-I 0 W/m 1,5 C -2,1 C 19,3 km/h (3 Bft) 94,00 %
20.11.2017 00:22 3,1 C 5,0 C 89 % 1018,7 hPa 0,0 l/m 12,4 km/h (3 Bft) W-SW 248 0 min 0,000 mm 0,0 UV-I 0 W/m 1,5 C -1,7 C 16,1 km/h (3 Bft) 95,45 %
20.11.2017 00:24 3,0 C 5,0 C 89 % 1018,7 hPa 0,0 l/m 16,9 km/h (3 Bft) SW 222 0 min 0,000 mm 0,0 UV-I 0 W/m 1,4 C -4,3 C 22,5 km/h (4 Bft) 96,00 %
20.11.2017 00:26 3,0 C 5,0 C 89 % 1018,6 hPa 0,0 l/m 19,5 km/h (3 Bft) W-SW 240 0 min 0,000 mm 0,0 UV-I 0 W/m 1,4 C -5,5 C 29,0 km/h (5 Bft) 94,44 %
20.11.2017 00:28 2,9 C 5,0 C 90 % 1018,7 hPa 0,0 l/m 17,9 km/h (3 Bft) W-SW 252 0 min 0,000 mm 0,0 UV-I 0 W/m 1,4 C -4,9 C 29,0 km/h (5 Bft) 94,00 %
20.11.2017 00:30 2,9 C 5,0 C 90 % 1018,7 hPa 0,0 l/m 17,2 km/h (3 Bft) W-SW 248 0 min 0,000 mm 0,0 UV-I 0 W/m 1,4 C -4,6 C 24,1 km/h (4 Bft) 96,00 %
20.11.2017 00:32 2,8 C 5,0 C 90 % 1018,7 hPa 0,0 l/m 14,8 km/h (3 Bft) W-SW 244 0 min 0,000 mm 0,0 UV-I 0 W/m 1,3 C -3,5 C 27,4 km/h (4 Bft) 95,12 %
20.11.2017 00:34 2,8 C 5,0 C 90 % 1018,7 hPa 0,2 l/m 21,5 km/h (4 Bft) SW 226 0 min 0,000 mm 0,0 UV-I 0 W/m 1,3 C -6,6 C 35,4 km/h (5 Bft) 92,45 %
20.11.2017 00:36 2,8 C 5,0 C 91 % 1018,7 hPa 0,0 l/m 26,3 km/h (4 Bft) W-SW 244 0 min 0,000 mm 0,0 UV-I 0 W/m 1,5 C -8,4 C 35,4 km/h (5 Bft) 97,56 %
20.11.2017 00:38 2,7 C 5,0 C 91 % 1018,8 hPa 0,0 l/m 22,9 km/h (4 Bft) W-SW 258 0 min 0,000 mm 0,0 UV-I 0 W/m 1,4 C -7,3 C 41,8 km/h (6 Bft) 94,34 %
20.11.2017 00:40 2,7 C 5,0 C 91 % 1018,8 hPa 0,0 l/m 18,0 km/h (3 Bft) W-SW 254 0 min 0,000 mm 0,0 UV-I 0 W/m 1,4 C -5,2 C 25,7 km/h (4 Bft) 98,00 %
20.11.2017 00:42 2,7 C 5,0 C 91 % 1018,7 hPa 0,0 l/m 22,7 km/h (4 Bft) W-SW 250 0 min 0,000 mm 0,0 UV-I 0 W/m 1,4 C -7,2 C 32,2 km/h (5 Bft) 94,74 %
20.11.2017 00:44 2,7 C 5,0 C 91 % 1018,8 hPa 0,0 l/m 19,4 km/h (3 Bft) W-SW 242 0 min 0,000 mm 0,0 UV-I 0 W/m 1,4 C -5,9 C 29,0 km/h (5 Bft) 97,87 %
20.11.2017 00:46 2,7 C 5,0 C 92 % 1018,7 hPa 0,0 l/m 17,9 km/h (3 Bft) SW 220 0 min 0,000 mm 0,0 UV-I 0 W/m 1,5 C -5,2 C 27,4 km/h (4 Bft) 98,21 %
20.11.2017 00:48 2,6 C 5,0 C 92 % 1018,7 hPa 0,0 l/m 13,7 km/h (3 Bft) W 261 0 min 0,000 mm 0,0 UV-I 0 W/m 1,4 C -3,1 C 19,3 km/h (3 Bft) 92,68 %
20.11.2017 00:50 2,6 C 5,0 C 92 % 1018,7 hPa 0,0 l/m 14,2 km/h (3 Bft) SW 236 0 min 0,000 mm 0,0 UV-I 0 W/m 1,4 C -3,4 C 20,9 km/h (4 Bft) 96,00 %
20.11.2017 00:52 2,5 C 5,0 C 92 % 1018,7 hPa 0,0 l/m 14,3 km/h (3 Bft) W-SW 241 0 min 0,000 mm 0,0 UV-I 0 W/m 1,3 C -3,6 C 27,4 km/h (4 Bft) 95,12 %
20.11.2017 00:54 2,4 C 5,0 C 92 % 1018,7 hPa 0,0 l/m 15,8 km/h (3 Bft) W-SW 250 0 min 0,000 mm 0,0 UV-I 0 W/m 1,2 C -4,5 C 25,7 km/h (4 Bft) 96,00 %
20.11.2017 00:56 2,4 C 5,0 C 92 % 1018,7 hPa 0,0 l/m 15,7 km/h (3 Bft) S-SW 202 0 min 0,000 mm 0,0 UV-I 0 W/m 1,2 C -4,5 C 24,1 km/h (4 Bft) 97,87 %
20.11.2017 00:58 2,4 C 5,0 C 92 % 1018,7 hPa 0,0 l/m 18,5 km/h (3 Bft) SW 218 0 min 0,000 mm 0,0 UV-I 0 W/m 1,2 C -5,9 C 32,2 km/h (5 Bft) 97,56 %
20.11.2017 01:00 2,4 C 5,0 C 92 % 1018,7 hPa 0,0 l/m 16,7 km/h (3 Bft) SW 221 0 min 0,025 mm 0,0 UV-I 0 W/m 1,2 C -5,0 C 25,7 km/h (4 Bft) 96,23 %
20.11.2017 01:02 2,3 C 5,0 C 93 % 1018,7 hPa 0,0 l/m 17,0 km/h (3 Bft) S-SW 199 0 min 0,000 mm 0,0 UV-I 0 W/m 1,3 C -5,3 C 24,1 km/h (4 Bft) 97,73 %
20.11.2017 01:04 2,3 C 5,0 C 93 % 1018,6 hPa 0,0 l/m 21,7 km/h (4 Bft) SW 233 0 min 0,000 mm 0,0 UV-I 0 W/m 1,3 C -7,4 C 29,0 km/h (5 Bft) 97,62 %
20.11.2017 01:06 2,3 C 5,0 C 93 % 1018,7 hPa 0,0 l/m 16,6 km/h (3 Bft) SW 227 0 min 0,000 mm 0,0 UV-I 0 W/m 1,3 C -5,1 C 25,7 km/h (4 Bft) 98,28 %
20.11.2017 01:08 2,3 C 5,0 C 93 % 1018,7 hPa 0,0 l/m 18,0 km/h (3 Bft) W 260 0 min 0,000 mm 0,0 UV-I 0 W/m 1,3 C -5,7 C 25,7 km/h (4 Bft) 97,87 %
20.11.2017 01:10 2,3 C 5,0 C 93 % 1018,7 hPa 0,0 l/m 17,1 km/h (3 Bft) SW 227 0 min 0,000 mm 0,0 UV-I 0 W/m 1,3 C -5,3 C 25,7 km/h (4 Bft) 97,87 %
20.11.2017 01:12 2,2 C 5,0 C 93 % 1018,7 hPa 0,0 l/m 16,8 km/h (3 Bft) W-SW 240 0 min 0,000 mm 0,0 UV-I 0 W/m 1,2 C -5,3 C 22,5 km/h (4 Bft) 97,44 %
20.11.2017 01:14 2,2 C 5,0 C 93 % 1018,7 hPa 0,0 l/m 16,3 km/h (3 Bft) SW 215 0 min 0,000 mm 0,0 UV-I 0 W/m 1,2 C -5,0 C 27,4 km/h (4 Bft) 100,00 %
20.11.2017 01:16 2,2 C 5,0 C 93 % 1018,7 hPa 0,0 l/m 17,7 km/h (3 Bft) SW 225 0 min 0,000 mm 0,0 UV-I 0 W/m 1,2 C -5,7 C 27,4 km/h (4 Bft) 97,56 %
20.11.2017 01:18 2,2 C 5,0 C 93 % 1018,6 hPa 0,0 l/m 20,4 km/h (4 Bft) SW 227 0 min 0,000 mm 0,0 UV-I 0 W/m 1,2 C -7,0 C 27,4 km/h (4 Bft) 100,00 %
20.11.2017 01:20 2,2 C 5,0 C 93 % 1018,6 hPa 0,0 l/m 17,2 km/h (3 Bft) S-SW 212 0 min 0,000 mm 0,0 UV-I 0 W/m 1,2 C -5,5 C 22,5 km/h (4 Bft) 100,00 %
20.11.2017 01:22 2,2 C 5,0 C 93 % 1018,7 hPa 0,0 l/m 18,8 km/h (3 Bft) W-SW 240 0 min 0,000 mm 0,0 UV-I 0 W/m 1,2 C -6,3 C 30,6 km/h (5 Bft) 100,00 %
20.11.2017 01:24 2,2 C 5,0 C 93 % 1018,7 hPa 0,0 l/m 19,9 km/h (4 Bft) W-SW 237 0 min 0,000 mm 0,0 UV-I 0 W/m 1,2 C -6,7 C 32,2 km/h (5 Bft) 100,00 %
20.11.2017 01:26 2,3 C 5,0 C 93 % 1018,7 hPa 0,0 l/m 14,0 km/h (3 Bft) W-SW 250 0 min 0,000 mm 0,0 UV-I 0 W/m 1,3 C -3,6 C 24,1 km/h (4 Bft) 97,87 %
20.11.2017 01:28 2,3 C 5,0 C 93 % 1018,8 hPa 0,0 l/m 18,3 km/h (3 Bft) SW 236 0 min 0,000 mm 0,0 UV-I 0 W/m 1,3 C -5,9 C 25,7 km/h (4 Bft) 97,87 %
20.11.2017 01:30 2,3 C 5,0 C 93 % 1018,7 hPa 0,0 l/m 14,7 km/h (3 Bft) SW 223 0 min 0,000 mm 0,0 UV-I 0 W/m 1,3 C -4,0 C 22,5 km/h (4 Bft) 100,00 %
20.11.2017 01:32 2,3 C 5,0 C 93 % 1018,8 hPa 0,0 l/m 17,2 km/h (3 Bft) W 273 0 min 0,000 mm 0,0 UV-I 0 W/m 1,3 C -5,4 C 24,1 km/h (4 Bft) 100,00 %
20.11.2017 01:34 2,3 C 5,0 C 93 % 1018,8 hPa 0,0 l/m 18,7 km/h (3 Bft) W 261 0 min 0,000 mm 0,0 UV-I 0 W/m 1,3 C -6,1 C 25,7 km/h (4 Bft) 97,37 %
20.11.2017 01:36 2,3 C 5,0 C 93 % 1018,8 hPa 0,0 l/m 17,8 km/h (3 Bft) SW 229 0 min 0,000 mm 0,0 UV-I 0 W/m 1,3 C -5,7 C 22,5 km/h (4 Bft) 97,92 %
20.11.2017 01:38 2,3 C 5,0 C 93 % 1018,7 hPa 0,0 l/m 16,2 km/h (3 Bft) SW 219 0 min 0,000 mm 0,0 UV-I 0 W/m 1,3 C -4,8 C 22,5 km/h (4 Bft) 100,00 %
20.11.2017 01:40 2,4 C 5,0 C 93 % 1018,6 hPa 0,0 l/m 18,4 km/h (3 Bft) W-SW 254 0 min 0,000 mm 0,0 UV-I 0 W/m 1,4 C -5,8 C 24,1 km/h (4 Bft) 100,00 %
20.11.2017 01:42 2,4 C 5,0 C 93 % 1018,7 hPa 0,0 l/m 16,5 km/h (3 Bft) SW 227 0 min 0,000 mm 0,0 UV-I 0 W/m 1,4 C -4,9 C 22,5 km/h (4 Bft) 98,36 %
20.11.2017 01:44 2,4 C 5,0 C 92 % 1018,7 hPa 0,0 l/m 16,5 km/h (3 Bft) SW 228 0 min 0,000 mm 0,0 UV-I 0 W/m 1,2 C -4,9 C 24,1 km/h (4 Bft) 97,87 %
20.11.2017 01:46 2,5 C 5,0 C 92 % 1018,7 hPa 0,0 l/m 16,1 km/h (3 Bft) W-SW 253 0 min 0,000 mm 0,0 UV-I 0 W/m 1,3 C -4,5 C 20,9 km/h (4 Bft) 95,74 %
20.11.2017 01:48 2,5 C 5,0 C 92 % 1018,7 hPa 0,0 l/m 15,1 km/h (3 Bft) SW 223 0 min 0,000 mm 0,0 UV-I 0 W/m 1,3 C -4,0 C 22,5 km/h (4 Bft) 100,00 %
20.11.2017 01:50 2,6 C 5,0 C 92 % 1018,6 hPa 0,0 l/m 15,7 km/h (3 Bft) SW 215 0 min 0,000 mm 0,0 UV-I 0 W/m 1,4 C -4,2 C 25,7 km/h (4 Bft) 100,00 %
20.11.2017 01:52 2,6 C 5,0 C 92 % 1018,7 hPa 0,0 l/m 16,8 km/h (3 Bft) W-SW 248 0 min 0,000 mm 0,0 UV-I 0 W/m 1,4 C -4,8 C 24,1 km/h (4 Bft) 98,00 %
20.11.2017 01:54 2,6 C 5,0 C 92 % 1018,8 hPa 0,0 l/m 17,4 km/h (3 Bft) W 261 0 min 0,000 mm 0,0 UV-I 0 W/m 1,4 C -5,1 C 25,7 km/h (4 Bft) 100,00 %
20.11.2017 01:56 2,6 C 5,0 C 92 % 1018,8 hPa 0,0 l/m 18,5 km/h (3 Bft) W-SW 252 0 min 0,000 mm 0,0 UV-I 0 W/m 1,4 C -5,6 C 27,4 km/h (4 Bft) 97,87 %
20.11.2017 01:58 2,7 C 5,0 C 92 % 1018,8 hPa 0,0 l/m 18,7 km/h (3 Bft) W-SW 240 0 min 0,000 mm 0,0 UV-I 0 W/m 1,5 C -5,6 C 25,7 km/h (4 Bft) 100,00 %
20.11.2017 02:00 2,7 C 5,0 C 91 % 1018,9 hPa 0,0 l/m 17,6 km/h (3 Bft) SW 215 0 min 0,000 mm 0,0 UV-I 0 W/m 1,4 C -5,1 C 25,7 km/h (4 Bft) 97,87 %
20.11.2017 02:02 2,7 C 5,0 C 91 % 1019,0 hPa 0,0 l/m 19,8 km/h (3 Bft) W-SW 238 0 min 0,000 mm 0,0 UV-I 0 W/m 1,4 C -6,1 C 25,7 km/h (4 Bft) 100,00 %
20.11.2017 02:04 2,7 C 5,0 C 91 % 1018,9 hPa 0,0 l/m 18,7 km/h (3 Bft) W 261 0 min 0,000 mm 0,0 UV-I 0 W/m 1,4 C -5,6 C 27,4 km/h (4 Bft) 100,00 %
20.11.2017 02:06 2,8 C 5,0 C 91 % 1019,0 hPa 0,0 l/m 16,9 km/h (3 Bft) SW 226 0 min 0,000 mm 0,0 UV-I 0 W/m 1,5 C -4,6 C 24,1 km/h (4 Bft) 97,87 %
20.11.2017 02:08 2,8 C 5,0 C 91 % 1019,0 hPa 0,0 l/m 15,9 km/h (3 Bft) SW 232 0 min 0,000 mm 0,0 UV-I 0 W/m 1,5 C -4,1 C 22,5 km/h (4 Bft) 100,00 %
20.11.2017 02:10 2,8 C 5,0 C 91 % 1018,9 hPa 0,0 l/m 15,5 km/h (3 Bft) W-SW 237 0 min 0,000 mm 0,0 UV-I 0 W/m 1,5 C -3,9 C 24,1 km/h (4 Bft) 100,00 %
20.11.2017 02:12 2,9 C 5,0 C 90 % 1019,0 hPa 0,0 l/m 15,3 km/h (3 Bft) W 263 0 min 0,000 mm 0,0 UV-I 0 W/m 1,4 C -3,6 C 20,9 km/h (4 Bft) 100,00 %
20.11.2017 02:14 3,0 C 5,0 C 90 % 1018,9 hPa 0,0 l/m 21,4 km/h (4 Bft) W-SW 248 0 min 0,000 mm 0,0 UV-I 0 W/m 1,5 C -6,3 C 29,0 km/h (5 Bft) 93,62 %
20.11.2017 02:16 3,1 C 5,0 C 90 % 1018,8 hPa 0,0 l/m 23,2 km/h (4 Bft) W-SW 242 0 min 0,000 mm 0,0 UV-I 0 W/m 1,6 C -6,9 C 32,2 km/h (5 Bft) 95,74 %
20.11.2017 02:18 3,2 C 5,0 C 89 % 1018,9 hPa 0,0 l/m 18,0 km/h (3 Bft) W-SW 248 0 min 0,000 mm 0,0 UV-I 0 W/m 1,6 C -4,6 C 27,4 km/h (4 Bft) 95,74 %
20.11.2017 02:20 3,3 C 5,0 C 88 % 1018,9 hPa 0,0 l/m 18,3 km/h (3 Bft) SW 227 0 min 0,000 mm 0,0 UV-I 0 W/m 1,5 C -4,6 C 30,6 km/h (5 Bft) 95,74 %
20.11.2017 02:22 3,3 C 5,0 C 88 % 1018,8 hPa 0,0 l/m 19,7 km/h (3 Bft) W-SW 246 0 min 0,000 mm 0,0 UV-I 0 W/m 1,5 C -5,2 C 33,8 km/h (5 Bft) 97,87 %
20.11.2017 02:24 3,3 C 5,0 C 88 % 1018,8 hPa 0,0 l/m 13,1 km/h (3 Bft) SW 228 0 min 0,000 mm 0,0 UV-I 0 W/m 1,5 C -1,9 C 19,3 km/h (3 Bft) 97,87 %
20.11.2017 02:26 3,3 C 5,0 C 88 % 1018,8 hPa 0,0 l/m 15,0 km/h (3 Bft) SW 221 0 min 0,000 mm 0,0 UV-I 0 W/m 1,5 C -3,0 C 24,1 km/h (4 Bft) 98,00 %
20.11.2017 02:28 3,2 C 5,0 C 88 % 1018,8 hPa 0,0 l/m 19,0 km/h (3 Bft) W 261 0 min 0,000 mm 0,0 UV-I 0 W/m 1,4 C -5,1 C 24,1 km/h (4 Bft) 97,44 %
20.11.2017 02:30 3,3 C 5,0 C 88 % 1018,8 hPa 0,0 l/m 23,6 km/h (4 Bft) W-SW 252 0 min 0,000 mm 0,0 UV-I 0 W/m 1,5 C -6,8 C 32,2 km/h (5 Bft) 93,62 %
20.11.2017 02:32 3,3 C 5,0 C 87 % 1018,8 hPa 0,0 l/m 21,2 km/h (4 Bft) W-SW 238 0 min 0,000 mm 0,0 UV-I 0 W/m 1,3 C -5,9 C 29,0 km/h (5 Bft) 96,08 %
20.11.2017 02:34 3,4 C 5,0 C 87 % 1018,8 hPa 0,0 l/m 19,9 km/h (4 Bft) SW 227 0 min 0,000 mm 0,0 UV-I 0 W/m 1,4 C -5,2 C 33,8 km/h (5 Bft) 95,74 %
20.11.2017 02:36 3,4 C 5,0 C 87 % 1018,8 hPa 0,0 l/m 23,3 km/h (4 Bft) W-SW 254 0 min 0,000 mm 0,0 UV-I 0 W/m 1,4 C -6,5 C 43,5 km/h (6 Bft) 96,00 %
20.11.2017 02:38 3,4 C 5,0 C 86 % 1018,8 hPa 0,0 l/m 18,0 km/h (3 Bft) W 264 0 min 0,000 mm 0,0 UV-I 0 W/m 1,3 C -4,4 C 24,1 km/h (4 Bft) 100,00 %
20.11.2017 02:40 3,4 C 5,0 C 87 % 1018,8 hPa 0,0 l/m 17,4 km/h (3 Bft) W-SW 255 0 min 0,000 mm 0,0 UV-I 0 W/m 1,4 C -4,1 C 25,7 km/h (4 Bft) 95,74 %
20.11.2017 02:42 3,4 C 5,0 C 87 % 1018,8 hPa 0,0 l/m 18,3 km/h (3 Bft) W-SW 252 0 min 0,000 mm 0,0 UV-I 0 W/m 1,4 C -4,5 C 25,7 km/h (4 Bft) 97,92 %
20.11.2017 02:44 3,4 C 5,0 C 87 % 1018,8 hPa 0,0 l/m 15,6 km/h (3 Bft) W-SW 240 0 min 0,000 mm 0,0 UV-I 0 W/m 1,4 C -3,2 C 29,0 km/h (5 Bft) 97,87 %
20.11.2017 02:46 3,3 C 5,0 C 87 % 1018,8 hPa 0,0 l/m 16,4 km/h (3 Bft) SW 234 0 min 0,000 mm 0,0 UV-I 0 W/m 1,3 C -3,7 C 27,4 km/h (4 Bft) 97,87 %
20.11.2017 02:48 3,3 C 5,0 C 88 % 1018,8 hPa 0,0 l/m 17,6 km/h (3 Bft) SW 232 0 min 0,000 mm 0,0 UV-I 0 W/m 1,5 C -4,3 C 27,4 km/h (4 Bft) 95,74 %
20.11.2017 02:50 3,2 C 5,0 C 88 % 1018,7 hPa 0,0 l/m 21,3 km/h (4 Bft) W-SW 243 0 min 0,000 mm 0,0 UV-I 0 W/m 1,4 C -6,0 C 27,4 km/h (4 Bft) 95,74 %
20.11.2017 02:52 3,2 C 5,0 C 88 % 1018,8 hPa 0,0 l/m 16,8 km/h (3 Bft) S 171 0 min 0,000 mm 0,0 UV-I 0 W/m 1,4 C -4,0 C 29,0 km/h (5 Bft) 98,00 %
20.11.2017 02:54 3,2 C 5,0 C 88 % 1018,8 hPa 0,0 l/m 17,8 km/h (3 Bft) W 278 0 min 0,000 mm 0,0 UV-I 0 W/m 1,4 C -4,5 C 29,0 km/h (5 Bft) 97,87 %
20.11.2017 02:56 3,2 C 5,0 C 88 % 1018,8 hPa 0,0 l/m 27,8 km/h (4 Bft) W-SW 254 0 min 0,000 mm 0,0 UV-I 0 W/m 1,4 C -8,3 C 51,5 km/h (7 Bft) 100,00 %
20.11.2017 02:58 3,3 C 5,0 C 88 % 1018,9 hPa 0,0 l/m 18,5 km/h (3 Bft) W-SW 246 0 min 0,000 mm 0,0 UV-I 0 W/m 1,5 C -4,7 C 25,7 km/h (4 Bft) 100,00 %
20.11.2017 03:00 3,4 C 5,0 C 87 % 1018,9 hPa 0,0 l/m 23,9 km/h (4 Bft) W-SW 238 0 min 0,026 mm 0,0 UV-I 0 W/m 1,4 C -6,7 C 33,8 km/h (5 Bft) 100,00 %
20.11.2017 03:02 3,4 C 5,0 C 87 % 1018,9 hPa 0,0 l/m 19,9 km/h (4 Bft) W-NW 291 0 min 0,000 mm 0,0 UV-I 0 W/m 1,4 C -5,2 C 29,0 km/h (5 Bft) 100,00 %
20.11.2017 03:04 3,4 C 5,0 C 87 % 1018,9 hPa 0,0 l/m 24,4 km/h (4 Bft) W-SW 252 0 min 0,000 mm 0,0 UV-I 0 W/m 1,4 C -6,9 C 38,6 km/h (5 Bft) 100,00 %
20.11.2017 03:06 3,4 C 5,0 C 87 % 1018,9 hPa 0,0 l/m 20,4 km/h (4 Bft) SW 219 0 min 0,000 mm 0,0 UV-I 0 W/m 1,4 C -5,4 C 29,0 km/h (5 Bft) 98,00 %
20.11.2017 03:08 3,4 C 5,0 C 87 % 1019,1 hPa 0,0 l/m 20,6 km/h (4 Bft) W-SW 254 0 min 0,000 mm 0,0 UV-I 0 W/m 1,4 C -5,5 C 33,8 km/h (5 Bft) 94,29 %
20.11.2017 03:10 3,4 C 5,0 C 87 % 1019,0 hPa 0,0 l/m 23,0 km/h (4 Bft) W 264 0 min 0,000 mm 0,0 UV-I 0 W/m 1,4 C -6,4 C 37,0 km/h (5 Bft) 98,39 %
20.11.2017 03:12 3,4 C 5,0 C 87 % 1019,1 hPa 0,0 l/m 22,0 km/h (4 Bft) W 271 0 min 0,000 mm 0,0 UV-I 0 W/m 1,4 C -6,0 C 30,6 km/h (5 Bft) 100,00 %
20.11.2017 03:14 3,4 C 5,0 C 87 % 1019,1 hPa 0,0 l/m 28,2 km/h (4 Bft) W-SW 251 0 min 0,000 mm 0,0 UV-I 0 W/m 1,4 C -8,1 C 41,8 km/h (6 Bft) 97,87 %
20.11.2017 03:16 3,4 C 5,0 C 87 % 1019,1 hPa 0,0 l/m 19,4 km/h (3 Bft) W 260 0 min 0,000 mm 0,0 UV-I 0 W/m 1,4 C -5,0 C 41,8 km/h (6 Bft) 100,00 %
20.11.2017 03:18 3,4 C 5,0 C 87 % 1019,2 hPa 0,0 l/m 19,0 km/h (3 Bft) W-SW 256 0 min 0,000 mm 0,0 UV-I 0 W/m 1,4 C -4,8 C 27,4 km/h (4 Bft) 95,74 %
20.11.2017 03:20 3,4 C 5,0 C 87 % 1019,2 hPa 0,0 l/m 19,9 km/h (4 Bft) W-SW 242 0 min 0,000 mm 0,0 UV-I 0 W/m 1,4 C -5,2 C 33,8 km/h (5 Bft) 97,87 %
20.11.2017 03:22 3,3 C 5,0 C 87 % 1019,1 hPa 0,0 l/m 20,0 km/h (4 Bft) W-SW 255 0 min 0,000 mm 0,0 UV-I 0 W/m 1,3 C -5,4 C 40,2 km/h (6 Bft) 100,00 %
20.11.2017 03:24 3,3 C 5,0 C 87 % 1019,1 hPa 0,0 l/m 18,1 km/h (3 Bft) W 259 0 min 0,000 mm 0,0 UV-I 0 W/m 1,3 C -4,5 C 29,0 km/h (5 Bft) 97,14 %
20.11.2017 03:26 3,3 C 5,0 C 87 % 1019,1 hPa 0,0 l/m 14,4 km/h (3 Bft) W 269 0 min 0,000 mm 0,0 UV-I 0 W/m 1,3 C -2,7 C 24,1 km/h (4 Bft) 97,87 %
20.11.2017 03:28 3,3 C 5,0 C 88 % 1019,1 hPa 0,0 l/m 19,9 km/h (4 Bft) W 280 0 min 0,000 mm 0,0 UV-I 0 W/m 1,5 C -5,3 C 30,6 km/h (5 Bft) 100,00 %
20.11.2017 03:30 3,3 C 5,0 C 87 % 1019,1 hPa 0,0 l/m 21,0 km/h (4 Bft) SW 224 0 min 0,000 mm 0,0 UV-I 0 W/m 1,3 C -5,8 C 32,2 km/h (5 Bft) 100,00 %
20.11.2017 03:32 3,3 C 5,0 C 87 % 1019,2 hPa 0,0 l/m 21,2 km/h (4 Bft) W-NW 286 0 min 0,000 mm 0,0 UV-I 0 W/m 1,3 C -5,9 C 27,4 km/h (4 Bft) 100,00 %
20.11.2017 03:34 3,3 C 5,0 C 87 % 1019,2 hPa 0,0 l/m 14,0 km/h (3 Bft) W-SW 241 0 min 0,000 mm 0,0 UV-I 0 W/m 1,3 C -2,4 C 19,3 km/h (3 Bft) 98,00 %
20.11.2017 03:36 3,3 C 5,0 C 87 % 1019,1 hPa 0,0 l/m 19,1 km/h (3 Bft) W 265 0 min 0,000 mm 0,0 UV-I 0 W/m 1,3 C -5,0 C 25,7 km/h (4 Bft) 100,00 %
20.11.2017 03:38 3,3 C 5,0 C 87 % 1019,2 hPa 0,0 l/m 18,3 km/h (3 Bft) W-SW 248 0 min 0,000 mm 0,0 UV-I 0 W/m 1,3 C -4,6 C 32,2 km/h (5 Bft) 100,00 %
20.11.2017 03:40 3,3 C 5,0 C 87 % 1019,1 hPa 0,0 l/m 20,6 km/h (4 Bft) W 264 0 min 0,000 mm 0,0 UV-I 0 W/m 1,3 C -5,6 C 32,2 km/h (5 Bft) 100,00 %
20.11.2017 03:42 3,3 C 5,0 C 87 % 1019,2 hPa 0,0 l/m 20,4 km/h (4 Bft) W 266 0 min 0,000 mm 0,0 UV-I 0 W/m 1,3 C -5,5 C 30,6 km/h (5 Bft) 100,00 %
20.11.2017 03:44 3,4 C 5,0 C 87 % 1019,2 hPa 0,0 l/m 19,7 km/h (3 Bft) W-SW 254 0 min 0,000 mm 0,0 UV-I 0 W/m 1,4 C -5,1 C 32,2 km/h (5 Bft) 100,00 %
20.11.2017 03:46 3,4 C 5,0 C 87 % 1019,1 hPa 0,0 l/m 16,1 km/h (3 Bft) W-SW 250 0 min 0,000 mm 0,0 UV-I 0 W/m 1,4 C -3,4 C 22,5 km/h (4 Bft) 100,00 %
20.11.2017 03:48 3,4 C 5,0 C 86 % 1019,2 hPa 0,0 l/m 17,2 km/h (3 Bft) SW 232 0 min 0,000 mm 0,0 UV-I 0 W/m 1,3 C -4,0 C 24,1 km/h (4 Bft) 100,00 %
20.11.2017 03:50 3,4 C 5,0 C 87 % 1019,1 hPa 0,0 l/m 16,7 km/h (3 Bft) SW 221 0 min 0,000 mm 0,0 UV-I 0 W/m 1,4 C -3,7 C 32,2 km/h (5 Bft) 100,00 %
20.11.2017 03:52 3,4 C 5,0 C 87 % 1019,1 hPa 0,0 l/m 22,5 km/h (4 Bft) SW 226 0 min 0,000 mm 0,0 UV-I 0 W/m 1,4 C -6,2 C 33,8 km/h (5 Bft) 100,00 %
20.11.2017 03:54 3,4 C 5,0 C 87 % 1019,3 hPa 0,0 l/m 18,7 km/h (3 Bft) W 263 0 min 0,000 mm 0,0 UV-I 0 W/m 1,4 C -4,7 C 27,4 km/h (4 Bft) 100,00 %
20.11.2017 03:56 3,4 C 5,0 C 87 % 1019,3 hPa 0,0 l/m 18,3 km/h (3 Bft) W-SW 255 0 min 0,000 mm 0,0 UV-I 0 W/m 1,4 C -4,5 C 25,7 km/h (4 Bft) 97,87 %
20.11.2017 03:58 3,4 C 5,0 C 87 % 1019,3 hPa 0,0 l/m 16,0 km/h (3 Bft) W-SW 253 0 min 0,000 mm 0,0 UV-I 0 W/m 1,4 C -3,4 C 24,1 km/h (4 Bft) 97,87 %
20.11.2017 04:00 3,4 C 5,0 C 87 % 1019,3 hPa 0,0 l/m 15,6 km/h (3 Bft) W-SW 245 0 min 0,025 mm 0,0 UV-I 0 W/m 1,4 C -3,2 C 33,8 km/h (5 Bft) 95,74 %
20.11.2017 04:02 3,4 C 5,0 C 87 % 1019,3 hPa 0,0 l/m 25,6 km/h (4 Bft) W-SW 256 0 min 0,000 mm 0,0 UV-I 0 W/m 1,4 C -7,3 C 32,2 km/h (5 Bft) 100,00 %
20.11.2017 04:04 3,4 C 5,0 C 87 % 1019,3 hPa 0,0 l/m 20,7 km/h (4 Bft) W-SW 244 0 min 0,000 mm 0,0 UV-I 0 W/m 1,4 C -5,5 C 32,2 km/h (5 Bft) 97,37 %
20.11.2017 04:06 3,5 C 5,0 C 86 % 1019,3 hPa 0,0 l/m 25,6 km/h (4 Bft) W 273 0 min 0,000 mm 0,0 UV-I 0 W/m 1,4 C -7,2 C 35,4 km/h (5 Bft) 97,87 %
20.11.2017 04:08 3,5 C 5,0 C 86 % 1019,3 hPa 0,0 l/m 18,1 km/h (3 Bft) W-SW 247 0 min 0,000 mm 0,0 UV-I 0 W/m 1,4 C -4,3 C 24,1 km/h (4 Bft) 94,34 %
20.11.2017 04:10 3,5 C 5,0 C 86 % 1019,3 hPa 0,0 l/m 15,2 km/h (3 Bft) W 269 0 min 0,000 mm 0,0 UV-I 0 W/m 1,4 C -2,8 C 24,1 km/h (4 Bft) 97,87 %
20.11.2017 04:12 3,4 C 5,0 C 86 % 1019,2 hPa 0,0 l/m 16,3 km/h (3 Bft) W-SW 258 0 min 0,000 mm 0,0 UV-I 0 W/m 1,3 C -3,5 C 30,6 km/h (5 Bft) 98,00 %
20.11.2017 04:14 3,4 C 5,0 C 86 % 1019,2 hPa 0,0 l/m 19,4 km/h (3 Bft) SW 226 0 min 0,000 mm 0,0 UV-I 0 W/m 1,3 C -5,0 C 29,0 km/h (5 Bft) 97,87 %
20.11.2017 04:16 3,4 C 5,0 C 86 % 1019,2 hPa 0,0 l/m 19,1 km/h (3 Bft) S-SW 213 0 min 0,000 mm 0,0 UV-I 0 W/m 1,3 C -4,9 C 30,6 km/h (5 Bft) 95,74 %
20.11.2017 04:18 3,4 C 5,0 C 86 % 1019,2 hPa 0,0 l/m 20,3 km/h (4 Bft) W-SW 246 0 min 0,000 mm 0,0 UV-I 0 W/m 1,3 C -5,4 C 32,2 km/h (5 Bft) 94,29 %
20.11.2017 04:20 3,4 C 5,0 C 86 % 1019,2 hPa 0,0 l/m 20,8 km/h (4 Bft) SW 236 0 min 0,000 mm 0,0 UV-I 0 W/m 1,3 C -5,6 C 29,0 km/h (5 Bft) 97,22 %
20.11.2017 04:22 3,5 C 5,0 C 86 % 1019,3 hPa 0,0 l/m 17,9 km/h (3 Bft) SW 225 0 min 0,000 mm 0,0 UV-I 0 W/m 1,4 C -4,2 C 25,7 km/h (4 Bft) 98,44 %
20.11.2017 04:24 3,4 C 5,0 C 86 % 1019,3 hPa 0,0 l/m 14,5 km/h (3 Bft) W-SW 254 0 min 0,000 mm 0,0 UV-I 0 W/m 1,3 C -2,6 C 22,5 km/h (4 Bft) 93,62 %
20.11.2017 04:26 3,4 C 5,0 C 86 % 1019,3 hPa 0,0 l/m 13,7 km/h (3 Bft) W 263 0 min 0,000 mm 0,0 UV-I 0 W/m 1,3 C -2,1 C 19,3 km/h (3 Bft) 95,24 %
20.11.2017 04:28 3,4 C 5,0 C 86 % 1019,3 hPa 0,0 l/m 19,2 km/h (3 Bft) W-SW 247 0 min 0,000 mm 0,0 UV-I 0 W/m 1,3 C -4,9 C 32,2 km/h (5 Bft) 96,00 %
20.11.2017 04:30 3,4 C 5,0 C 86 % 1019,4 hPa 0,0 l/m 16,9 km/h (3 Bft) W-SW 248 0 min 0,000 mm 0,0 UV-I 0 W/m 1,3 C -3,8 C 24,1 km/h (4 Bft) 93,62 %
20.11.2017 04:32 3,5 C 5,0 C 86 % 1019,4 hPa 0,0 l/m 16,4 km/h (3 Bft) W-SW 258 0 min 0,000 mm 0,0 UV-I 0 W/m 1,4 C -3,5 C 22,5 km/h (4 Bft) 91,49 %
20.11.2017 04:34 3,5 C 5,0 C 86 % 1019,4 hPa 0,0 l/m 15,9 km/h (3 Bft) W-SW 254 0 min 0,000 mm 0,0 UV-I 0 W/m 1,4 C -3,2 C 22,5 km/h (4 Bft) 95,74 %
20.11.2017 04:36 3,5 C 5,0 C 86 % 1019,3 hPa 0,0 l/m 17,5 km/h (3 Bft) SW 228 0 min 0,000 mm 0,0 UV-I 0 W/m 1,4 C -4,0 C 35,4 km/h (5 Bft) 95,74 %
20.11.2017 04:38 3,5 C 5,0 C 86 % 1019,4 hPa 0,0 l/m 17,4 km/h (3 Bft) W-SW 241 0 min 0,000 mm 0,0 UV-I 0 W/m 1,4 C -4,0 C 24,1 km/h (4 Bft) 91,49 %
20.11.2017 04:40 3,5 C 5,0 C 86 % 1019,4 hPa 0,0 l/m 18,0 km/h (3 Bft) SW 215 0 min 0,000 mm 0,0 UV-I 0 W/m 1,4 C -4,2 C 29,0 km/h (5 Bft) 91,49 %
20.11.2017 04:42 3,5 C 5,0 C 86 % 1019,4 hPa 0,0 l/m 18,5 km/h (3 Bft) W-SW 257 0 min 0,000 mm 0,0 UV-I 0 W/m 1,4 C -4,5 C 30,6 km/h (5 Bft) 93,62 %
20.11.2017 04:44 3,5 C 5,0 C 86 % 1019,4 hPa 0,0 l/m 17,6 km/h (3 Bft) W-SW 257 0 min 0,000 mm 0,0 UV-I 0 W/m 1,4 C -4,0 C 24,1 km/h (4 Bft) 93,62 %
20.11.2017 04:46 3,5 C 5,0 C 86 % 1019,5 hPa 0,0 l/m 21,0 km/h (4 Bft) W-SW 243 0 min 0,000 mm 0,0 UV-I 0 W/m 1,4 C -5,5 C 30,6 km/h (5 Bft) 96,00 %
20.11.2017 04:48 3,5 C 5,0 C 86 % 1019,5 hPa 0,0 l/m 15,7 km/h (3 Bft) W 275 0 min 0,000 mm 0,0 UV-I 0 W/m 1,4 C -3,1 C 22,5 km/h (4 Bft) 93,62 %
20.11.2017 04:50 3,5 C 5,0 C 86 % 1019,5 hPa 0,0 l/m 16,1 km/h (3 Bft) W 273 0 min 0,000 mm 0,0 UV-I 0 W/m 1,4 C -3,3 C 22,5 km/h (4 Bft) 92,11 %
20.11.2017 04:52 3,5 C 5,0 C 86 % 1019,5 hPa 0,0 l/m 17,7 km/h (3 Bft) W-SW 247 0 min 0,000 mm 0,0 UV-I 0 W/m 1,4 C -4,1 C 30,6 km/h (5 Bft) 94,00 %
20.11.2017 04:54 3,5 C 5,0 C 86 % 1019,5 hPa 0,0 l/m 19,5 km/h (3 Bft) W-SW 255 0 min 0,000 mm 0,0 UV-I 0 W/m 1,4 C -4,9 C 27,4 km/h (4 Bft) 95,74 %
20.11.2017 04:56 3,5 C 5,0 C 86 % 1019,5 hPa 0,0 l/m 17,3 km/h (3 Bft) W-SW 240 0 min 0,000 mm 0,0 UV-I 0 W/m 1,4 C -3,9 C 29,0 km/h (5 Bft) 93,62 %
20.11.2017 04:58 3,5 C 5,0 C 86 % 1019,5 hPa 0,0 l/m 19,4 km/h (3 Bft) W-SW 252 0 min 0,000 mm 0,0 UV-I 0 W/m 1,4 C -4,9 C 29,0 km/h (5 Bft) 100,00 %
20.11.2017 05:00 3,5 C 5,0 C 86 % 1019,6 hPa 0,0 l/m 22,8 km/h (4 Bft) SW 231 0 min 0,026 mm 0,0 UV-I 0 W/m 1,4 C -6,2 C 30,6 km/h (5 Bft) 100,00 %
20.11.2017 05:02 3,6 C 5,0 C 85 % 1019,7 hPa 0,0 l/m 25,6 km/h (4 Bft) W-SW 241 0 min 0,000 mm 0,0 UV-I 0 W/m 1,3 C -7,0 C 38,6 km/h (5 Bft) 100,00 %
20.11.2017 05:04 3,6 C 5,0 C 85 % 1019,7 hPa 0,0 l/m 16,1 km/h (3 Bft) W-SW 251 0 min 0,000 mm 0,0 UV-I 0 W/m 1,3 C -3,2 C 24,1 km/h (4 Bft) 100,00 %
20.11.2017 05:06 3,6 C 5,0 C 86 % 1019,8 hPa 0,0 l/m 18,4 km/h (3 Bft) SW 234 0 min 0,000 mm 0,0 UV-I 0 W/m 1,5 C -4,3 C 30,6 km/h (5 Bft) 98,00 %
20.11.2017 05:08 3,6 C 5,0 C 86 % 1019,8 hPa 0,0 l/m 19,8 km/h (3 Bft) SW 232 0 min 0,000 mm 0,0 UV-I 0 W/m 1,5 C -4,9 C 35,4 km/h (5 Bft) 100,00 %
20.11.2017 05:10 3,5 C 5,0 C 86 % 1019,8 hPa 0,0 l/m 17,3 km/h (3 Bft) W-SW 253 0 min 0,000 mm 0,0 UV-I 0 W/m 1,4 C -3,9 C 27,4 km/h (4 Bft) 100,00 %
20.11.2017 05:12 3,5 C 5,0 C 86 % 1019,8 hPa 0,0 l/m 19,4 km/h (3 Bft) NW 317 0 min 0,000 mm 0,0 UV-I 0 W/m 1,4 C -4,9 C 27,4 km/h (4 Bft) 96,00 %
20.11.2017 05:14 3,4 C 5,0 C 86 % 1019,8 hPa 0,0 l/m 22,1 km/h (4 Bft) W 266 0 min 0,000 mm 0,0 UV-I 0 W/m 1,3 C -6,1 C 38,6 km/h (5 Bft) 97,87 %
20.11.2017 05:16 3,4 C 5,0 C 86 % 1019,8 hPa 0,0 l/m 18,9 km/h (3 Bft) W-SW 243 0 min 0,000 mm 0,0 UV-I 0 W/m 1,3 C -4,8 C 24,1 km/h (4 Bft) 100,00 %
20.11.2017 05:18 3,4 C 5,0 C 86 % 1019,9 hPa 0,0 l/m 19,7 km/h (3 Bft) SW 219 0 min 0,000 mm 0,0 UV-I 0 W/m 1,3 C -5,1 C 30,6 km/h (5 Bft) 98,11 %
20.11.2017 05:20 3,4 C 5,0 C 86 % 1019,8 hPa 0,0 l/m 23,1 km/h (4 Bft) W 267 0 min 0,000 mm 0,0 UV-I 0 W/m 1,3 C -6,4 C 32,2 km/h (5 Bft) 100,00 %
20.11.2017 05:22 3,4 C 5,0 C 86 % 1019,9 hPa 0,0 l/m 18,6 km/h (3 Bft) W 267 0 min 0,000 mm 0,0 UV-I 0 W/m 1,3 C -4,6 C 29,0 km/h (5 Bft) 97,87 %
20.11.2017 05:24 3,4 C 5,0 C 86 % 1019,8 hPa 0,0 l/m 21,8 km/h (4 Bft) W 273 0 min 0,000 mm 0,0 UV-I 0 W/m 1,3 C -6,0 C 41,8 km/h (6 Bft) 100,00 %
20.11.2017 05:26 3,4 C 5,0 C 86 % 1019,9 hPa 0,0 l/m 25,0 km/h (4 Bft) W-SW 245 0 min 0,000 mm 0,0 UV-I 0 W/m 1,3 C -7,1 C 35,4 km/h (5 Bft) 95,74 %
20.11.2017 05:28 3,4 C 5,0 C 86 % 1019,8 hPa 0,0 l/m 21,4 km/h (4 Bft) W-SW 244 0 min 0,000 mm 0,0 UV-I 0 W/m 1,3 C -5,8 C 32,2 km/h (5 Bft) 100,00 %
20.11.2017 05:30 3,3 C 5,0 C 87 % 1019,9 hPa 0,0 l/m 21,5 km/h (4 Bft) W 261 0 min 0,000 mm 0,0 UV-I 0 W/m 1,3 C -6,0 C 30,6 km/h (5 Bft) 100,00 %
20.11.2017 05:32 3,3 C 5,0 C 87 % 1019,9 hPa 0,0 l/m 17,3 km/h (3 Bft) SW 228 0 min 0,000 mm 0,0 UV-I 0 W/m 1,3 C -4,2 C 27,4 km/h (4 Bft) 97,83 %
20.11.2017 05:34 3,2 C 5,0 C 87 % 1019,9 hPa 0,0 l/m 20,1 km/h (4 Bft) W-SW 254 0 min 0,000 mm 0,0 UV-I 0 W/m 1,2 C -5,5 C 25,7 km/h (4 Bft) 98,00 %
20.11.2017 05:36 3,2 C 5,0 C 87 % 1019,9 hPa 0,0 l/m 19,3 km/h (3 Bft) W-SW 247 0 min 0,000 mm 0,0 UV-I 0 W/m 1,2 C -5,2 C 29,0 km/h (5 Bft) 100,00 %
20.11.2017 05:38 3,1 C 5,0 C 88 % 1019,9 hPa 0,0 l/m 19,6 km/h (3 Bft) W 262 0 min 0,000 mm 0,0 UV-I 0 W/m 1,3 C -5,5 C 32,2 km/h (5 Bft) 100,00 %
20.11.2017 05:40 3,1 C 5,0 C 88 % 1019,9 hPa 0,0 l/m 20,4 km/h (4 Bft) W 275 0 min 0,000 mm 0,0 UV-I 0 W/m 1,3 C -5,8 C 32,2 km/h (5 Bft) 100,00 %
20.11.2017 05:42 3,1 C 5,0 C 88 % 1020,0 hPa 0,0 l/m 22,1 km/h (4 Bft) W 269 0 min 0,000 mm 0,0 UV-I 0 W/m 1,3 C -6,5 C 38,6 km/h (5 Bft) 100,00 %
20.11.2017 05:44 3,1 C 5,0 C 89 % 1020,0 hPa 0,0 l/m 19,8 km/h (3 Bft) SW 236 0 min 0,000 mm 0,0 UV-I 0 W/m 1,5 C -5,5 C 33,8 km/h (5 Bft) 100,00 %
20.11.2017 05:46 3,1 C 5,0 C 88 % 1020,0 hPa 0,0 l/m 23,7 km/h (4 Bft) W 261 0 min 0,000 mm 0,0 UV-I 0 W/m 1,3 C -7,1 C 37,0 km/h (5 Bft) 97,37 %
20.11.2017 05:48 3,1 C 5,0 C 88 % 1020,0 hPa 0,0 l/m 19,5 km/h (3 Bft) S-SW 200 0 min 0,000 mm 0,0 UV-I 0 W/m 1,3 C -5,4 C 25,7 km/h (4 Bft) 100,00 %
20.11.2017 05:50 3,1 C 5,0 C 89 % 1020,0 hPa 0,0 l/m 16,3 km/h (3 Bft) W-SW 254 0 min 0,000 mm 0,0 UV-I 0 W/m 1,5 C -3,9 C 29,0 km/h (5 Bft) 100,00 %
20.11.2017 05:52 3,0 C 5,0 C 89 % 1020,1 hPa 0,0 l/m 20,0 km/h (4 Bft) SW 229 0 min 0,000 mm 0,0 UV-I 0 W/m 1,4 C -5,8 C 29,0 km/h (5 Bft) 97,87 %
20.11.2017 05:54 3,0 C 5,0 C 89 % 1020,0 hPa 0,0 l/m 17,2 km/h (3 Bft) W-SW 258 0 min 0,000 mm 0,0 UV-I 0 W/m 1,4 C -4,5 C 24,1 km/h (4 Bft) 95,74 %
20.11.2017 05:56 2,9 C 5,0 C 89 % 1020,0 hPa 0,0 l/m 19,4 km/h (3 Bft) SW 221 0 min 0,000 mm 0,0 UV-I 0 W/m 1,3 C -5,6 C 32,2 km/h (5 Bft) 95,74 %
20.11.2017 05:58 2,9 C 5,0 C 89 % 1020,1 hPa 0,0 l/m 14,7 km/h (3 Bft) W 261 0 min 0,000 mm 0,0 UV-I 0 W/m 1,3 C -3,3 C 19,3 km/h (3 Bft) 97,87 %
20.11.2017 06:00 2,9 C 5,0 C 89 % 1020,1 hPa 0,0 l/m 15,4 km/h (3 Bft) W-SW 253 0 min 0,025 mm 0,0 UV-I 0 W/m 1,3 C -3,7 C 24,1 km/h (4 Bft) 100,00 %
20.11.2017 06:02 2,9 C 5,0 C 89 % 1020,1 hPa 0,0 l/m 16,8 km/h (3 Bft) SW 221 0 min 0,000 mm 0,0 UV-I 0 W/m 1,3 C -4,4 C 27,4 km/h (4 Bft) 97,87 %
20.11.2017 06:04 2,9 C 5,0 C 90 % 1020,0 hPa 0,0 l/m 18,0 km/h (3 Bft) W 265 0 min 0,000 mm 0,0 UV-I 0 W/m 1,4 C -5,0 C 22,5 km/h (4 Bft) 96,00 %
20.11.2017 06:06 2,9 C 5,0 C 90 % 1020,1 hPa 0,0 l/m 21,8 km/h (4 Bft) W-SW 245 0 min 0,000 mm 0,0 UV-I 0 W/m 1,4 C -6,6 C 29,0 km/h (5 Bft) 100,00 %
20.11.2017 06:08 2,9 C 5,0 C 89 % 1020,1 hPa 0,0 l/m 19,1 km/h (3 Bft) W-SW 239 0 min 0,000 mm 0,0 UV-I 0 W/m 1,3 C -5,5 C 30,6 km/h (5 Bft) 100,00 %
20.11.2017 06:10 3,0 C 5,0 C 89 % 1020,1 hPa 0,0 l/m 19,4 km/h (3 Bft) W 261 0 min 0,000 mm 0,0 UV-I 0 W/m 1,4 C -5,5 C 29,0 km/h (5 Bft) 100,00 %
20.11.2017 06:12 3,1 C 5,0 C 89 % 1020,1 hPa 0,0 l/m 19,1 km/h (3 Bft) W-SW 256 0 min 0,000 mm 0,0 UV-I 0 W/m 1,5 C -5,2 C 29,0 km/h (5 Bft) 100,00 %
20.11.2017 06:14 3,1 C 5,0 C 88 % 1020,1 hPa 0,0 l/m 17,5 km/h (3 Bft) W-SW 240 0 min 0,000 mm 0,0 UV-I 0 W/m 1,3 C -4,5 C 30,6 km/h (5 Bft) 98,00 %
20.11.2017 06:16 3,2 C 5,0 C 88 % 1020,1 hPa 0,0 l/m 27,3 km/h (4 Bft) W 261 0 min 0,000 mm 0,0 UV-I 0 W/m 1,4 C -8,1 C 38,6 km/h (5 Bft) 100,00 %
20.11.2017 06:18 3,2 C 5,0 C 87 % 1020,1 hPa 0,0 l/m 23,9 km/h (4 Bft) SW 233 0 min 0,000 mm 0,0 UV-I 0 W/m 1,2 C -7,0 C 37,0 km/h (5 Bft) 97,87 %
20.11.2017 06:20 3,3 C 5,0 C 87 % 1020,3 hPa 0,0 l/m 19,2 km/h (3 Bft) SW 233 0 min 0,000 mm 0,0 UV-I 0 W/m 1,3 C -5,0 C 30,6 km/h (5 Bft) 100,00 %
20.11.2017 06:22 3,3 C 5,0 C 87 % 1020,4 hPa 0,0 l/m 20,3 km/h (4 Bft) W 259 0 min 0,000 mm 0,0 UV-I 0 W/m 1,3 C -5,5 C 29,0 km/h (5 Bft) 100,00 %
20.11.2017 06:24 3,3 C 5,0 C 87 % 1020,3 hPa 0,0 l/m 25,6 km/h (4 Bft) W-NW 291 0 min 0,000 mm 0,0 UV-I 0 W/m 1,3 C -7,4 C 41,8 km/h (6 Bft) 100,00 %
20.11.2017 06:26 3,3 C 5,0 C 86 % 1020,3 hPa 0,0 l/m 22,3 km/h (4 Bft) W-SW 248 0 min 0,000 mm 0,0 UV-I 0 W/m 1,2 C -6,3 C 29,0 km/h (5 Bft) 97,87 %
20.11.2017 06:28 3,4 C 5,0 C 86 % 1020,4 hPa 0,0 l/m 22,5 km/h (4 Bft) W-SW 237 0 min 0,000 mm 0,0 UV-I 0 W/m 1,3 C -6,2 C 29,0 km/h (5 Bft) 97,87 %
20.11.2017 06:30 3,4 C 5,0 C 86 % 1020,4 hPa 0,0 l/m 21,5 km/h (4 Bft) W-SW 252 0 min 0,000 mm 0,0 UV-I 0 W/m 1,3 C -5,8 C 33,8 km/h (5 Bft) 100,00 %
20.11.2017 06:32 3,4 C 5,0 C 86 % 1020,3 hPa 0,0 l/m 16,1 km/h (3 Bft) W-SW 240 0 min 0,000 mm 0,0 UV-I 0 W/m 1,3 C -3,4 C 24,1 km/h (4 Bft) 95,74 %
20.11.2017 06:34 3,4 C 5,0 C 86 % 1020,3 hPa 0,0 l/m 19,3 km/h (3 Bft) W-SW 246 0 min 0,000 mm 0,0 UV-I 0 W/m 1,3 C -4,9 C 29,0 km/h (5 Bft) 98,00 %
20.11.2017 06:36 3,4 C 5,0 C 86 % 1020,3 hPa 0,0 l/m 19,7 km/h (3 Bft) S-SW 208 0 min 0,000 mm 0,0 UV-I 0 W/m 1,3 C -5,1 C 30,6 km/h (5 Bft) 97,92 %
20.11.2017 06:38 3,4 C 5,0 C 86 % 1020,3 hPa 0,0 l/m 26,3 km/h (4 Bft) W-SW 244 0 min 0,000 mm 0,0 UV-I 0 W/m 1,3 C -7,5 C 41,8 km/h (6 Bft) 97,37 %
20.11.2017 06:40 3,4 C 5,0 C 86 % 1020,3 hPa 0,0 l/m 24,4 km/h (4 Bft) W 276 0 min 0,000 mm 0,0 UV-I 0 W/m 1,3 C -6,9 C 45,1 km/h (6 Bft) 96,00 %
20.11.2017 06:42 3,4 C 5,0 C 85 % 1020,3 hPa 0,0 l/m 18,3 km/h (3 Bft) W 271 0 min 0,000 mm 0,0 UV-I 0 W/m 1,1 C -4,5 C 24,1 km/h (4 Bft) 97,92 %
20.11.2017 06:44 3,4 C 5,0 C 86 % 1020,4 hPa 0,0 l/m 20,9 km/h (4 Bft) W-SW 242 0 min 0,000 mm 0,0 UV-I 0 W/m 1,3 C -5,6 C 30,6 km/h (5 Bft) 96,00 %
20.11.2017 06:46 3,4 C 5,0 C 86 % 1020,4 hPa 0,0 l/m 21,1 km/h (4 Bft) W-SW 257 0 min 0,000 mm 0,0 UV-I 0 W/m 1,3 C -5,7 C 30,6 km/h (5 Bft) 97,87 %
20.11.2017 06:48 3,5 C 5,0 C 86 % 1020,4 hPa 0,0 l/m 20,8 km/h (4 Bft) W 260 0 min 0,000 mm 0,0 UV-I 0 W/m 1,4 C -5,4 C 33,8 km/h (5 Bft) 97,87 %
20.11.2017 06:50 3,4 C 5,0 C 86 % 1020,4 hPa 0,0 l/m 20,2 km/h (4 Bft) W-SW 248 0 min 0,000 mm 0,0 UV-I 0 W/m 1,3 C -5,3 C 37,0 km/h (5 Bft) 97,87 %
20.11.2017 06:52 3,4 C 5,0 C 86 % 1020,4 hPa 0,0 l/m 22,5 km/h (4 Bft) W 259 0 min 0,000 mm 0,0 UV-I 0 W/m 1,3 C -6,2 C 37,0 km/h (5 Bft) 97,37 %
20.11.2017 06:54 3,4 C 5,0 C 86 % 1020,4 hPa 0,0 l/m 23,8 km/h (4 Bft) W-SW 257 0 min 0,000 mm 0,0 UV-I 0 W/m 1,3 C -6,7 C 37,0 km/h (5 Bft) 97,87 %
20.11.2017 06:56 3,5 C 5,0 C 86 % 1020,4 hPa 0,0 l/m 23,7 km/h (4 Bft) W-SW 250 0 min 0,000 mm 0,0 UV-I 0 W/m 1,4 C -6,5 C 33,8 km/h (5 Bft) 95,74 %
20.11.2017 06:58 3,5 C 5,0 C 86 % 1020,5 hPa 0,0 l/m 22,4 km/h (4 Bft) W-SW 254 0 min 0,000 mm 0,0 UV-I 0 W/m 1,4 C -6,1 C 30,6 km/h (5 Bft) 95,74 %
20.11.2017 07:00 3,5 C 5,0 C 86 % 1020,5 hPa 0,0 l/m 20,6 km/h (4 Bft) W-SW 252 0 min 0,025 mm 0,0 UV-I 0 W/m 1,4 C -5,4 C 33,8 km/h (5 Bft) 97,92 %
20.11.2017 07:02 3,4 C 5,0 C 86 % 1020,5 hPa 0,0 l/m 15,4 km/h (3 Bft) W 259 0 min 0,000 mm 0,0 UV-I 0 W/m 1,3 C -3,1 C 20,9 km/h (4 Bft) 95,74 %
20.11.2017 07:04 3,4 C 5,0 C 86 % 1020,5 hPa 0,0 l/m 15,5 km/h (3 Bft) W-SW 243 0 min 0,000 mm 0,0 UV-I 0 W/m 1,3 C -3,1 C 29,0 km/h (5 Bft) 98,00 %
20.11.2017 07:06 3,4 C 5,0 C 86 % 1020,5 hPa 0,0 l/m 22,9 km/h (4 Bft) W 265 0 min 0,000 mm 0,0 UV-I 0 W/m 1,3 C -6,4 C 35,4 km/h (5 Bft) 97,87 %
20.11.2017 07:08 3,4 C 5,0 C 86 % 1020,5 hPa 0,0 l/m 21,6 km/h (4 Bft) W-SW 240 0 min 0,000 mm 0,0 UV-I 5 W/m 1,3 C -5,9 C 32,2 km/h (5 Bft) 100,00 %
20.11.2017 07:10 3,4 C 5,0 C 86 % 1020,6 hPa 0,0 l/m 20,2 km/h (4 Bft) W 259 0 min 0,000 mm 0,0 UV-I 5 W/m 1,3 C -5,3 C 33,8 km/h (5 Bft) 100,00 %
20.11.2017 07:12 3,4 C 5,0 C 86 % 1020,6 hPa 0,0 l/m 15,8 km/h (3 Bft) W 262 0 min 0,000 mm 0,0 UV-I 5 W/m 1,3 C -3,3 C 20,9 km/h (4 Bft) 100,00 %
20.11.2017 07:14 3,4 C 5,0 C 86 % 1020,7 hPa 0,0 l/m 21,2 km/h (4 Bft) W 269 0 min 0,000 mm 0,0 UV-I 5 W/m 1,3 C -5,7 C 29,0 km/h (5 Bft) 100,00 %
20.11.2017 07:16 3,4 C 5,0 C 86 % 1020,7 hPa 0,0 l/m 21,9 km/h (4 Bft) W-NW 291 0 min 0,000 mm 0,0 UV-I 5 W/m 1,3 C -6,0 C 32,2 km/h (5 Bft) 97,87 %
20.11.2017 07:18 3,5 C 5,0 C 86 % 1020,7 hPa 0,0 l/m 19,4 km/h (3 Bft) W-SW 248 0 min 0,000 mm 0,0 UV-I 5 W/m 1,4 C -4,9 C 29,0 km/h (5 Bft) 97,37 %
20.11.2017 07:20 3,5 C 5,0 C 86 % 1020,7 hPa 0,0 l/m 19,6 km/h (3 Bft) W-SW 240 0 min 0,000 mm 0,0 UV-I 7 W/m 1,4 C -4,9 C 27,4 km/h (4 Bft) 98,00 %
20.11.2017 07:22 3,5 C 5,0 C 85 % 1020,7 hPa 0,0 l/m 20,4 km/h (4 Bft) W 279 0 min 0,000 mm 0,0 UV-I 7 W/m 1,2 C -5,3 C 38,6 km/h (5 Bft) 97,87 %
20.11.2017 07:24 3,6 C 5,0 C 85 % 1020,8 hPa 0,0 l/m 20,8 km/h (4 Bft) W-SW 258 0 min 0,000 mm 0,0 UV-I 7 W/m 1,3 C -5,3 C 30,6 km/h (5 Bft) 95,74 %
20.11.2017 07:26 3,6 C 5,0 C 85 % 1020,8 hPa 0,0 l/m 17,4 km/h (3 Bft) W-SW 246 0 min 0,000 mm 0,0 UV-I 9 W/m 1,3 C -3,8 C 24,1 km/h (4 Bft) 100,00 %
20.11.2017 07:28 3,6 C 5,0 C 85 % 1020,8 hPa 0,0 l/m 18,9 km/h (3 Bft) W 278 0 min 0,000 mm 0,0 UV-I 10 W/m 1,3 C -4,5 C 30,6 km/h (5 Bft) 100,00 %
20.11.2017 07:30 3,6 C 5,0 C 85 % 1020,8 hPa 0,0 l/m 19,7 km/h (3 Bft) SW 231 2 min 0,000 mm 0,0 UV-I 9 W/m 1,3 C -4,9 C 30,6 km/h (5 Bft) 97,87 %
20.11.2017 07:32 3,6 C 5,0 C 85 % 1020,8 hPa 0,0 l/m 20,8 km/h (4 Bft) W 260 0 min 0,000 mm 0,0 UV-I 9 W/m 1,3 C -5,3 C 30,6 km/h (5 Bft) 100,00 %
20.11.2017 07:34 3,5 C 5,0 C 86 % 1020,8 hPa 0,0 l/m 16,6 km/h (3 Bft) W-SW 246 0 min 0,000 mm 0,0 UV-I 9 W/m 1,4 C -3,6 C 24,1 km/h (4 Bft) 100,00 %
20.11.2017 07:36 3,4 C 5,0 C 86 % 1020,8 hPa 0,0 l/m 19,7 km/h (3 Bft) W-SW 249 0 min 0,000 mm 0,0 UV-I 9 W/m 1,3 C -5,1 C 30,6 km/h (5 Bft) 100,00 %
20.11.2017 07:38 3,4 C 5,0 C 86 % 1020,8 hPa 0,0 l/m 18,7 km/h (3 Bft) W-SW 252 0 min 0,000 mm 0,0 UV-I 11 W/m 1,3 C -4,7 C 29,0 km/h (5 Bft) 97,87 %
20.11.2017 07:40 3,4 C 5,0 C 86 % 1020,8 hPa 0,0 l/m 13,3 km/h (3 Bft) W-SW 255 0 min 0,000 mm 0,0 UV-I 12 W/m 1,3 C -1,9 C 19,3 km/h (3 Bft) 97,22 %
20.11.2017 07:42 3,3 C 5,0 C 87 % 1020,9 hPa 0,0 l/m 10,5 km/h (2 Bft) W-SW 237 0 min 0,000 mm 0,0 UV-I 11 W/m 1,3 C -0,2 C 14,5 km/h (3 Bft) 100,00 %
20.11.2017 07:44 3,2 C 5,0 C 88 % 1020,9 hPa 0,0 l/m 16,7 km/h (3 Bft) W-SW 240 0 min 0,000 mm 0,0 UV-I 9 W/m 1,4 C -4,0 C 22,5 km/h (4 Bft) 100,00 %
20.11.2017 07:46 3,1 C 5,0 C 88 % 1020,9 hPa 0,0 l/m 14,1 km/h (3 Bft) W-SW 240 0 min 0,000 mm 0,0 UV-I 8 W/m 1,3 C -2,7 C 25,7 km/h (4 Bft) 100,00 %
20.11.2017 07:48 3,0 C 5,0 C 89 % 1020,9 hPa 0,0 l/m 17,4 km/h (3 Bft) W-SW 255 0 min 0,000 mm 0,0 UV-I 8 W/m 1,4 C -4,6 C 27,4 km/h (4 Bft) 98,00 %
20.11.2017 07:50 2,9 C 5,0 C 89 % 1021,0 hPa 0,0 l/m 17,9 km/h (3 Bft) W-SW 254 0 min 0,000 mm 0,0 UV-I 7 W/m 1,3 C -4,9 C 30,6 km/h (5 Bft) 95,74 %
20.11.2017 07:52 2,8 C 5,0 C 90 % 1021,1 hPa 0,0 l/m 19,5 km/h (3 Bft) SW 229 0 min 0,000 mm 0,0 UV-I 9 W/m 1,3 C -5,8 C 32,2 km/h (5 Bft) 97,87 %
20.11.2017 07:54 2,7 C 5,0 C 90 % 1021,1 hPa 0,0 l/m 17,7 km/h (3 Bft) SW 222 0 min 0,000 mm 0,0 UV-I 12 W/m 1,2 C -5,1 C 24,1 km/h (4 Bft) 97,87 %
20.11.2017 07:56 2,6 C 5,0 C 90 % 1021,1 hPa 0,0 l/m 20,0 km/h (4 Bft) W 269 0 min 0,000 mm 0,0 UV-I 14 W/m 1,1 C -6,3 C 27,4 km/h (4 Bft) 94,74 %
20.11.2017 07:58 2,4 C 5,0 C 91 % 1021,1 hPa 0,0 l/m 17,8 km/h (3 Bft) SW 215 0 min 0,000 mm 0,0 UV-I 16 W/m 1,1 C -5,5 C 29,0 km/h (5 Bft) 98,00 %
20.11.2017 08:00 2,3 C 5,0 C 91 % 1021,1 hPa 0,0 l/m 17,5 km/h (3 Bft) W-SW 238 0 min 0,026 mm 0,0 UV-I 17 W/m 1,0 C -5,5 C 24,1 km/h (4 Bft) 97,37 %
20.11.2017 08:02 2,2 C 5,0 C 92 % 1021,1 hPa 0,0 l/m 18,2 km/h (3 Bft) W-SW 244 0 min 0,000 mm 0,0 UV-I 13 W/m 1,0 C -6,0 C 25,7 km/h (4 Bft) 98,00 %
20.11.2017 08:04 2,1 C 5,0 C 92 % 1021,1 hPa 0,0 l/m 17,6 km/h (3 Bft) W-SW 251 0 min 0,000 mm 0,0 UV-I 12 W/m 0,9 C -5,8 C 25,7 km/h (4 Bft) 93,62 %
20.11.2017 08:06 1,9 C 5,0 C 93 % 1021,1 hPa 0,2 l/m 17,3 km/h (3 Bft) W-SW 237 0 min 0,000 mm 0,0 UV-I 12 W/m 0,9 C -5,9 C 25,7 km/h (4 Bft) 98,00 %
20.11.2017 08:08 1,8 C 5,0 C 93 % 1021,2 hPa 0,0 l/m 14,1 km/h (3 Bft) S-SW 209 0 min 0,000 mm 0,0 UV-I 13 W/m 0,8 C -4,3 C 19,3 km/h (3 Bft) 95,74 %
20.11.2017 08:10 1,7 C 5,0 C 93 % 1021,1 hPa 0,0 l/m 14,8 km/h (3 Bft) SW 231 0 min 0,000 mm 0,0 UV-I 15 W/m 0,7 C -4,8 C 22,5 km/h (4 Bft) 98,00 %
20.11.2017 08:12 1,7 C 5,0 C 93 % 1021,2 hPa 0,0 l/m 12,9 km/h (3 Bft) W-SW 239 0 min 0,000 mm 0,0 UV-I 14 W/m 0,7 C -3,6 C 19,3 km/h (3 Bft) 97,87 %
20.11.2017 08:14 1,7 C 5,0 C 94 % 1021,2 hPa 0,2 l/m 15,9 km/h (3 Bft) SW 219 0 min 0,000 mm 0,0 UV-I 14 W/m 0,8 C -5,4 C 25,7 km/h (4 Bft) 97,87 %
20.11.2017 08:16 1,6 C 5,0 C 94 % 1021,2 hPa 0,0 l/m 13,9 km/h (3 Bft) W 261 0 min 0,000 mm 0,0 UV-I 14 W/m 0,7 C -4,4 C 19,3 km/h (3 Bft) 94,87 %
20.11.2017 08:18 1,5 C 5,0 C 94 % 1021,2 hPa 0,0 l/m 13,8 km/h (3 Bft) W-SW 240 0 min 0,000 mm 0,0 UV-I 14 W/m 0,6 C -4,4 C 19,3 km/h (3 Bft) 97,96 %
20.11.2017 08:20 1,4 C 5,0 C 94 % 1021,1 hPa 0,0 l/m 14,1 km/h (3 Bft) SW 219 0 min 0,000 mm 0,0 UV-I 13 W/m 0,5 C -4,8 C 20,9 km/h (4 Bft) 100,00 %
20.11.2017 08:22 1,4 C 5,0 C 94 % 1021,2 hPa 0,2 l/m 17,9 km/h (3 Bft) W 261 0 min 0,000 mm 0,0 UV-I 11 W/m 0,5 C -6,8 C 29,0 km/h (5 Bft) 96,00 %
20.11.2017 08:24 1,4 C 5,0 C 94 % 1021,2 hPa 0,0 l/m 14,5 km/h (3 Bft) SW 224 0 min 0,000 mm 0,0 UV-I 10 W/m 0,5 C -5,0 C 24,1 km/h (4 Bft) 95,74 %
20.11.2017 08:26 1,4 C 5,0 C 94 % 1021,2 hPa 0,0 l/m 19,7 km/h (3 Bft) W-SW 238 0 min 0,000 mm 0,0 UV-I 11 W/m 0,5 C -7,7 C 27,4 km/h (4 Bft) 97,87 %
20.11.2017 08:28 1,4 C 5,0 C 94 % 1021,2 hPa 0,2 l/m 16,1 km/h (3 Bft) W-SW 248 0 min 0,000 mm 0,0 UV-I 12 W/m 0,5 C -5,9 C 24,1 km/h (4 Bft) 96,00 %
20.11.2017 08:30 1,4 C 5,0 C 94 % 1021,2 hPa 0,0 l/m 17,2 km/h (3 Bft) SW 234 0 min 0,000 mm 0,0 UV-I 12 W/m 0,5 C -6,5 C 29,0 km/h (5 Bft) 93,62 %
20.11.2017 08:32 1,4 C 5,0 C 94 % 1021,1 hPa 0,0 l/m 16,2 km/h (3 Bft) W-SW 240 0 min 0,000 mm 0,0 UV-I 14 W/m 0,5 C -6,0 C 27,4 km/h (4 Bft) 97,14 %
20.11.2017 08:34 1,4 C 5,0 C 94 % 1021,2 hPa 0,0 l/m 13,8 km/h (3 Bft) SW 225 0 min 0,000 mm 0,0 UV-I 16 W/m 0,5 C -4,6 C 20,9 km/h (4 Bft) 96,00 %
20.11.2017 08:36 1,5 C 5,0 C 95 % 1021,1 hPa 0,0 l/m 16,3 km/h (3 Bft) W-SW 240 0 min 0,000 mm 0,0 UV-I 20 W/m 0,8 C -5,9 C 25,7 km/h (4 Bft) 93,62 %
20.11.2017 08:38 1,6 C 5,0 C 95 % 1021,2 hPa 0,0 l/m 19,4 km/h (3 Bft) W-SW 246 0 min 0,000 mm 0,0 UV-I 29 W/m 0,9 C -7,3 C 29,0 km/h (5 Bft) 93,62 %
20.11.2017 08:40 1,8 C 5,0 C 95 % 1021,1 hPa 0,0 l/m 20,5 km/h (4 Bft) W 273 0 min 0,000 mm 0,0 UV-I 32 W/m 1,1 C -7,5 C 35,4 km/h (5 Bft) 96,00 %
20.11.2017 08:42 1,9 C 5,0 C 95 % 1021,1 hPa 0,0 l/m 17,2 km/h (3 Bft) SW 234 0 min 0,000 mm 0,0 UV-I 39 W/m 1,2 C -5,9 C 30,6 km/h (5 Bft) 91,49 %
20.11.2017 08:44 2,0 C 5,0 C 95 % 1021,2 hPa 0,0 l/m 17,3 km/h (3 Bft) W 263 0 min 0,000 mm 0,0 UV-I 55 W/m 1,3 C -5,8 C 27,4 km/h (4 Bft) 93,62 %
20.11.2017 08:46 2,1 C 5,0 C 94 % 1021,2 hPa 0,0 l/m 16,4 km/h (3 Bft) W-SW 248 0 min 0,000 mm 0,0 UV-I 46 W/m 1,2 C -5,2 C 22,5 km/h (4 Bft) 93,62 %
20.11.2017 08:48 2,2 C 5,0 C 94 % 1021,2 hPa 0,0 l/m 14,9 km/h (3 Bft) W 267 0 min 0,000 mm 0,0 UV-I 37 W/m 1,3 C -4,3 C 25,7 km/h (4 Bft) 91,49 %
20.11.2017 08:50 2,2 C 5,0 C 94 % 1021,2 hPa 0,0 l/m 18,9 km/h (3 Bft) W-SW 241 0 min 0,000 mm 0,0 UV-I 40 W/m 1,3 C -6,3 C 27,4 km/h (4 Bft) 95,74 %
20.11.2017 08:52 2,2 C 5,0 C 94 % 1021,2 hPa 0,0 l/m 15,6 km/h (3 Bft) SW 236 0 min 0,000 mm 0,0 UV-I 42 W/m 1,3 C -4,6 C 25,7 km/h (4 Bft) 97,56 %
20.11.2017 08:54 2,2 C 5,0 C 94 % 1021,2 hPa 0,0 l/m 18,9 km/h (3 Bft) W-SW 247 0 min 0,000 mm 0,0 UV-I 52 W/m 1,3 C -6,3 C 29,0 km/h (5 Bft) 98,00 %
20.11.2017 08:56 2,2 C 5,0 C 93 % 1021,2 hPa 0,0 l/m 20,4 km/h (4 Bft) W-SW 256 0 min 0,000 mm 0,0 UV-I 71 W/m 1,2 C -7,0 C 30,6 km/h (5 Bft) 95,74 %
20.11.2017 08:58 2,2 C 5,0 C 93 % 1021,3 hPa 0,0 l/m 20,7 km/h (4 Bft) W 265 0 min 0,000 mm 0,0 UV-I 60 W/m 1,2 C -7,1 C 27,4 km/h (4 Bft) 95,74 %
20.11.2017 09:00 2,2 C 5,0 C 93 % 1021,3 hPa 0,0 l/m 16,2 km/h (3 Bft) W-SW 240 0 min 0,025 mm 0,0 UV-I 36 W/m 1,2 C -5,0 C 24,1 km/h (4 Bft) 92,00 %
20.11.2017 09:02 2,2 C 5,0 C 94 % 1021,3 hPa 0,0 l/m 18,6 km/h (3 Bft) W-SW 238 0 min 0,000 mm 0,0 UV-I 37 W/m 1,3 C -6,2 C 29,0 km/h (5 Bft) 95,74 %
20.11.2017 09:04 2,2 C 5,0 C 93 % 1021,3 hPa 0,0 l/m 18,2 km/h (3 Bft) W-SW 247 0 min 0,000 mm 0,0 UV-I 39 W/m 1,2 C -6,0 C 29,0 km/h (5 Bft) 97,92 %
20.11.2017 09:06 2,2 C 5,0 C 93 % 1021,3 hPa 0,0 l/m 19,1 km/h (3 Bft) W-SW 246 0 min 0,000 mm 0,0 UV-I 37 W/m 1,2 C -6,4 C 27,4 km/h (4 Bft) 95,74 %
20.11.2017 09:08 2,2 C 5,0 C 94 % 1021,4 hPa 0,0 l/m 17,5 km/h (3 Bft) SW 236 0 min 0,000 mm 0,0 UV-I 50 W/m 1,3 C -5,6 C 25,7 km/h (4 Bft) 95,74 %
20.11.2017 09:10 2,2 C 5,0 C 93 % 1021,2 hPa 0,0 l/m 15,7 km/h (3 Bft) SW 232 0 min 0,000 mm 0,0 UV-I 46 W/m 1,2 C -4,7 C 24,1 km/h (4 Bft) 97,87 %
20.11.2017 09:12 2,2 C 5,0 C 93 % 1021,3 hPa 0,0 l/m 16,1 km/h (3 Bft) SW 233 0 min 0,000 mm 0,0 UV-I 39 W/m 1,2 C -4,9 C 25,7 km/h (4 Bft) 98,00 %
20.11.2017 09:14 2,2 C 5,0 C 93 % 1021,4 hPa 0,0 l/m 16,6 km/h (3 Bft) W-SW 246 0 min 0,000 mm 0,0 UV-I 38 W/m 1,2 C -5,2 C 27,4 km/h (4 Bft) 100,00 %
20.11.2017 09:16 2,2 C 5,0 C 93 % 1021,4 hPa 0,0 l/m 16,6 km/h (3 Bft) W-SW 254 0 min 0,000 mm 0,0 UV-I 38 W/m 1,2 C -5,2 C 27,4 km/h (4 Bft) 100,00 %
20.11.2017 09:18 2,2 C 5,0 C 93 % 1021,4 hPa 0,0 l/m 15,5 km/h (3 Bft) SW 234 0 min 0,000 mm 0,0 UV-I 45 W/m 1,2 C -4,6 C 25,7 km/h (4 Bft) 97,87 %
20.11.2017 09:20 2,3 C 5,0 C 93 % 1021,5 hPa 0,0 l/m 15,6 km/h (3 Bft) SW 233 0 min 0,000 mm 0,0 UV-I 52 W/m 1,3 C -4,5 C 22,5 km/h (4 Bft) 100,00 %
20.11.2017 09:22 2,3 C 5,0 C 93 % 1021,5 hPa 0,0 l/m 16,1 km/h (3 Bft) W-SW 241 0 min 0,000 mm 0,0 UV-I 49 W/m 1,3 C -4,8 C 24,1 km/h (4 Bft) 97,87 %
20.11.2017 09:24 2,4 C 5,0 C 93 % 1021,5 hPa 0,0 l/m 13,6 km/h (3 Bft) W-SW 244 0 min 0,000 mm 0,0 UV-I 53 W/m 1,4 C -3,3 C 20,9 km/h (4 Bft) 100,00 %
20.11.2017 09:26 2,4 C 5,0 C 93 % 1021,5 hPa 0,0 l/m 15,9 km/h (3 Bft) SW 219 0 min 0,000 mm 0,0 UV-I 50 W/m 1,4 C -4,6 C 27,4 km/h (4 Bft) 100,00 %
20.11.2017 09:28 2,4 C 5,0 C 93 % 1021,5 hPa 0,0 l/m 17,5 km/h (3 Bft) SW 234 0 min 0,000 mm 0,0 UV-I 53 W/m 1,4 C -5,4 C 25,7 km/h (4 Bft) 100,00 %
20.11.2017 09:30 2,5 C 5,0 C 93 % 1021,5 hPa 0,0 l/m 14,2 km/h (3 Bft) W-SW 255 0 min 0,000 mm 0,0 UV-I 42 W/m 1,5 C -3,5 C 20,9 km/h (4 Bft) 97,87 %
20.11.2017 09:32 2,5 C 5,0 C 92 % 1021,5 hPa 0,0 l/m 15,6 km/h (3 Bft) SW 231 0 min 0,000 mm 0,0 UV-I 41 W/m 1,3 C -4,3 C 30,6 km/h (5 Bft) 100,00 %
20.11.2017 09:34 2,6 C 5,0 C 92 % 1021,5 hPa 0,0 l/m 17,9 km/h (3 Bft) W-SW 250 0 min 0,000 mm 0,0 UV-I 52 W/m 1,4 C -5,3 C 25,7 km/h (4 Bft) 97,87 %
20.11.2017 09:36 2,6 C 5,0 C 92 % 1021,5 hPa 0,0 l/m 19,9 km/h (4 Bft) W-SW 239 0 min 0,000 mm 0,0 UV-I 47 W/m 1,4 C -6,2 C 30,6 km/h (5 Bft) 97,87 %
20.11.2017 09:38 2,6 C 5,0 C 92 % 1021,5 hPa 0,0 l/m 15,0 km/h (3 Bft) W 267 0 min 0,000 mm 0,0 UV-I 53 W/m 1,4 C -3,8 C 20,9 km/h (4 Bft) 100,00 %
20.11.2017 09:40 2,7 C 5,0 C 92 % 1021,5 hPa 0,0 l/m 15,3 km/h (3 Bft) SW 228 0 min 0,000 mm 0,0 UV-I 57 W/m 1,5 C -3,9 C 24,1 km/h (4 Bft) 100,00 %
20.11.2017 09:42 2,7 C 5,0 C 92 % 1021,5 hPa 0,0 l/m 19,0 km/h (3 Bft) SW 219 0 min 0,000 mm 0,0 UV-I 57 W/m 1,5 C -5,7 C 27,4 km/h (4 Bft) 100,00 %
20.11.2017 09:44 2,7 C 5,0 C 92 % 1021,5 hPa 0,0 l/m 17,9 km/h (3 Bft) W-SW 242 0 min 0,000 mm 0,0 UV-I 62 W/m 1,5 C -5,2 C 29,0 km/h (5 Bft) 100,00 %
20.11.2017 09:46 2,7 C 5,0 C 92 % 1021,5 hPa 0,0 l/m 17,7 km/h (3 Bft) W-SW 244 0 min 0,000 mm 0,0 UV-I 68 W/m 1,5 C -5,1 C 24,1 km/h (4 Bft) 98,00 %
20.11.2017 09:48 2,7 C 5,0 C 92 % 1021,5 hPa 0,0 l/m 17,2 km/h (3 Bft) W 261 0 min 0,000 mm 0,0 UV-I 66 W/m 1,5 C -4,9 C 27,4 km/h (4 Bft) 97,37 %
20.11.2017 09:50 2,7 C 5,0 C 91 % 1021,6 hPa 0,0 l/m 17,2 km/h (3 Bft) W-SW 250 0 min 0,000 mm 0,0 UV-I 77 W/m 1,4 C -4,9 C 27,4 km/h (4 Bft) 100,00 %
20.11.2017 09:52 2,7 C 5,0 C 91 % 1021,5 hPa 0,0 l/m 15,9 km/h (3 Bft) W-SW 242 0 min 0,000 mm 0,0 UV-I 105 W/m 1,4 C -4,2 C 24,1 km/h (4 Bft) 100,00 %
20.11.2017 09:54 2,7 C 5,0 C 91 % 1021,6 hPa 0,0 l/m 16,8 km/h (3 Bft) SW 218 0 min 0,000 mm 0,0 UV-I 86 W/m 1,4 C -4,7 C 24,1 km/h (4 Bft) 97,87 %
20.11.2017 09:56 2,8 C 5,0 C 91 % 1021,6 hPa 0,0 l/m 15,0 km/h (3 Bft) W-SW 246 0 min 0,000 mm 0,0 UV-I 87 W/m 1,5 C -3,6 C 22,5 km/h (4 Bft) 100,00 %
20.11.2017 09:58 2,8 C 5,0 C 91 % 1021,6 hPa 0,0 l/m 15,3 km/h (3 Bft) W-SW 244 0 min 0,000 mm 0,0 UV-I 100 W/m 1,5 C -3,8 C 27,4 km/h (4 Bft) 100,00 %
20.11.2017 10:00 2,8 C 5,0 C 91 % 1021,6 hPa 0,0 l/m 16,5 km/h (3 Bft) S-SW 205 0 min 0,026 mm 0,0 UV-I 88 W/m 1,5 C -4,4 C 25,7 km/h (4 Bft) 100,00 %
20.11.2017 10:02 2,8 C 5,0 C 91 % 1021,6 hPa 0,0 l/m 16,2 km/h (3 Bft) SW 215 0 min 0,000 mm 0,0 UV-I 77 W/m 1,5 C -4,2 C 22,5 km/h (4 Bft) 97,87 %
20.11.2017 10:04 2,8 C 5,0 C 91 % 1021,6 hPa 0,0 l/m 17,5 km/h (3 Bft) SW 222 0 min 0,000 mm 0,0 UV-I 86 W/m 1,5 C -4,9 C 27,4 km/h (4 Bft) 100,00 %
20.11.2017 10:06 2,8 C 5,0 C 91 % 1021,6 hPa 0,0 l/m 12,8 km/h (3 Bft) W-SW 252 0 min 0,000 mm 0,0 UV-I 96 W/m 1,5 C -2,3 C 17,7 km/h (3 Bft) 97,87 %
20.11.2017 10:08 2,9 C 5,0 C 91 % 1021,6 hPa 0,0 l/m 16,2 km/h (3 Bft) S-SW 213 0 min 0,000 mm 0,0 UV-I 95 W/m 1,6 C -4,1 C 29,0 km/h (5 Bft) 100,00 %
20.11.2017 10:10 2,9 C 5,0 C 91 % 1021,6 hPa 0,0 l/m 19,5 km/h (3 Bft) W-SW 254 0 min 0,000 mm 0,0 UV-I 96 W/m 1,6 C -5,7 C 32,2 km/h (5 Bft) 97,37 %
20.11.2017 10:12 2,9 C 5,0 C 91 % 1021,7 hPa 0,0 l/m 18,9 km/h (3 Bft) W-SW 245 0 min 0,000 mm 0,0 UV-I 108 W/m 1,6 C -5,4 C 33,8 km/h (5 Bft) 100,00 %
20.11.2017 10:14 2,9 C 5,0 C 90 % 1021,7 hPa 0,0 l/m 19,7 km/h (3 Bft) S-SW 210 0 min 0,000 mm 0,0 UV-I 112 W/m 1,4 C -5,8 C 29,0 km/h (5 Bft) 100,00 %
20.11.2017 10:16 2,9 C 5,0 C 90 % 1021,7 hPa 0,0 l/m 20,6 km/h (4 Bft) W 263 0 min 0,000 mm 0,0 UV-I 97 W/m 1,4 C -6,1 C 33,8 km/h (5 Bft) 100,00 %
20.11.2017 10:18 2,9 C 5,0 C 90 % 1021,7 hPa 0,0 l/m 21,5 km/h (4 Bft) SW 214 0 min 0,000 mm 0,0 UV-I 85 W/m 1,4 C -6,5 C 30,6 km/h (5 Bft) 100,00 %
20.11.2017 10:20 2,8 C 5,0 C 90 % 1021,7 hPa 0,0 l/m 19,1 km/h (3 Bft) W-SW 245 0 min 0,000 mm 0,0 UV-I 98 W/m 1,3 C -5,6 C 30,6 km/h (5 Bft) 100,00 %
20.11.2017 10:22 2,8 C 5,0 C 91 % 1021,7 hPa 0,0 l/m 17,3 km/h (3 Bft) W-SW 250 0 min 0,000 mm 0,0 UV-I 101 W/m 1,5 C -4,8 C 30,6 km/h (5 Bft) 100,00 %
20.11.2017 10:24 2,7 C 5,0 C 91 % 1021,7 hPa 0,2 l/m 18,5 km/h (3 Bft) W-SW 242 0 min 0,000 mm 0,0 UV-I 106 W/m 1,4 C -5,5 C 29,0 km/h (5 Bft) 97,87 %
20.11.2017 10:26 2,7 C 5,0 C 91 % 1021,7 hPa 0,0 l/m 15,9 km/h (3 Bft) W-SW 248 0 min 0,000 mm 0,0 UV-I 92 W/m 1,4 C -4,2 C 24,1 km/h (4 Bft) 100,00 %
20.11.2017 10:28 2,7 C 5,0 C 91 % 1021,8 hPa 0,0 l/m 15,5 km/h (3 Bft) SW 224 0 min 0,000 mm 0,0 UV-I 73 W/m 1,4 C -4,0 C 22,5 km/h (4 Bft) 100,00 %
20.11.2017 10:30 2,8 C 5,0 C 91 % 1021,8 hPa 0,0 l/m 16,0 km/h (3 Bft) W 265 0 min 0,000 mm 0,0 UV-I 56 W/m 1,5 C -4,1 C 27,4 km/h (4 Bft) 97,37 %
20.11.2017 10:32 2,8 C 5,0 C 91 % 1021,8 hPa 0,0 l/m 15,1 km/h (3 Bft) W-SW 238 0 min 0,000 mm 0,0 UV-I 60 W/m 1,5 C -3,6 C 24,1 km/h (4 Bft) 100,00 %
20.11.2017 10:34 2,8 C 5,0 C 91 % 1021,8 hPa 0,0 l/m 17,8 km/h (3 Bft) W 268 0 min 0,000 mm 0,0 UV-I 60 W/m 1,5 C -5,0 C 25,7 km/h (4 Bft) 97,87 %
20.11.2017 10:36 2,8 C 5,0 C 91 % 1021,9 hPa 0,0 l/m 14,2 km/h (3 Bft) SW 233 0 min 0,000 mm 0,0 UV-I 70 W/m 1,5 C -3,1 C 20,9 km/h (4 Bft) 98,00 %
20.11.2017 10:38 2,8 C 5,0 C 91 % 1021,9 hPa 0,0 l/m 13,4 km/h (3 Bft) SW 232 0 min 0,000 mm 0,0 UV-I 52 W/m 1,5 C -2,7 C 19,3 km/h (3 Bft) 97,87 %
20.11.2017 10:40 2,8 C 5,0 C 91 % 1021,9 hPa 0,0 l/m 16,7 km/h (3 Bft) W 272 0 min 0,000 mm 0,0 UV-I 39 W/m 1,5 C -4,5 C 25,7 km/h (4 Bft) 97,87 %
20.11.2017 10:42 2,8 C 5,0 C 91 % 1021,8 hPa 0,0 l/m 10,7 km/h (2 Bft) W 269 0 min 0,000 mm 0,0 UV-I 46 W/m 1,5 C -0,9 C 16,1 km/h (3 Bft) 97,87 %
20.11.2017 10:44 2,9 C 5,0 C 91 % 1021,8 hPa 0,2 l/m 8,3 km/h (2 Bft) W-SW 256 0 min 0,000 mm 0,0 UV-I 57 W/m 1,6 C 1,1 C 12,9 km/h (3 Bft) 95,74 %
20.11.2017 10:46 2,9 C 5,0 C 91 % 1021,7 hPa 0,0 l/m 9,2 km/h (2 Bft) W-SW 246 0 min 0,000 mm 0,0 UV-I 71 W/m 1,6 C 0,4 C 14,5 km/h (3 Bft) 96,00 %
20.11.2017 10:48 2,9 C 5,0 C 91 % 1021,8 hPa 0,0 l/m 7,4 km/h (2 Bft) W 261 0 min 0,000 mm 0,0 UV-I 95 W/m 1,6 C 1,9 C 16,1 km/h (3 Bft) 97,50 %
20.11.2017 10:50 3,0 C 5,0 C 91 % 1021,7 hPa 0,0 l/m 8,6 km/h (2 Bft) W-SW 249 0 min 0,000 mm 0,0 UV-I 112 W/m 1,7 C 1,0 C 14,5 km/h (3 Bft) 93,62 %
20.11.2017 10:52 3,1 C 5,0 C 91 % 1021,7 hPa 0,0 l/m 8,7 km/h (2 Bft) W-SW 250 0 min 0,000 mm 0,0 UV-I 114 W/m 1,8 C 1,0 C 17,7 km/h (3 Bft) 98,00 %
20.11.2017 10:54 3,1 C 5,0 C 91 % 1021,7 hPa 0,0 l/m 5,7 km/h (1 Bft) W-SW 254 0 min 0,000 mm 0,0 UV-I 107 W/m 1,8 C 3,1 C 9,7 km/h (2 Bft) 95,74 %
20.11.2017 10:56 3,2 C 5,0 C 91 % 1021,8 hPa 0,0 l/m 5,2 km/h (1 Bft) W-SW 251 0 min 0,000 mm 0,0 UV-I 106 W/m 1,9 C 3,2 C 11,3 km/h (2 Bft) 98,00 %
20.11.2017 10:58 3,2 C 5,0 C 91 % 1021,8 hPa 0,0 l/m 6,4 km/h (2 Bft) W 259 0 min 0,000 mm 0,0 UV-I 113 W/m 1,9 C 3,2 C 11,3 km/h (2 Bft) 93,88 %
20.11.2017 11:00 3,3 C 5,0 C 91 % 1021,8 hPa 0,0 l/m 5,5 km/h (1 Bft) W 268 0 min 0,050 mm 0,0 UV-I 119 W/m 2,0 C 3,3 C 9,7 km/h (2 Bft) 97,87 %
20.11.2017 11:02 3,3 C 5,0 C 91 % 1021,7 hPa 0,0 l/m 4,2 km/h (1 Bft) S-SW 212 0 min 0,000 mm 0,0 UV-I 126 W/m 2,0 C 3,3 C 6,4 km/h (2 Bft) 97,87 %
20.11.2017 11:04 3,4 C 5,0 C 90 % 1021,7 hPa 0,0 l/m 7,5 km/h (2 Bft) SW 234 0 min 0,000 mm 0,0 UV-I 134 W/m 1,9 C 2,4 C 11,3 km/h (2 Bft) 97,87 %
20.11.2017 11:06 3,5 C 5,0 C 90 % 1021,6 hPa 0,0 l/m 8,2 km/h (2 Bft) SW 225 0 min 0,000 mm 0,1 UV-I 142 W/m 2,0 C 1,9 C 12,9 km/h (3 Bft) 95,83 %
20.11.2017 11:08 3,6 C 5,0 C 90 % 1021,6 hPa 0,0 l/m 7,1 km/h (2 Bft) W-SW 239 0 min 0,000 mm 0,3 UV-I 149 W/m 2,1 C 3,0 C 11,3 km/h (2 Bft) 97,30 %
20.11.2017 11:10 3,7 C 5,0 C 90 % 1021,6 hPa 0,0 l/m 8,7 km/h (2 Bft) SW 230 0 min 0,000 mm 0,0 UV-I 142 W/m 2,2 C 1,6 C 16,1 km/h (3 Bft) 97,87 %
20.11.2017 11:12 3,7 C 5,0 C 89 % 1021,6 hPa 0,0 l/m 10,9 km/h (2 Bft) S-SW 203 0 min 0,000 mm 0,0 UV-I 137 W/m 2,1 C -0,0 C 17,7 km/h (3 Bft) 97,87 %
20.11.2017 11:14 3,8 C 5,0 C 88 % 1021,6 hPa 0,0 l/m 9,2 km/h (2 Bft) W-SW 248 0 min 0,000 mm 0,0 UV-I 142 W/m 2,0 C 1,4 C 14,5 km/h (3 Bft) 96,00 %
20.11.2017 11:16 3,9 C 5,0 C 88 % 1021,5 hPa 0,0 l/m 7,5 km/h (2 Bft) SW 232 0 min 0,000 mm 0,0 UV-I 147 W/m 2,1 C 2,9 C 12,9 km/h (3 Bft) 97,87 %
20.11.2017 11:18 3,9 C 5,0 C 87 % 1021,4 hPa 0,0 l/m 8,4 km/h (2 Bft) SW 221 0 min 0,000 mm 0,0 UV-I 141 W/m 1,9 C 2,1 C 14,5 km/h (3 Bft) 100,00 %
20.11.2017 11:20 4,0 C 5,0 C 88 % 1021,4 hPa 0,0 l/m 6,4 km/h (2 Bft) W-SW 245 0 min 0,000 mm 0,0 UV-I 129 W/m 2,2 C 4,0 C 9,7 km/h (2 Bft) 100,00 %
20.11.2017 11:23 4,0 C 5,0 C 87 % 1021,4 hPa 0,0 l/m 7,8 km/h (2 Bft) SW 227 0 min 0,000 mm 0,0 UV-I 115 W/m 2,0 C 2,7 C 14,5 km/h (3 Bft) 98,59 %
20.11.2017 11:24 4,1 C 5,0 C 88 % 1021,4 hPa 0,0 l/m 8,5 km/h (2 Bft) SW 228 0 min 0,000 mm 0,0 UV-I 111 W/m 2,3 C 2,2 C 11,3 km/h (2 Bft) 95,65 %
20.11.2017 11:26 4,1 C 5,0 C 87 % 1021,3 hPa 0,0 l/m 11,0 km/h (2 Bft) SW 231 0 min 0,000 mm 0,0 UV-I 124 W/m 2,1 C 0,4 C 14,5 km/h (3 Bft) 100,00 %
20.11.2017 11:28 4,1 C 5,0 C 87 % 1021,4 hPa 0,0 l/m 14,2 km/h (3 Bft) SW 223 0 min 0,000 mm 0,0 UV-I 142 W/m 2,1 C -1,6 C 30,6 km/h (5 Bft) 100,00 %
20.11.2017 11:30 4,2 C 5,0 C 85 % 1021,3 hPa 0,0 l/m 12,6 km/h (3 Bft) W 279 0 min 0,000 mm 0,0 UV-I 139 W/m 1,9 C -0,5 C 25,7 km/h (4 Bft) 100,00 %
20.11.2017 11:32 4,2 C 5,0 C 86 % 1021,4 hPa 0,0 l/m 13,1 km/h (3 Bft) W-NW 294 0 min 0,000 mm 0,0 UV-I 141 W/m 2,1 C -0,8 C 24,1 km/h (4 Bft) 100,00 %
20.11.2017 11:34 4,2 C 5,0 C 85 % 1021,3 hPa 0,0 l/m 17,6 km/h (3 Bft) W-SW 257 0 min 0,000 mm 0,5 UV-I 149 W/m 1,9 C -3,2 C 30,6 km/h (5 Bft) 96,00 %
20.11.2017 11:36 4,2 C 5,0 C 84 % 1021,3 hPa 0,0 l/m 20,1 km/h (4 Bft) W 263 0 min 0,000 mm 0,5 UV-I 162 W/m 1,7 C -4,2 C 27,4 km/h (4 Bft) 100,00 %
20.11.2017 11:38 4,3 C 5,0 C 83 % 1021,4 hPa 0,0 l/m 16,9 km/h (3 Bft) SW 220 0 min 0,000 mm 0,5 UV-I 175 W/m 1,7 C -2,7 C 24,1 km/h (4 Bft) 100,00 %
20.11.2017 11:40 4,3 C 5,0 C 83 % 1021,3 hPa 0,0 l/m 13,4 km/h (3 Bft) SW 236 0 min 0,000 mm 0,5 UV-I 177 W/m 1,7 C -0,9 C 20,9 km/h (4 Bft) 97,92 %
20.11.2017 11:42 4,3 C 5,0 C 83 % 1021,3 hPa 0,0 l/m 15,0 km/h (3 Bft) W 260 0 min 0,000 mm 0,5 UV-I 181 W/m 1,7 C -1,8 C 22,5 km/h (4 Bft) 98,00 %
20.11.2017 11:44 4,4 C 5,0 C 83 % 1021,3 hPa 0,0 l/m 12,3 km/h (3 Bft) W 271 0 min 0,000 mm 0,5 UV-I 194 W/m 1,8 C -0,1 C 20,9 km/h (4 Bft) 97,87 %
20.11.2017 11:46 4,4 C 5,0 C 83 % 1021,2 hPa 0,0 l/m 13,1 km/h (3 Bft) SW 227 0 min 0,000 mm 0,5 UV-I 192 W/m 1,8 C -0,6 C 17,7 km/h (3 Bft) 93,62 %
20.11.2017 11:48 4,4 C 5,0 C 83 % 1021,3 hPa 0,0 l/m 12,5 km/h (3 Bft) W-SW 256 0 min 0,000 mm 0,5 UV-I 188 W/m 1,8 C -0,2 C 22,5 km/h (4 Bft) 97,92 %
20.11.2017 11:50 4,5 C 5,0 C 82 % 1021,3 hPa 0,0 l/m 19,5 km/h (3 Bft) W 261 0 min 0,000 mm 0,5 UV-I 184 W/m 1,7 C -3,6 C 27,4 km/h (4 Bft) 97,87 %
20.11.2017 11:52 4,5 C 5,0 C 83 % 1021,2 hPa 0,0 l/m 15,8 km/h (3 Bft) SW 229 0 min 0,000 mm 0,5 UV-I 187 W/m 1,9 C -1,9 C 25,7 km/h (4 Bft) 97,37 %
20.11.2017 11:56 4,6 C 5,0 C 82 % 1021,2 hPa 0,0 l/m 14,3 km/h (3 Bft) W-SW 257 4 min 0,000 mm 0,6 UV-I 222 W/m 1,8 C -1,0 C 16,1 km/h (3 Bft) 100,00 %
20.11.2017 11:58 4,7 C 5,0 C 83 % 1021,2 hPa 0,0 l/m 10,4 km/h (2 Bft) W-SW 251 2 min 0,000 mm 0,6 UV-I 250 W/m 2,1 C 1,5 C 16,1 km/h (3 Bft) 96,23 %
20.11.2017 12:00 4,7 C 5,0 C 83 % 1021,2 hPa 0,0 l/m 11,4 km/h (2 Bft) W 264 0 min 0,000 mm 0,6 UV-I 204 W/m 2,1 C 0,8 C 19,3 km/h (3 Bft) 97,73 %
20.11.2017 12:02 4,7 C 5,0 C 83 % 1021,1 hPa 0,0 l/m 13,3 km/h (3 Bft) SW 234 0 min 0,077 mm 0,6 UV-I 200 W/m 2,1 C -0,4 C 17,7 km/h (3 Bft) 98,11 %
20.11.2017 12:04 4,7 C 5,0 C 83 % 1021,1 hPa 0,0 l/m 12,6 km/h (3 Bft) SW 221 0 min 0,000 mm 0,5 UV-I 192 W/m 2,1 C 0,0 C 20,9 km/h (4 Bft) 97,56 %
20.11.2017 12:06 4,7 C 5,0 C 82 % 1021,1 hPa 0,0 l/m 18,5 km/h (3 Bft) W-SW 238 0 min 0,000 mm 0,5 UV-I 191 W/m 1,9 C -2,9 C 25,7 km/h (4 Bft) 96,08 %
20.11.2017 12:08 4,6 C 5,0 C 82 % 1021,0 hPa 0,0 l/m 12,7 km/h (3 Bft) W 263 0 min 0,000 mm 0,5 UV-I 197 W/m 1,8 C -0,1 C 24,1 km/h (4 Bft) 95,74 %
20.11.2017 12:10 4,6 C 5,0 C 82 % 1021,1 hPa 0,0 l/m 15,1 km/h (3 Bft) W-SW 238 0 min 0,000 mm 0,5 UV-I 198 W/m 1,8 C -1,5 C 20,9 km/h (4 Bft) 97,37 %
20.11.2017 12:12 4,6 C 5,0 C 82 % 1021,1 hPa 0,0 l/m 15,3 km/h (3 Bft) W-SW 243 0 min 0,000 mm 0,5 UV-I 194 W/m 1,8 C -1,6 C 24,1 km/h (4 Bft) 94,34 %
20.11.2017 12:14 4,6 C 5,0 C 82 % 1021,2 hPa 0,0 l/m 19,3 km/h (3 Bft) W-SW 258 0 min 0,000 mm 0,5 UV-I 184 W/m 1,8 C -3,4 C 27,4 km/h (4 Bft) 98,00 %
20.11.2017 12:16 4,6 C 5,0 C 82 % 1021,0 hPa 0,0 l/m 19,1 km/h (3 Bft) SW 215 0 min 0,000 mm 0,5 UV-I 182 W/m 1,8 C -3,3 C 30,6 km/h (5 Bft) 98,00 %
20.11.2017 12:18 4,6 C 5,0 C 81 % 1021,0 hPa 0,0 l/m 19,1 km/h (3 Bft) W-SW 243 0 min 0,000 mm 0,5 UV-I 183 W/m 1,6 C -3,3 C 29,0 km/h (5 Bft) 97,37 %
20.11.2017 12:20 4,6 C 5,0 C 82 % 1020,9 hPa 0,0 l/m 13,4 km/h (3 Bft) W-SW 250 0 min 0,000 mm 0,5 UV-I 187 W/m 1,8 C -0,5 C 22,5 km/h (4 Bft) 97,87 %
20.11.2017 12:22 4,6 C 5,0 C 82 % 1020,9 hPa 0,0 l/m 14,6 km/h (3 Bft) W-SW 248 0 min 0,000 mm 0,5 UV-I 193 W/m 1,8 C -1,2 C 20,9 km/h (4 Bft) 96,00 %
20.11.2017 12:24 4,6 C 5,0 C 82 % 1020,9 hPa 0,0 l/m 16,6 km/h (3 Bft) W-SW 240 0 min 0,000 mm 0,5 UV-I 192 W/m 1,8 C -2,2 C 25,7 km/h (4 Bft) 97,56 %
20.11.2017 12:26 4,7 C 5,0 C 81 % 1020,9 hPa 0,0 l/m 17,4 km/h (3 Bft) SW 226 2 min 0,000 mm 0,5 UV-I 207 W/m 1,7 C -2,5 C 24,1 km/h (4 Bft) 98,11 %
20.11.2017 12:28 4,6 C 5,0 C 80 % 1021,1 hPa 0,0 l/m 20,0 km/h (4 Bft) W-SW 248 2 min 0,000 mm 0,5 UV-I 217 W/m 1,5 C -3,7 C 30,6 km/h (5 Bft) 97,56 %
20.11.2017 12:30 4,7 C 5,0 C 80 % 1021,0 hPa 0,0 l/m 18,2 km/h (3 Bft) W 262 2 min 0,000 mm 0,5 UV-I 220 W/m 1,6 C -2,8 C 25,7 km/h (4 Bft) 98,11 %
20.11.2017 12:33 4,7 C 5,0 C 79 % 1020,9 hPa 0,0 l/m 18,6 km/h (3 Bft) SW 225 3 min 0,000 mm 0,5 UV-I 243 W/m 1,4 C -3,0 C 33,8 km/h (5 Bft) 94,59 %
20.11.2017 12:34 4,7 C 5,0 C 80 % 1020,8 hPa 0,0 l/m 17,8 km/h (3 Bft) W-SW 255 1 min 0,000 mm 0,5 UV-I 243 W/m 1,6 C -2,6 C 24,1 km/h (4 Bft) 100,00 %
20.11.2017 12:36 4,7 C 5,0 C 80 % 1020,9 hPa 0,0 l/m 19,3 km/h (3 Bft) W-SW 244 2 min 0,000 mm 0,5 UV-I 249 W/m 1,6 C -3,3 C 32,2 km/h (5 Bft) 98,00 %
20.11.2017 12:38 4,8 C 5,0 C 79 % 1020,8 hPa 0,0 l/m 22,7 km/h (4 Bft) W 275 2 min 0,000 mm 0,5 UV-I 241 W/m 1,5 C -4,4 C 32,2 km/h (5 Bft) 92,11 %
20.11.2017 12:40 4,8 C 5,0 C 79 % 1020,7 hPa 0,0 l/m 20,4 km/h (4 Bft) W 271 2 min 0,000 mm 0,5 UV-I 219 W/m 1,5 C -3,6 C 30,6 km/h (5 Bft) 95,24 %
20.11.2017 12:42 4,8 C 5,0 C 79 % 1020,6 hPa 0,0 l/m 17,6 km/h (3 Bft) W 259 2 min 0,000 mm 0,5 UV-I 211 W/m 1,5 C -2,4 C 30,6 km/h (5 Bft) 97,56 %
20.11.2017 12:44 4,8 C 5,0 C 78 % 1020,6 hPa 0,0 l/m 21,1 km/h (4 Bft) W-SW 244 0 min 0,000 mm 0,5 UV-I 200 W/m 1,3 C -3,9 C 30,6 km/h (5 Bft) 96,61 %
20.11.2017 12:46 4,8 C 5,0 C 78 % 1020,6 hPa 0,0 l/m 22,4 km/h (4 Bft) W 269 0 min 0,000 mm 0,5 UV-I 196 W/m 1,3 C -4,3 C 35,4 km/h (5 Bft) 96,00 %
20.11.2017 12:48 4,7 C 5,0 C 78 % 1020,6 hPa 0,0 l/m 15,4 km/h (3 Bft) W 266 2 min 0,000 mm 0,5 UV-I 201 W/m 1,2 C -1,5 C 27,4 km/h (4 Bft) 95,74 %
20.11.2017 12:50 4,7 C 5,0 C 79 % 1020,5 hPa 0,0 l/m 17,7 km/h (3 Bft) W-NW 282 2 min 0,000 mm 0,5 UV-I 209 W/m 1,4 C -2,6 C 27,4 km/h (4 Bft) 96,00 %
20.11.2017 12:52 4,8 C 5,0 C 79 % 1020,5 hPa 0,0 l/m 15,3 km/h (3 Bft) W-SW 241 2 min 0,000 mm 0,5 UV-I 229 W/m 1,5 C -1,3 C 27,4 km/h (4 Bft) 95,74 %
20.11.2017 12:54 4,8 C 5,0 C 79 % 1020,5 hPa 0,0 l/m 18,0 km/h (3 Bft) W 259 2 min 0,000 mm 0,5 UV-I 247 W/m 1,5 C -2,6 C 27,4 km/h (4 Bft) 90,24 %
20.11.2017 12:56 4,8 C 5,0 C 78 % 1020,6 hPa 0,0 l/m 18,3 km/h (3 Bft) W-SW 255 2 min 0,000 mm 0,5 UV-I 237 W/m 1,3 C -2,7 C 25,7 km/h (4 Bft) 96,00 %
20.11.2017 12:58 4,9 C 5,0 C 78 % 1020,6 hPa 0,0 l/m 20,2 km/h (4 Bft) W-SW 242 2 min 0,000 mm 0,5 UV-I 238 W/m 1,4 C -3,4 C 30,6 km/h (5 Bft) 94,74 %
20.11.2017 13:00 4,9 C 5,0 C 78 % 1020,5 hPa 0,0 l/m 16,5 km/h (3 Bft) W 262 2 min 0,101 mm 0,5 UV-I 232 W/m 1,4 C -1,8 C 27,4 km/h (4 Bft) 98,11 %
20.11.2017 13:02 4,9 C 5,0 C 78 % 1020,5 hPa 0,0 l/m 17,2 km/h (3 Bft) W 277 2 min 0,000 mm 0,5 UV-I 225 W/m 1,4 C -2,1 C 25,7 km/h (4 Bft) 94,00 %
20.11.2017 13:04 5,0 C 5,0 C 78 % 1020,5 hPa 0,0 l/m 19,2 km/h (3 Bft) W-SW 247 2 min 0,000 mm 0,5 UV-I 222 W/m 1,5 C -2,8 C 29,0 km/h (5 Bft) 98,11 %
20.11.2017 13:06 4,9 C 5,0 C 77 % 1020,5 hPa 0,0 l/m 23,0 km/h (4 Bft) W-SW 240 2 min 0,000 mm 0,5 UV-I 212 W/m 1,2 C -4,4 C 35,4 km/h (5 Bft) 97,37 %
20.11.2017 13:08 4,9 C 5,0 C 78 % 1020,5 hPa 0,0 l/m 18,5 km/h (3 Bft) W-SW 258 2 min 0,000 mm 0,5 UV-I 203 W/m 1,4 C -2,7 C 29,0 km/h (5 Bft) 96,00 %
20.11.2017 13:10 4,9 C 5,0 C 77 % 1020,4 hPa 0,0 l/m 20,6 km/h (4 Bft) SW 229 2 min 0,000 mm 0,4 UV-I 194 W/m 1,2 C -3,5 C 32,2 km/h (5 Bft) 97,56 %
20.11.2017 13:12 4,9 C 5,0 C 79 % 1020,4 hPa 0,0 l/m 17,7 km/h (3 Bft) W 262 0 min 0,000 mm 0,0 UV-I 182 W/m 1,6 C -2,3 C 32,2 km/h (5 Bft) 98,21 %
20.11.2017 13:14 4,9 C 5,0 C 78 % 1020,4 hPa 0,0 l/m 21,8 km/h (4 Bft) W 280 0 min 0,000 mm 0,0 UV-I 172 W/m 1,4 C -4,0 C 32,2 km/h (5 Bft) 95,74 %
20.11.2017 13:16 4,9 C 5,0 C 78 % 1020,4 hPa 0,0 l/m 17,4 km/h (3 Bft) W 260 0 min 0,000 mm 0,0 UV-I 164 W/m 1,4 C -2,2 C 27,4 km/h (4 Bft) 96,00 %
20.11.2017 13:18 4,9 C 5,0 C 78 % 1020,2 hPa 0,0 l/m 20,9 km/h (4 Bft) W-SW 253 0 min 0,000 mm 0,0 UV-I 162 W/m 1,4 C -3,7 C 32,2 km/h (5 Bft) 100,00 %
20.11.2017 13:20 4,9 C 5,0 C 78 % 1020,3 hPa 0,0 l/m 15,2 km/h (3 Bft) W-SW 244 0 min 0,000 mm 0,0 UV-I 163 W/m 1,4 C -1,1 C 24,1 km/h (4 Bft) 100,00 %
20.11.2017 13:22 4,9 C 5,0 C 78 % 1020,4 hPa 0,0 l/m 18,4 km/h (3 Bft) W-SW 238 0 min 0,000 mm 0,0 UV-I 163 W/m 1,4 C -2,6 C 32,2 km/h (5 Bft) 100,00 %
20.11.2017 13:24 4,9 C 5,0 C 78 % 1020,3 hPa 0,0 l/m 18,4 km/h (3 Bft) W 277 0 min 0,000 mm 0,0 UV-I 158 W/m 1,4 C -2,6 C 30,6 km/h (5 Bft) 100,00 %
20.11.2017 13:26 4,9 C 5,0 C 78 % 1020,3 hPa 0,0 l/m 13,8 km/h (3 Bft) W 264 0 min 0,000 mm 0,0 UV-I 150 W/m 1,4 C -0,4 C 20,9 km/h (4 Bft) 100,00 %
20.11.2017 13:28 4,9 C 5,0 C 79 % 1020,3 hPa 0,0 l/m 14,9 km/h (3 Bft) S-SW 207 0 min 0,000 mm 0,0 UV-I 141 W/m 1,6 C -1,0 C 20,9 km/h (4 Bft) 98,08 %
20.11.2017 13:30 4,9 C 5,0 C 79 % 1020,3 hPa 0,0 l/m 17,2 km/h (3 Bft) W-SW 251 0 min 0,000 mm 0,0 UV-I 133 W/m 1,6 C -2,1 C 27,4 km/h (4 Bft) 97,22 %
20.11.2017 13:32 4,9 C 5,0 C 79 % 1020,3 hPa 0,0 l/m 16,7 km/h (3 Bft) W-SW 241 0 min 0,000 mm 0,0 UV-I 126 W/m 1,6 C -1,9 C 27,4 km/h (4 Bft) 100,00 %
20.11.2017 13:34 4,8 C 5,0 C 79 % 1020,2 hPa 0,0 l/m 16,9 km/h (3 Bft) W-SW 258 0 min 0,000 mm 0,0 UV-I 118 W/m 1,5 C -2,1 C 25,7 km/h (4 Bft) 100,00 %
20.11.2017 13:36 4,8 C 5,0 C 79 % 1020,2 hPa 0,0 l/m 21,6 km/h (4 Bft) W 269 0 min 0,000 mm 0,0 UV-I 110 W/m 1,5 C -4,0 C 33,8 km/h (5 Bft) 98,11 %
20.11.2017 13:38 4,8 C 5,0 C 79 % 1020,2 hPa 0,0 l/m 18,1 km/h (3 Bft) W-SW 242 0 min 0,000 mm 0,0 UV-I 102 W/m 1,5 C -2,6 C 29,0 km/h (5 Bft) 100,00 %
20.11.2017 13:40 4,8 C 5,0 C 79 % 1020,2 hPa 0,0 l/m 17,6 km/h (3 Bft) W 259 0 min 0,000 mm 0,0 UV-I 98 W/m 1,5 C -2,4 C 25,7 km/h (4 Bft) 100,00 %
20.11.2017 13:42 4,8 C 5,0 C 79 % 1020,2 hPa 0,0 l/m 20,0 km/h (4 Bft) SW 227 0 min 0,000 mm 0,0 UV-I 98 W/m 1,5 C -3,4 C 30,6 km/h (5 Bft) 100,00 %
20.11.2017 13:44 4,8 C 5,0 C 79 % 1020,2 hPa 0,0 l/m 19,9 km/h (4 Bft) W 263 0 min 0,000 mm 0,0 UV-I 100 W/m 1,5 C -3,4 C 30,6 km/h (5 Bft) 100,00 %
20.11.2017 13:46 4,8 C 5,0 C 78 % 1020,1 hPa 0,0 l/m 21,0 km/h (4 Bft) W 265 0 min 0,000 mm 0,0 UV-I 101 W/m 1,3 C -3,8 C 29,0 km/h (5 Bft) 100,00 %
20.11.2017 13:48 4,8 C 5,0 C 79 % 1020,1 hPa 0,0 l/m 22,3 km/h (4 Bft) W-SW 248 0 min 0,000 mm 0,0 UV-I 102 W/m 1,5 C -4,3 C 32,2 km/h (5 Bft) 98,31 %
20.11.2017 13:50 4,8 C 5,0 C 79 % 1020,1 hPa 0,0 l/m 13,9 km/h (3 Bft) W-SW 240 0 min 0,000 mm 0,0 UV-I 103 W/m 1,5 C -0,6 C 27,4 km/h (4 Bft) 100,00 %
20.11.2017 13:52 4,8 C 5,0 C 79 % 1020,0 hPa 0,0 l/m 22,3 km/h (4 Bft) W 269 0 min 0,000 mm 0,0 UV-I 106 W/m 1,5 C -4,3 C 29,0 km/h (5 Bft) 98,00 %
20.11.2017 13:54 4,8 C 5,0 C 78 % 1020,1 hPa 0,0 l/m 17,0 km/h (3 Bft) SW 224 0 min 0,000 mm 0,0 UV-I 110 W/m 1,3 C -2,1 C 29,0 km/h (5 Bft) 100,00 %
20.11.2017 13:56 4,8 C 5,0 C 78 % 1020,1 hPa 0,0 l/m 15,8 km/h (3 Bft) W-NW 290 0 min 0,000 mm 0,0 UV-I 111 W/m 1,3 C -1,6 C 22,5 km/h (4 Bft) 100,00 %
20.11.2017 13:58 4,8 C 5,0 C 78 % 1020,1 hPa 0,0 l/m 16,8 km/h (3 Bft) W 264 0 min 0,000 mm 0,0 UV-I 109 W/m 1,3 C -2,0 C 22,5 km/h (4 Bft) 100,00 %
20.11.2017 14:00 4,8 C 5,0 C 78 % 1020,1 hPa 0,0 l/m 19,4 km/h (3 Bft) W-SW 254 0 min 0,102 mm 0,0 UV-I 106 W/m 1,3 C -3,2 C 30,6 km/h (5 Bft) 100,00 %
20.11.2017 14:02 4,8 C 5,0 C 78 % 1020,1 hPa 0,0 l/m 19,1 km/h (3 Bft) W-SW 252 0 min 0,000 mm 0,0 UV-I 103 W/m 1,3 C -3,1 C 32,2 km/h (5 Bft) 100,00 %
20.11.2017 14:04 4,8 C 5,0 C 78 % 1020,0 hPa 0,0 l/m 16,5 km/h (3 Bft) SW 229 0 min 0,000 mm 0,0 UV-I 101 W/m 1,3 C -1,9 C 32,2 km/h (5 Bft) 100,00 %
20.11.2017 14:06 4,8 C 5,0 C 78 % 1020,0 hPa 0,0 l/m 20,5 km/h (4 Bft) W 264 0 min 0,000 mm 0,0 UV-I 97 W/m 1,3 C -3,6 C 30,6 km/h (5 Bft) 100,00 %
20.11.2017 14:08 4,8 C 5,0 C 78 % 1019,9 hPa 0,0 l/m 18,3 km/h (3 Bft) W-NW 291 0 min 0,000 mm 0,0 UV-I 93 W/m 1,3 C -2,7 C 25,7 km/h (4 Bft) 97,44 %
20.11.2017 14:10 4,8 C 5,0 C 78 % 1020,0 hPa 0,0 l/m 16,7 km/h (3 Bft) W 266 0 min 0,000 mm 0,0 UV-I 90 W/m 1,3 C -2,0 C 25,7 km/h (4 Bft) 100,00 %
20.11.2017 14:12 4,8 C 5,0 C 78 % 1020,0 hPa 0,0 l/m 17,9 km/h (3 Bft) NW 318 0 min 0,000 mm 0,0 UV-I 86 W/m 1,3 C -2,5 C 24,1 km/h (4 Bft) 100,00 %
20.11.2017 14:14 4,7 C 5,0 C 78 % 1020,0 hPa 0,0 l/m 17,7 km/h (3 Bft) W-SW 248 0 min 0,000 mm 0,0 UV-I 84 W/m 1,2 C -2,6 C 25,7 km/h (4 Bft) 97,56 %
20.11.2017 14:16 4,7 C 5,0 C 78 % 1020,0 hPa 0,0 l/m 15,9 km/h (3 Bft) W-SW 252 0 min 0,000 mm 0,0 UV-I 82 W/m 1,2 C -1,7 C 22,5 km/h (4 Bft) 100,00 %
20.11.2017 14:18 4,7 C 5,0 C 77 % 1020,0 hPa 0,0 l/m 21,4 km/h (4 Bft) W-SW 255 0 min 0,000 mm 0,0 UV-I 78 W/m 1,0 C -4,1 C 32,2 km/h (5 Bft) 97,87 %
20.11.2017 14:20 4,7 C 5,0 C 77 % 1020,1 hPa 0,0 l/m 17,3 km/h (3 Bft) W-SW 250 0 min 0,000 mm 0,0 UV-I 75 W/m 1,0 C -2,4 C 30,6 km/h (5 Bft) 100,00 %
20.11.2017 14:22 4,7 C 5,0 C 77 % 1020,0 hPa 0,0 l/m 21,6 km/h (4 Bft) W 276 0 min 0,000 mm 0,0 UV-I 72 W/m 1,0 C -4,2 C 33,8 km/h (5 Bft) 100,00 %
20.11.2017 14:24 4,7 C 5,0 C 77 % 1020,0 hPa 0,0 l/m 20,4 km/h (4 Bft) W 261 0 min 0,000 mm 0,0 UV-I 69 W/m 1,0 C -3,7 C 32,2 km/h (5 Bft) 100,00 %
20.11.2017 14:26 4,7 C 5,0 C 78 % 1020,0 hPa 0,0 l/m 15,9 km/h (3 Bft) W-SW 257 0 min 0,000 mm 0,0 UV-I 64 W/m 1,2 C -1,7 C 20,9 km/h (4 Bft) 100,00 %
20.11.2017 14:28 4,7 C 5,0 C 78 % 1019,9 hPa 0,0 l/m 13,0 km/h (3 Bft) W 279 0 min 0,000 mm 0,0 UV-I 63 W/m 1,2 C -0,2 C 20,9 km/h (4 Bft) 96,23 %
20.11.2017 14:30 4,7 C 5,0 C 77 % 1020,0 hPa 0,0 l/m 22,6 km/h (4 Bft) W-SW 250 0 min 0,000 mm 0,0 UV-I 61 W/m 1,0 C -4,5 C 32,2 km/h (5 Bft) 100,00 %
20.11.2017 14:32 4,7 C 5,0 C 77 % 1019,9 hPa 0,0 l/m 19,2 km/h (3 Bft) W-SW 244 0 min 0,000 mm 0,0 UV-I 58 W/m 1,0 C -3,2 C 25,7 km/h (4 Bft) 100,00 %
20.11.2017 14:34 4,7 C 5,0 C 77 % 1019,8 hPa 0,0 l/m 19,5 km/h (3 Bft) W-SW 250 0 min 0,000 mm 0,0 UV-I 53 W/m 1,0 C -3,4 C 24,1 km/h (4 Bft) 100,00 %
20.11.2017 14:36 4,7 C 5,0 C 77 % 1019,9 hPa 0,0 l/m 17,9 km/h (3 Bft) W 260 0 min 0,000 mm 0,0 UV-I 51 W/m 1,0 C -2,7 C 27,4 km/h (4 Bft) 100,00 %
20.11.2017 14:38 4,7 C 5,0 C 77 % 1019,8 hPa 0,0 l/m 16,4 km/h (3 Bft) W 260 0 min 0,000 mm 0,0 UV-I 51 W/m 1,0 C -2,0 C 25,7 km/h (4 Bft) 97,56 %
20.11.2017 14:40 4,7 C 5,0 C 78 % 1019,8 hPa 0,0 l/m 15,2 km/h (3 Bft) W-SW 254 0 min 0,000 mm 0,0 UV-I 51 W/m 1,2 C -1,4 C 22,5 km/h (4 Bft) 100,00 %
20.11.2017 14:42 4,6 C 5,0 C 78 % 1019,8 hPa 0,0 l/m 12,7 km/h (3 Bft) W-SW 244 0 min 0,000 mm 0,0 UV-I 53 W/m 1,1 C -0,1 C 19,3 km/h (3 Bft) 98,11 %
20.11.2017 14:44 4,6 C 5,0 C 79 % 1019,8 hPa 0,0 l/m 14,8 km/h (3 Bft) W-SW 256 0 min 0,000 mm 0,0 UV-I 53 W/m 1,3 C -1,3 C 20,9 km/h (4 Bft) 100,00 %
20.11.2017 14:46 4,6 C 5,0 C 79 % 1019,8 hPa 0,0 l/m 11,5 km/h (2 Bft) W 279 0 min 0,000 mm 0,0 UV-I 52 W/m 1,3 C 0,6 C 22,5 km/h (4 Bft) 100,00 %
20.11.2017 14:48 4,6 C 5,0 C 79 % 1019,9 hPa 0,0 l/m 15,4 km/h (3 Bft) W-SW 254 0 min 0,000 mm 0,0 UV-I 51 W/m 1,3 C -1,6 C 22,5 km/h (4 Bft) 92,11 %
20.11.2017 14:50 4,6 C 5,0 C 79 % 1019,9 hPa 0,0 l/m 12,3 km/h (3 Bft) SW 232 0 min 0,000 mm 0,0 UV-I 53 W/m 1,3 C 0,1 C 24,1 km/h (4 Bft) 98,31 %
20.11.2017 14:52 4,6 C 5,0 C 79 % 1019,9 hPa 0,0 l/m 12,5 km/h (3 Bft) W-SW 248 0 min 0,000 mm 0,0 UV-I 53 W/m 1,3 C -0,0 C 20,9 km/h (4 Bft) 97,56 %
20.11.2017 14:54 4,6 C 5,0 C 79 % 1019,9 hPa 0,0 l/m 13,5 km/h (3 Bft) W-SW 257 0 min 0,000 mm 0,0 UV-I 53 W/m 1,3 C -0,6 C 19,3 km/h (3 Bft) 98,11 %
20.11.2017 14:56 4,6 C 5,0 C 79 % 1019,9 hPa 0,0 l/m 13,6 km/h (3 Bft) W 275 0 min 0,000 mm 0,0 UV-I 50 W/m 1,3 C -0,7 C 19,3 km/h (3 Bft) 97,56 %
20.11.2017 14:58 4,6 C 5,0 C 79 % 1019,9 hPa 0,0 l/m 12,6 km/h (3 Bft) W-SW 248 0 min 0,000 mm 0,0 UV-I 46 W/m 1,3 C -0,1 C 19,3 km/h (3 Bft) 97,87 %
20.11.2017 15:00 4,6 C 5,0 C 79 % 1019,9 hPa 0,0 l/m 16,8 km/h (3 Bft) W 275 0 min 0,051 mm 0,0 UV-I 39 W/m 1,3 C -2,3 C 25,7 km/h (4 Bft) 97,87 %
20.11.2017 15:02 4,6 C 5,0 C 78 % 1019,9 hPa 0,0 l/m 20,6 km/h (4 Bft) W 266 0 min 0,000 mm 0,0 UV-I 34 W/m 1,1 C -3,9 C 29,0 km/h (5 Bft) 96,23 %
20.11.2017 15:04 4,6 C 5,0 C 78 % 1019,9 hPa 0,0 l/m 17,1 km/h (3 Bft) SW 236 0 min 0,000 mm 0,0 UV-I 33 W/m 1,1 C -2,4 C 25,7 km/h (4 Bft) 97,56 %
20.11.2017 15:06 4,6 C 5,0 C 79 % 1019,9 hPa 0,0 l/m 13,7 km/h (3 Bft) W 263 0 min 0,000 mm 0,0 UV-I 29 W/m 1,3 C -0,7 C 20,9 km/h (4 Bft) 97,56 %
20.11.2017 15:08 4,6 C 5,0 C 78 % 1019,9 hPa 0,0 l/m 13,3 km/h (3 Bft) W 263 0 min 0,000 mm 0,0 UV-I 27 W/m 1,1 C -0,5 C 22,5 km/h (4 Bft) 96,00 %
20.11.2017 15:10 4,6 C 5,0 C 78 % 1019,9 hPa 0,0 l/m 13,5 km/h (3 Bft) S-SW 192 0 min 0,000 mm 0,0 UV-I 27 W/m 1,1 C -0,6 C 20,9 km/h (4 Bft) 97,73 %
20.11.2017 15:12 4,6 C 5,0 C 78 % 1019,9 hPa 0,0 l/m 15,1 km/h (3 Bft) W-SW 254 0 min 0,000 mm 0,0 UV-I 27 W/m 1,1 C -1,5 C 22,5 km/h (4 Bft) 98,00 %
20.11.2017 15:14 4,6 C 5,0 C 78 % 1019,8 hPa 0,0 l/m 17,3 km/h (3 Bft) W-SW 254 0 min 0,000 mm 0,0 UV-I 25 W/m 1,1 C -2,5 C 40,2 km/h (6 Bft) 98,00 %
20.11.2017 15:16 4,6 C 5,0 C 77 % 1019,9 hPa 0,0 l/m 19,2 km/h (3 Bft) W-NW 284 0 min 0,000 mm 0,0 UV-I 26 W/m 0,9 C -3,4 C 32,2 km/h (5 Bft) 97,56 %
20.11.2017 15:18 4,5 C 5,0 C 77 % 1019,9 hPa 0,0 l/m 21,5 km/h (4 Bft) W 269 0 min 0,000 mm 0,0 UV-I 26 W/m 0,8 C -4,4 C 35,4 km/h (5 Bft) 96,43 %
20.11.2017 15:20 4,5 C 5,0 C 76 % 1020,0 hPa 0,0 l/m 26,0 km/h (4 Bft) W 263 0 min 0,000 mm 0,0 UV-I 24 W/m 0,6 C -5,9 C 40,2 km/h (6 Bft) 97,56 %
20.11.2017 15:22 4,4 C 5,0 C 77 % 1019,9 hPa 0,0 l/m 18,1 km/h (3 Bft) W-SW 246 0 min 0,000 mm 0,0 UV-I 22 W/m 0,7 C -3,1 C 35,4 km/h (5 Bft) 96,23 %
20.11.2017 15:24 4,3 C 5,0 C 77 % 1020,0 hPa 0,0 l/m 19,8 km/h (3 Bft) W 267 0 min 0,000 mm 0,0 UV-I 20 W/m 0,6 C -4,0 C 29,0 km/h (5 Bft) 97,73 %
20.11.2017 15:26 4,3 C 5,0 C 77 % 1020,0 hPa 0,0 l/m 23,6 km/h (4 Bft) W 269 0 min 0,000 mm 0,0 UV-I 19 W/m 0,6 C -5,4 C 33,8 km/h (5 Bft) 97,44 %
20.11.2017 15:28 4,1 C 5,0 C 78 % 1020,0 hPa 0,0 l/m 19,6 km/h (3 Bft) W-NW 286 0 min 0,000 mm 0,0 UV-I 18 W/m 0,6 C -4,2 C 32,2 km/h (5 Bft) 98,11 %
20.11.2017 15:30 4,1 C 5,0 C 79 % 1020,0 hPa 0,0 l/m 21,1 km/h (4 Bft) W-SW 250 0 min 0,000 mm 0,0 UV-I 18 W/m 0,8 C -4,8 C 29,0 km/h (5 Bft) 100,00 %
20.11.2017 15:32 4,0 C 5,0 C 79 % 1019,9 hPa 0,0 l/m 15,5 km/h (3 Bft) W 263 0 min 0,000 mm 0,0 UV-I 18 W/m 0,7 C -2,4 C 29,0 km/h (5 Bft) 100,00 %
20.11.2017 15:34 3,9 C 5,0 C 79 % 1020,0 hPa 0,0 l/m 19,8 km/h (3 Bft) W-NW 286 0 min 0,000 mm 0,0 UV-I 18 W/m 0,6 C -4,5 C 33,8 km/h (5 Bft) 97,87 %
20.11.2017 15:36 3,9 C 5,0 C 79 % 1020,0 hPa 0,0 l/m 18,7 km/h (3 Bft) W 266 0 min 0,000 mm 0,0 UV-I 17 W/m 0,6 C -4,0 C 27,4 km/h (4 Bft) 100,00 %
20.11.2017 15:38 3,9 C 5,0 C 79 % 1020,0 hPa 0,0 l/m 24,5 km/h (4 Bft) W-SW 254 0 min 0,000 mm 0,0 UV-I 16 W/m 0,6 C -6,3 C 41,8 km/h (6 Bft) 100,00 %
20.11.2017 15:40 3,9 C 5,0 C 79 % 1020,1 hPa 0,0 l/m 21,1 km/h (4 Bft) W-SW 246 0 min 0,000 mm 0,0 UV-I 16 W/m 0,6 C -5,0 C 29,0 km/h (5 Bft) 100,00 %
20.11.2017 15:42 3,8 C 5,0 C 79 % 1020,1 hPa 0,0 l/m 18,0 km/h (3 Bft) W 265 0 min 0,000 mm 0,0 UV-I 14 W/m 0,5 C -3,9 C 30,6 km/h (5 Bft) 94,29 %
20.11.2017 15:44 3,8 C 5,0 C 79 % 1020,2 hPa 0,0 l/m 25,8 km/h (4 Bft) W-NW 294 0 min 0,000 mm 0,0 UV-I 14 W/m 0,5 C -6,8 C 45,1 km/h (6 Bft) 96,00 %
20.11.2017 15:46 3,7 C 5,0 C 80 % 1020,1 hPa 0,0 l/m 14,0 km/h (3 Bft) W 265 0 min 0,000 mm 0,0 UV-I 13 W/m 0,6 C -1,9 C 27,4 km/h (4 Bft) 97,73 %
20.11.2017 15:48 3,7 C 5,0 C 81 % 1020,1 hPa 0,0 l/m 20,0 km/h (4 Bft) W 263 0 min 0,000 mm 0,0 UV-I 12 W/m 0,7 C -4,9 C 32,2 km/h (5 Bft) 98,21 %
20.11.2017 15:50 3,6 C 5,0 C 81 % 1020,2 hPa 0,0 l/m 18,8 km/h (3 Bft) W-SW 241 0 min 0,000 mm 0,0 UV-I 11 W/m 0,7 C -4,5 C 25,7 km/h (4 Bft) 97,37 %
20.11.2017 15:52 3,4 C 5,0 C 82 % 1020,1 hPa 0,0 l/m 20,4 km/h (4 Bft) W-SW 242 0 min 0,000 mm 0,0 UV-I 11 W/m 0,6 C -5,4 C 33,8 km/h (5 Bft) 98,11 %
20.11.2017 15:54 3,4 C 5,0 C 83 % 1020,1 hPa 0,0 l/m 18,3 km/h (3 Bft) W-SW 249 0 min 0,000 mm 0,0 UV-I 11 W/m 0,8 C -4,5 C 30,6 km/h (5 Bft) 96,00 %
20.11.2017 15:56 3,3 C 5,0 C 83 % 1020,2 hPa 0,0 l/m 19,1 km/h (3 Bft) W 263 0 min 0,000 mm 0,0 UV-I 11 W/m 0,7 C -5,0 C 35,4 km/h (5 Bft) 98,00 %
20.11.2017 15:58 3,3 C 5,0 C 83 % 1020,2 hPa 0,0 l/m 20,8 km/h (4 Bft) W-SW 251 0 min 0,000 mm 0,0 UV-I 10 W/m 0,7 C -5,7 C 32,2 km/h (5 Bft) 97,73 %
20.11.2017 16:00 3,3 C 5,0 C 83 % 1020,2 hPa 0,0 l/m 19,2 km/h (3 Bft) W 263 0 min 0,050 mm 0,0 UV-I 9 W/m 0,7 C -5,0 C 29,0 km/h (5 Bft) 97,73 %
20.11.2017 16:02 3,3 C 5,0 C 83 % 1020,1 hPa 0,0 l/m 17,0 km/h (3 Bft) W 274 0 min 0,000 mm 0,0 UV-I 8 W/m 0,7 C -4,0 C 24,1 km/h (4 Bft) 97,62 %
20.11.2017 16:04 3,2 C 5,0 C 83 % 1020,1 hPa 0,0 l/m 16,5 km/h (3 Bft) W 267 0 min 0,000 mm 0,0 UV-I 7 W/m 0,6 C -3,9 C 27,4 km/h (4 Bft) 94,23 %
20.11.2017 16:06 3,2 C 5,0 C 83 % 1020,2 hPa 0,0 l/m 16,7 km/h (3 Bft) W-SW 251 0 min 0,000 mm 0,0 UV-I 7 W/m 0,6 C -4,0 C 25,7 km/h (4 Bft) 95,24 %
20.11.2017 16:08 3,2 C 5,0 C 83 % 1020,2 hPa 0,0 l/m 18,2 km/h (3 Bft) SW 229 0 min 0,000 mm 0,0 UV-I 7 W/m 0,6 C -4,7 C 29,0 km/h (5 Bft) 96,43 %
20.11.2017 16:10 3,2 C 5,0 C 83 % 1020,2 hPa 0,0 l/m 15,9 km/h (3 Bft) W 269 0 min 0,000 mm 0,0 UV-I 7 W/m 0,6 C -3,6 C 24,1 km/h (4 Bft) 94,29 %
20.11.2017 16:12 3,2 C 5,0 C 83 % 1020,2 hPa 0,0 l/m 16,6 km/h (3 Bft) W 263 0 min 0,000 mm 0,0 UV-I 7 W/m 0,6 C -3,9 C 30,6 km/h (5 Bft) 98,18 %
20.11.2017 16:14 3,1 C 5,0 C 83 % 1020,2 hPa 0,0 l/m 16,3 km/h (3 Bft) W-SW 255 0 min 0,000 mm 0,0 UV-I 7 W/m 0,5 C -3,9 C 27,4 km/h (4 Bft) 97,73 %
20.11.2017 16:16 3,1 C 5,0 C 84 % 1020,2 hPa 0,0 l/m 19,8 km/h (3 Bft) W 263 0 min 0,000 mm 0,0 UV-I 6 W/m 0,7 C -5,5 C 35,4 km/h (5 Bft) 97,87 %
20.11.2017 16:18 3,0 C 5,0 C 84 % 1020,2 hPa 0,0 l/m 15,0 km/h (3 Bft) W 274 0 min 0,000 mm 0,0 UV-I 5 W/m 0,6 C -3,3 C 19,3 km/h (3 Bft) 97,56 %
20.11.2017 16:20 2,9 C 5,0 C 84 % 1020,3 hPa 0,0 l/m 15,6 km/h (3 Bft) W-NW 294 0 min 0,000 mm 0,0 UV-I 5 W/m 0,5 C -3,8 C 25,7 km/h (4 Bft) 94,92 %
20.11.2017 16:22 2,9 C 5,0 C 85 % 1020,3 hPa 0,0 l/m 16,2 km/h (3 Bft) W-SW 244 0 min 0,000 mm 0,0 UV-I 5 W/m 0,6 C -4,1 C 24,1 km/h (4 Bft) 97,14 %
20.11.2017 16:24 2,9 C 5,0 C 85 % 1020,3 hPa 0,0 l/m 14,9 km/h (3 Bft) W-SW 242 0 min 0,000 mm 0,0 UV-I 5 W/m 0,6 C -3,4 C 22,5 km/h (4 Bft) 91,07 %
20.11.2017 16:26 2,8 C 5,0 C 85 % 1020,3 hPa 0,0 l/m 15,2 km/h (3 Bft) W-SW 250 0 min 0,000 mm 0,0 UV-I 5 W/m 0,5 C -3,7 C 22,5 km/h (4 Bft) 96,00 %
20.11.2017 16:28 2,8 C 5,0 C 86 % 1020,3 hPa 0,0 l/m 13,1 km/h (3 Bft) W 280 0 min 0,000 mm 0,0 UV-I 1 W/m 0,7 C -2,5 C 17,7 km/h (3 Bft) 97,37 %
20.11.2017 16:30 2,7 C 5,0 C 86 % 1020,3 hPa 0,0 l/m 11,4 km/h (2 Bft) W-SW 256 0 min 0,000 mm 0,0 UV-I 0 W/m 0,6 C -1,5 C 20,9 km/h (4 Bft) 98,11 %
20.11.2017 16:32 2,7 C 5,0 C 86 % 1020,3 hPa 0,0 l/m 14,8 km/h (3 Bft) W-SW 249 0 min 0,000 mm 0,0 UV-I 0 W/m 0,6 C -3,6 C 19,3 km/h (3 Bft) 97,56 %
20.11.2017 16:34 2,7 C 5,0 C 87 % 1020,3 hPa 0,0 l/m 12,4 km/h (3 Bft) W-NW 288 0 min 0,000 mm 0,0 UV-I 0 W/m 0,8 C -2,2 C 14,5 km/h (3 Bft) 96,23 %
20.11.2017 16:36 2,7 C 5,0 C 87 % 1020,4 hPa 0,0 l/m 11,5 km/h (2 Bft) W-SW 257 0 min 0,000 mm 0,0 UV-I 0 W/m 0,8 C -1,6 C 19,3 km/h (3 Bft) 95,12 %
20.11.2017 16:38 2,6 C 5,0 C 87 % 1020,3 hPa 0,0 l/m 12,5 km/h (3 Bft) W-SW 252 0 min 0,000 mm 0,0 UV-I 0 W/m 0,7 C -2,3 C 16,1 km/h (3 Bft) 94,34 %
20.11.2017 16:40 2,6 C 5,0 C 87 % 1020,4 hPa 0,0 l/m 11,7 km/h (2 Bft) W 271 0 min 0,000 mm 0,0 UV-I 0 W/m 0,7 C -1,8 C 14,5 km/h (3 Bft) 97,87 %
20.11.2017 16:42 2,6 C 5,0 C 88 % 1020,3 hPa 0,0 l/m 10,9 km/h (2 Bft) W 269 0 min 0,000 mm 0,0 UV-I 0 W/m 0,8 C -1,2 C 19,3 km/h (3 Bft) 100,00 %
20.11.2017 16:44 2,6 C 5,0 C 88 % 1020,3 hPa 0,0 l/m 13,1 km/h (3 Bft) W-SW 240 0 min 0,000 mm 0,0 UV-I 0 W/m 0,8 C -2,7 C 24,1 km/h (4 Bft) 100,00 %
20.11.2017 16:46 2,6 C 5,0 C 88 % 1020,3 hPa 0,0 l/m 12,8 km/h (3 Bft) SW 214 0 min 0,000 mm 0,0 UV-I 0 W/m 0,8 C -2,5 C 20,9 km/h (4 Bft) 100,00 %
20.11.2017 16:48 2,5 C 5,0 C 88 % 1020,3 hPa 0,0 l/m 11,4 km/h (2 Bft) W-SW 257 0 min 0,000 mm 0,0 UV-I 0 W/m 0,7 C -1,7 C 17,7 km/h (3 Bft) 100,00 %
20.11.2017 16:50 2,5 C 5,0 C 88 % 1020,3 hPa 0,0 l/m 12,4 km/h (3 Bft) W-SW 244 0 min 0,000 mm 0,0 UV-I 0 W/m 0,7 C -2,4 C 17,7 km/h (3 Bft) 94,74 %
20.11.2017 16:52 2,5 C 5,0 C 89 % 1020,3 hPa 0,0 l/m 13,2 km/h (3 Bft) NW 320 0 min 0,000 mm 0,0 UV-I 0 W/m 0,9 C -2,9 C 19,3 km/h (3 Bft) 98,21 %
20.11.2017 16:54 2,4 C 5,0 C 89 % 1020,3 hPa 0,0 l/m 11,7 km/h (2 Bft) W-SW 244 0 min 0,000 mm 0,0 UV-I 0 W/m 0,8 C -2,0 C 17,7 km/h (3 Bft) 97,37 %
20.11.2017 16:56 2,4 C 5,0 C 89 % 1020,3 hPa 0,0 l/m 14,0 km/h (3 Bft) W-SW 252 0 min 0,000 mm 0,0 UV-I 0 W/m 0,8 C -3,5 C 19,3 km/h (3 Bft) 95,74 %
20.11.2017 16:58 2,4 C 5,0 C 89 % 1020,3 hPa 0,0 l/m 12,2 km/h (2 Bft) W 279 0 min 0,000 mm 0,0 UV-I 0 W/m 0,8 C -2,4 C 17,7 km/h (3 Bft) 97,87 %
20.11.2017 17:00 2,3 C 5,0 C 90 % 1020,4 hPa 0,0 l/m 9,8 km/h (2 Bft) W 270 0 min 0,026 mm 0,0 UV-I 0 W/m 0,8 C -0,8 C 16,1 km/h (3 Bft) 98,21 %
20.11.2017 17:02 2,3 C 5,0 C 90 % 1020,3 hPa 0,0 l/m 12,0 km/h (2 Bft) W-SW 258 0 min 0,000 mm 0,0 UV-I 0 W/m 0,8 C -2,4 C 17,7 km/h (3 Bft) 97,56 %
20.11.2017 17:04 2,3 C 5,0 C 90 % 1020,3 hPa 0,0 l/m 17,7 km/h (3 Bft) W-NW 288 0 min 0,000 mm 0,0 UV-I 0 W/m 0,8 C -5,6 C 30,6 km/h (5 Bft) 97,56 %
20.11.2017 17:06 2,2 C 5,0 C 90 % 1020,3 hPa 0,0 l/m 14,2 km/h (3 Bft) W-SW 252 0 min 0,000 mm 0,0 UV-I 0 W/m 0,7 C -3,9 C 20,9 km/h (4 Bft) 94,34 %
20.11.2017 17:08 2,2 C 5,0 C 91 % 1020,3 hPa 0,0 l/m 16,8 km/h (3 Bft) SW 230 0 min 0,000 mm 0,0 UV-I 0 W/m 0,9 C -5,3 C 22,5 km/h (4 Bft) 95,12 %
20.11.2017 17:10 2,1 C 5,0 C 91 % 1020,3 hPa 0,0 l/m 12,6 km/h (3 Bft) W 273 0 min 0,000 mm 0,0 UV-I 0 W/m 0,8 C -3,0 C 19,3 km/h (3 Bft) 100,00 %
20.11.2017 17:12 2,1 C 5,0 C 91 % 1020,3 hPa 0,0 l/m 8,2 km/h (2 Bft) W 259 0 min 0,000 mm 0,0 UV-I 0 W/m 0,8 C 0,4 C 14,5 km/h (3 Bft) 98,00 %
20.11.2017 17:14 2,1 C 5,0 C 91 % 1020,2 hPa 0,0 l/m 12,5 km/h (3 Bft) W 280 0 min 0,000 mm 0,0 UV-I 0 W/m 0,8 C -2,9 C 19,3 km/h (3 Bft) 97,56 %
20.11.2017 17:16 2,0 C 5,0 C 91 % 1020,2 hPa 0,0 l/m 13,0 km/h (3 Bft) W 267 0 min 0,000 mm 0,0 UV-I 0 W/m 0,7 C -3,4 C 16,1 km/h (3 Bft) 98,21 %
20.11.2017 17:18 1,9 C 5,0 C 91 % 1020,2 hPa 0,0 l/m 11,5 km/h (2 Bft) W 261 0 min 0,000 mm 0,0 UV-I 0 W/m 0,6 C -2,5 C 19,3 km/h (3 Bft) 97,37 %
20.11.2017 17:20 1,9 C 5,0 C 91 % 1020,2 hPa 0,0 l/m 12,0 km/h (2 Bft) W 267 0 min 0,000 mm 0,0 UV-I 0 W/m 0,6 C -2,8 C 17,7 km/h (3 Bft) 96,23 %
20.11.2017 17:22 1,9 C 5,0 C 91 % 1020,2 hPa 0,0 l/m 14,7 km/h (3 Bft) W-NW 296 0 min 0,000 mm 0,0 UV-I 0 W/m 0,6 C -4,5 C 20,9 km/h (4 Bft) 100,00 %
20.11.2017 17:24 1,8 C 5,0 C 91 % 1020,2 hPa 0,0 l/m 14,7 km/h (3 Bft) W 274 0 min 0,000 mm 0,0 UV-I 0 W/m 0,5 C -4,6 C 19,3 km/h (3 Bft) 96,23 %
20.11.2017 17:26 1,8 C 5,0 C 91 % 1020,1 hPa 0,0 l/m 13,8 km/h (3 Bft) W-SW 252 0 min 0,000 mm 0,0 UV-I 0 W/m 0,5 C -4,1 C 17,7 km/h (3 Bft) 100,00 %
20.11.2017 17:28 1,8 C 5,0 C 91 % 1020,1 hPa 0,0 l/m 13,4 km/h (3 Bft) W-SW 256 0 min 0,000 mm 0,0 UV-I 0 W/m 0,5 C -3,8 C 20,9 km/h (4 Bft) 100,00 %
20.11.2017 17:30 1,7 C 5,0 C 91 % 1020,1 hPa 0,0 l/m 11,2 km/h (2 Bft) W 268 0 min 0,000 mm 0,0 UV-I 0 W/m 0,4 C -2,5 C 19,3 km/h (3 Bft) 100,00 %
20.11.2017 17:32 1,7 C 5,0 C 92 % 1020,1 hPa 0,0 l/m 11,3 km/h (2 Bft) W 267 0 min 0,000 mm 0,0 UV-I 0 W/m 0,5 C -2,6 C 17,7 km/h (3 Bft) 98,11 %
20.11.2017 17:34 1,7 C 5,0 C 92 % 1020,0 hPa 0,0 l/m 13,1 km/h (3 Bft) W-SW 252 0 min 0,000 mm 0,0 UV-I 0 W/m 0,5 C -3,8 C 20,9 km/h (4 Bft) 96,00 %
20.11.2017 17:36 1,7 C 5,0 C 92 % 1020,0 hPa 0,0 l/m 8,7 km/h (2 Bft) W 273 0 min 0,000 mm 0,0 UV-I 0 W/m 0,5 C -0,5 C 12,9 km/h (3 Bft) 97,56 %
20.11.2017 17:38 1,7 C 5,0 C 92 % 1020,0 hPa 0,0 l/m 10,6 km/h (2 Bft) W 259 0 min 0,000 mm 0,0 UV-I 0 W/m 0,5 C -2,0 C 19,3 km/h (3 Bft) 98,11 %
20.11.2017 17:40 1,6 C 5,0 C 92 % 1020,1 hPa 0,0 l/m 11,2 km/h (2 Bft) W-SW 256 0 min 0,000 mm 0,0 UV-I 0 W/m 0,4 C -2,6 C 16,1 km/h (3 Bft) 100,00 %
20.11.2017 17:42 1,6 C 5,0 C 93 % 1020,0 hPa 0,0 l/m 8,3 km/h (2 Bft) W 279 0 min 0,000 mm 0,0 UV-I 0 W/m 0,6 C -0,2 C 14,5 km/h (3 Bft) 98,00 %
20.11.2017 17:44 1,6 C 5,0 C 93 % 1020,1 hPa 0,0 l/m 13,3 km/h (3 Bft) W 259 0 min 0,000 mm 0,0 UV-I 0 W/m 0,6 C -4,0 C 17,7 km/h (3 Bft) 100,00 %
20.11.2017 17:46 1,5 C 5,0 C 93 % 1020,1 hPa 0,0 l/m 8,8 km/h (2 Bft) W 263 0 min 0,000 mm 0,0 UV-I 0 W/m 0,5 C -0,8 C 16,1 km/h (3 Bft) 100,00 %
20.11.2017 17:48 1,4 C 5,0 C 93 % 1020,1 hPa 0,0 l/m 10,5 km/h (2 Bft) W-SW 249 0 min 0,000 mm 0,0 UV-I 0 W/m 0,4 C -2,3 C 16,1 km/h (3 Bft) 98,00 %
20.11.2017 17:50 1,4 C 5,0 C 93 % 1020,0 hPa 0,0 l/m 8,4 km/h (2 Bft) W-SW 255 0 min 0,000 mm 0,0 UV-I 0 W/m 0,4 C -0,5 C 14,5 km/h (3 Bft) 100,00 %
20.11.2017 17:52 1,3 C 5,0 C 93 % 1020,1 hPa 0,0 l/m 10,0 km/h (2 Bft) W-SW 254 0 min 0,000 mm 0,0 UV-I 0 W/m 0,3 C -2,0 C 16,1 km/h (3 Bft) 100,00 %
20.11.2017 17:54 1,3 C 5,0 C 93 % 1020,1 hPa 0,0 l/m 8,7 km/h (2 Bft) W-SW 256 0 min 0,000 mm 0,0 UV-I 0 W/m 0,3 C -0,9 C 11,3 km/h (2 Bft) 100,00 %
20.11.2017 17:56 1,3 C 5,0 C 94 % 1020,0 hPa 0,0 l/m 5,9 km/h (2 Bft) W-SW 255 0 min 0,000 mm 0,0 UV-I 0 W/m 0,4 C 1,3 C 9,7 km/h (2 Bft) 100,00 %
20.11.2017 17:58 1,3 C 5,0 C 94 % 1020,0 hPa 0,0 l/m 10,5 km/h (2 Bft) W-SW 244 0 min 0,000 mm 0,0 UV-I 0 W/m 0,4 C -2,4 C 16,1 km/h (3 Bft) 100,00 %
20.11.2017 18:00 1,3 C 5,0 C 94 % 1020,0 hPa 0,2 l/m 5,6 km/h (1 Bft) W-SW 252 0 min 0,000 mm 0,0 UV-I 0 W/m 0,4 C 1,3 C 11,3 km/h (2 Bft) 100,00 %
20.11.2017 18:02 1,2 C 5,0 C 94 % 1020,0 hPa 0,0 l/m 7,6 km/h (2 Bft) W-SW 240 0 min 0,000 mm 0,0 UV-I 0 W/m 0,3 C -0,0 C 11,3 km/h (2 Bft) 100,00 %
20.11.2017 18:04 1,2 C 5,0 C 94 % 1020,0 hPa 0,0 l/m 6,2 km/h (2 Bft) SW 232 0 min 0,000 mm 0,0 UV-I 0 W/m 0,3 C 1,2 C 9,7 km/h (2 Bft) 100,00 %
20.11.2017 18:06 1,2 C 5,0 C 94 % 1020,0 hPa 0,0 l/m 6,2 km/h (2 Bft) W 263 0 min 0,000 mm 0,0 UV-I 0 W/m 0,3 C 1,2 C 9,7 km/h (2 Bft) 100,00 %
20.11.2017 18:08 1,2 C 5,0 C 95 % 1020,0 hPa 0,0 l/m 4,5 km/h (1 Bft) W 259 0 min 0,000 mm 0,0 UV-I 0 W/m 0,5 C 1,2 C 6,4 km/h (2 Bft) 97,87 %
20.11.2017 18:10 1,2 C 5,0 C 95 % 1020,1 hPa 0,0 l/m 6,7 km/h (2 Bft) W 269 0 min 0,000 mm 0,0 UV-I 0 W/m 0,5 C 0,9 C 12,9 km/h (3 Bft) 97,56 %
20.11.2017 18:12 1,2 C 5,0 C 95 % 1020,0 hPa 0,0 l/m 5,7 km/h (1 Bft) W 261 0 min 0,000 mm 0,0 UV-I 0 W/m 0,5 C 1,2 C 11,3 km/h (2 Bft) 100,00 %
20.11.2017 18:14 1,2 C 5,0 C 95 % 1020,0 hPa 0,0 l/m 5,2 km/h (1 Bft) W-SW 245 0 min 0,000 mm 0,0 UV-I 0 W/m 0,5 C 1,2 C 9,7 km/h (2 Bft) 100,00 %
20.11.2017 18:16 1,2 C 5,0 C 95 % 1020,0 hPa 0,0 l/m 5,7 km/h (1 Bft) SW 223 0 min 0,000 mm 0,0 UV-I 0 W/m 0,5 C 1,2 C 8,0 km/h (2 Bft) 100,00 %
20.11.2017 18:18 1,2 C 5,0 C 95 % 1020,0 hPa 0,0 l/m 5,1 km/h (1 Bft) W-SW 254 0 min 0,000 mm 0,0 UV-I 0 W/m 0,5 C 1,2 C 6,4 km/h (2 Bft) 98,00 %
20.11.2017 18:20 1,2 C 5,0 C 95 % 1019,9 hPa 0,0 l/m 4,3 km/h (1 Bft) W-SW 248 0 min 0,000 mm 0,0 UV-I 0 W/m 0,5 C 1,2 C 4,8 km/h (1 Bft) 100,00 %
20.11.2017 18:22 1,2 C 5,0 C 95 % 1019,9 hPa 0,2 l/m 5,4 km/h (1 Bft) SW 229 0 min 0,000 mm 0,0 UV-I 0 W/m 0,5 C 1,2 C 8,0 km/h (2 Bft) 100,00 %
20.11.2017 18:24 1,2 C 5,0 C 95 % 1019,9 hPa 0,0 l/m 6,3 km/h (2 Bft) SW 219 0 min 0,000 mm 0,0 UV-I 0 W/m 0,5 C 1,2 C 9,7 km/h (2 Bft) 98,00 %
20.11.2017 18:26 1,1 C 5,0 C 95 % 1019,9 hPa 0,0 l/m 4,4 km/h (1 Bft) W-SW 249 0 min 0,000 mm 0,0 UV-I 0 W/m 0,4 C 1,1 C 6,4 km/h (2 Bft) 95,74 %
20.11.2017 18:28 1,1 C 5,0 C 95 % 1019,9 hPa 0,0 l/m 4,2 km/h (1 Bft) SW 232 0 min 0,000 mm 0,0 UV-I 0 W/m 0,4 C 1,1 C 8,0 km/h (2 Bft) 97,37 %
20.11.2017 18:30 1,1 C 5,0 C 95 % 1019,8 hPa 0,0 l/m 5,6 km/h (1 Bft) SW 219 0 min 0,000 mm 0,0 UV-I 0 W/m 0,4 C 1,1 C 8,0 km/h (2 Bft) 98,11 %
20.11.2017 18:32 1,1 C 5,0 C 95 % 1019,8 hPa 0,0 l/m 5,5 km/h (1 Bft) W-SW 240 0 min 0,000 mm 0,0 UV-I 0 W/m 0,4 C 1,1 C 9,7 km/h (2 Bft) 100,00 %
20.11.2017 18:34 1,1 C 5,0 C 95 % 1019,9 hPa 0,0 l/m 6,4 km/h (2 Bft) W-SW 250 0 min 0,000 mm 0,0 UV-I 0 W/m 0,4 C 1,1 C 9,7 km/h (2 Bft) 96,00 %
20.11.2017 18:36 1,1 C 5,0 C 95 % 1019,9 hPa 0,0 l/m 4,1 km/h (1 Bft) W-SW 252 0 min 0,000 mm 0,0 UV-I 0 W/m 0,4 C 1,1 C 6,4 km/h (2 Bft) 100,00 %
20.11.2017 18:39 1,1 C 5,0 C 95 % 1019,9 hPa 0,0 l/m 6,9 km/h (2 Bft) SW 232 0 min 0,000 mm 0,0 UV-I 0 W/m 0,4 C 0,6 C 11,3 km/h (2 Bft) 98,70 %
20.11.2017 18:40 1,1 C 5,0 C 95 % 1019,9 hPa 0,0 l/m 7,4 km/h (2 Bft) SW 226 0 min 0,000 mm 0,0 UV-I 0 W/m 0,4 C 0,1 C 9,7 km/h (2 Bft) 100,00 %
20.11.2017 18:42 1,1 C 5,0 C 96 % 1019,9 hPa 0,0 l/m 7,5 km/h (2 Bft) SW 229 0 min 0,000 mm 0,0 UV-I 0 W/m 0,5 C -0,0 C 9,7 km/h (2 Bft) 98,00 %
20.11.2017 18:44 1,2 C 5,0 C 96 % 1019,9 hPa 0,2 l/m 6,8 km/h (2 Bft) W-SW 244 0 min 0,000 mm 0,0 UV-I 0 W/m 0,6 C 0,8 C 9,7 km/h (2 Bft) 100,00 %
20.11.2017 18:46 1,2 C 5,0 C 96 % 1019,9 hPa 0,0 l/m 5,9 km/h (2 Bft) SW 236 0 min 0,000 mm 0,0 UV-I 0 W/m 0,6 C 1,2 C 9,7 km/h (2 Bft) 100,00 %
20.11.2017 18:48 1,2 C 5,0 C 96 % 1019,9 hPa 0,0 l/m 6,1 km/h (2 Bft) W-SW 244 0 min 0,000 mm 0,0 UV-I 0 W/m 0,6 C 1,2 C 9,7 km/h (2 Bft) 100,00 %
20.11.2017 18:50 1,2 C 5,0 C 96 % 1019,9 hPa 0,0 l/m 8,2 km/h (2 Bft) SW 225 0 min 0,000 mm 0,0 UV-I 0 W/m 0,6 C -0,6 C 12,9 km/h (3 Bft) 95,12 %
20.11.2017 18:52 1,2 C 5,0 C 96 % 1019,9 hPa 0,0 l/m 5,1 km/h (1 Bft) SW 234 0 min 0,000 mm 0,0 UV-I 0 W/m 0,6 C 1,2 C 8,0 km/h (2 Bft) 97,87 %
20.11.2017 18:54 1,2 C 5,0 C 96 % 1019,8 hPa 0,0 l/m 5,9 km/h (2 Bft) W-SW 244 0 min 0,000 mm 0,0 UV-I 0 W/m 0,6 C 1,2 C 9,7 km/h (2 Bft) 100,00 %
20.11.2017 18:56 1,3 C 5,0 C 96 % 1019,8 hPa 0,0 l/m 6,2 km/h (2 Bft) SW 232 0 min 0,000 mm 0,0 UV-I 0 W/m 0,7 C 1,3 C 9,7 km/h (2 Bft) 97,37 %
20.11.2017 19:00 1,3 C 5,0 C 96 % 1019,8 hPa 0,0 l/m 4,8 km/h (1 Bft) W-SW 245 0 min 0,000 mm 0,0 UV-I 0 W/m 0,7 C 1,3 C 6,4 km/h (2 Bft) 98,10 %
20.11.2017 19:02 1,3 C 5,0 C 96 % 1019,7 hPa 0,0 l/m 3,3 km/h (1 Bft) W-SW 246 0 min 0,000 mm 0,0 UV-I 0 W/m 0,7 C 1,3 C 4,8 km/h (1 Bft) 97,56 %
20.11.2017 19:04 1,3 C 5,0 C 96 % 1019,8 hPa 0,0 l/m 5,1 km/h (1 Bft) W-SW 239 0 min 0,000 mm 0,0 UV-I 0 W/m 0,7 C 1,3 C 11,3 km/h (2 Bft) 97,73 %
20.11.2017 19:06 1,3 C 5,0 C 96 % 1019,8 hPa 0,0 l/m 6,0 km/h (2 Bft) SW 235 0 min 0,000 mm 0,0 UV-I 0 W/m 0,7 C 1,3 C 8,0 km/h (2 Bft) 96,23 %
20.11.2017 19:08 1,3 C 5,0 C 96 % 1019,8 hPa 0,0 l/m 4,7 km/h (1 Bft) SW 231 0 min 0,000 mm 0,0 UV-I 0 W/m 0,7 C 1,3 C 6,4 km/h (2 Bft) 92,68 %
20.11.2017 19:10 1,3 C 5,0 C 96 % 1019,7 hPa 0,0 l/m 4,0 km/h (1 Bft) SW 215 0 min 0,000 mm 0,0 UV-I 0 W/m 0,7 C 1,3 C 6,4 km/h (2 Bft) 98,08 %
20.11.2017 19:12 1,4 C 5,0 C 96 % 1019,7 hPa 0,0 l/m 7,1 km/h (2 Bft) SW 232 0 min 0,000 mm 0,0 UV-I 0 W/m 0,8 C 0,7 C 12,9 km/h (3 Bft) 93,62 %
20.11.2017 19:14 1,4 C 5,0 C 96 % 1019,6 hPa 0,2 l/m 8,5 km/h (2 Bft) SW 223 0 min 0,000 mm 0,0 UV-I 0 W/m 0,8 C -0,6 C 11,3 km/h (2 Bft) 98,00 %
20.11.2017 19:16 1,4 C 5,0 C 96 % 1019,6 hPa 0,0 l/m 5,6 km/h (1 Bft) SW 228 0 min 0,000 mm 0,0 UV-I 0 W/m 0,8 C 1,4 C 8,0 km/h (2 Bft) 94,74 %
20.11.2017 19:18 1,4 C 5,0 C 96 % 1019,7 hPa 0,0 l/m 6,1 km/h (2 Bft) W-SW 245 0 min 0,000 mm 0,0 UV-I 0 W/m 0,8 C 1,4 C 8,0 km/h (2 Bft) 96,43 %
20.11.2017 19:20 1,5 C 5,0 C 96 % 1019,6 hPa 0,0 l/m 8,7 km/h (2 Bft) W-SW 238 0 min 0,000 mm 0,0 UV-I 0 W/m 0,9 C -0,7 C 14,5 km/h (3 Bft) 92,11 %
20.11.2017 19:22 1,5 C 5,0 C 96 % 1019,7 hPa 0,0 l/m 8,9 km/h (2 Bft) SW 233 0 min 0,000 mm 0,0 UV-I 0 W/m 0,9 C -0,9 C 12,9 km/h (3 Bft) 94,64 %
20.11.2017 19:24 1,5 C 5,0 C 96 % 1019,7 hPa 0,0 l/m 8,8 km/h (2 Bft) SW 229 0 min 0,000 mm 0,0 UV-I 0 W/m 0,9 C -0,8 C 12,9 km/h (3 Bft) 93,18 %
20.11.2017 19:26 1,6 C 5,0 C 96 % 1019,7 hPa 0,0 l/m 7,3 km/h (2 Bft) SW 236 0 min 0,000 mm 0,0 UV-I 0 W/m 1,0 C 0,7 C 11,3 km/h (2 Bft) 93,62 %
20.11.2017 19:28 1,6 C 5,0 C 96 % 1019,6 hPa 0,0 l/m 7,6 km/h (2 Bft) W 261 0 min 0,000 mm 0,0 UV-I 0 W/m 1,0 C 0,4 C 12,9 km/h (3 Bft) 94,00 %
20.11.2017 19:30 1,6 C 5,0 C 96 % 1019,6 hPa 0,0 l/m 6,5 km/h (2 Bft) SW 232 0 min 0,000 mm 0,0 UV-I 0 W/m 1,0 C 1,5 C 11,3 km/h (2 Bft) 94,87 %
20.11.2017 19:32 1,6 C 5,0 C 96 % 1019,6 hPa 0,0 l/m 8,5 km/h (2 Bft) W-SW 242 0 min 0,000 mm 0,0 UV-I 0 W/m 1,0 C -0,4 C 12,9 km/h (3 Bft) 98,00 %
20.11.2017 19:34 1,6 C 5,0 C 96 % 1019,6 hPa 0,0 l/m 7,6 km/h (2 Bft) SW 230 0 min 0,000 mm 0,0 UV-I 0 W/m 1,0 C 0,4 C 14,5 km/h (3 Bft) 98,00 %
20.11.2017 19:36 1,7 C 5,0 C 96 % 1019,6 hPa 0,0 l/m 10,1 km/h (2 Bft) S-SW 213 0 min 0,000 mm 0,0 UV-I 0 W/m 1,1 C -1,7 C 14,5 km/h (3 Bft) 97,87 %
20.11.2017 19:38 1,6 C 5,0 C 96 % 1019,5 hPa 0,0 l/m 8,6 km/h (2 Bft) SW 217 0 min 0,000 mm 0,0 UV-I 0 W/m 1,0 C -0,5 C 12,9 km/h (3 Bft) 97,37 %
20.11.2017 19:40 1,7 C 5,0 C 96 % 1019,6 hPa 0,0 l/m 10,4 km/h (2 Bft) SW 233 0 min 0,000 mm 0,0 UV-I 0 W/m 1,1 C -1,9 C 17,7 km/h (3 Bft) 95,74 %
20.11.2017 19:42 1,7 C 5,0 C 96 % 1019,6 hPa 0,0 l/m 7,9 km/h (2 Bft) W-SW 237 0 min 0,000 mm 0,0 UV-I 0 W/m 1,1 C 0,2 C 12,9 km/h (3 Bft) 98,11 %
20.11.2017 19:44 1,7 C 5,0 C 96 % 1019,6 hPa 0,0 l/m 7,2 km/h (2 Bft) S-SW 194 0 min 0,000 mm 0,0 UV-I 0 W/m 1,1 C 0,9 C 12,9 km/h (3 Bft) 92,00 %
20.11.2017 19:46 1,7 C 5,0 C 96 % 1019,6 hPa 0,0 l/m 8,0 km/h (2 Bft) S-SW 205 0 min 0,000 mm 0,0 UV-I 0 W/m 1,1 C 0,1 C 12,9 km/h (3 Bft) 96,88 %
20.11.2017 19:48 1,7 C 5,0 C 95 % 1019,6 hPa 0,2 l/m 9,3 km/h (2 Bft) W-SW 239 0 min 0,000 mm 0,0 UV-I 0 W/m 1,0 C -1,0 C 14,5 km/h (3 Bft) 98,11 %
20.11.2017 19:50 1,7 C 5,0 C 95 % 1019,5 hPa 0,0 l/m 10,2 km/h (2 Bft) SW 234 0 min 0,000 mm 0,0 UV-I 0 W/m 1,0 C -1,7 C 19,3 km/h (3 Bft) 96,43 %
20.11.2017 19:52 1,7 C 5,0 C 95 % 1019,6 hPa 0,0 l/m 11,3 km/h (2 Bft) SW 228 0 min 0,000 mm 0,0 UV-I 0 W/m 1,0 C -2,6 C 17,7 km/h (3 Bft) 92,11 %
20.11.2017 19:54 1,7 C 5,0 C 95 % 1019,6 hPa 0,0 l/m 7,6 km/h (2 Bft) SW 229 0 min 0,000 mm 0,0 UV-I 0 W/m 1,0 C 0,5 C 16,1 km/h (3 Bft) 98,11 %
20.11.2017 19:56 1,7 C 5,0 C 95 % 1019,5 hPa 0,0 l/m 8,8 km/h (2 Bft) SW 221 0 min 0,000 mm 0,0 UV-I 0 W/m 1,0 C -0,6 C 14,5 km/h (3 Bft) 98,00 %
20.11.2017 19:58 1,7 C 5,0 C 95 % 1019,4 hPa 0,0 l/m 8,8 km/h (2 Bft) SW 220 0 min 0,000 mm 0,0 UV-I 0 W/m 1,0 C -0,6 C 14,5 km/h (3 Bft) 100,00 %
20.11.2017 20:00 1,7 C 5,0 C 95 % 1019,4 hPa 0,0 l/m 7,2 km/h (2 Bft) SW 230 0 min 0,000 mm 0,0 UV-I 0 W/m 1,0 C 0,9 C 11,3 km/h (2 Bft) 95,52 %
20.11.2017 20:02 1,7 C 5,0 C 95 % 1019,4 hPa 0,0 l/m 10,5 km/h (2 Bft) SW 225 0 min 0,000 mm 0,0 UV-I 0 W/m 1,0 C -2,0 C 16,1 km/h (3 Bft) 95,83 %
20.11.2017 20:04 1,7 C 5,0 C 95 % 1019,4 hPa 0,0 l/m 10,1 km/h (2 Bft) W-SW 240 0 min 0,000 mm 0,0 UV-I 0 W/m 1,0 C -1,7 C 14,5 km/h (3 Bft) 97,01 %
20.11.2017 20:06 1,7 C 5,0 C 95 % 1019,4 hPa 0,2 l/m 11,0 km/h (2 Bft) W-SW 242 0 min 0,000 mm 0,0 UV-I 0 W/m 1,0 C -2,3 C 14,5 km/h (3 Bft) 97,62 %
20.11.2017 20:08 1,7 C 5,0 C 95 % 1019,3 hPa 0,0 l/m 9,8 km/h (2 Bft) SW 217 0 min 0,000 mm 0,0 UV-I 0 W/m 1,0 C -1,4 C 14,5 km/h (3 Bft) 96,00 %
20.11.2017 20:10 1,7 C 5,0 C 95 % 1019,3 hPa 0,0 l/m 8,0 km/h (2 Bft) W-SW 245 0 min 0,000 mm 0,0 UV-I 0 W/m 1,0 C 0,1 C 14,5 km/h (3 Bft) 96,00 %
20.11.2017 20:12 1,7 C 5,0 C 95 % 1019,3 hPa 0,0 l/m 7,9 km/h (2 Bft) SW 219 0 min 0,000 mm 0,0 UV-I 0 W/m 1,0 C 0,2 C 11,3 km/h (2 Bft) 91,49 %
20.11.2017 20:14 1,7 C 5,0 C 95 % 1019,3 hPa 0,0 l/m 8,5 km/h (2 Bft) SW 231 0 min 0,000 mm 0,0 UV-I 0 W/m 1,0 C -0,3 C 14,5 km/h (3 Bft) 97,37 %
20.11.2017 20:16 1,7 C 5,0 C 95 % 1019,3 hPa 0,0 l/m 9,0 km/h (2 Bft) W-SW 241 0 min 0,000 mm 0,0 UV-I 0 W/m 1,0 C -0,8 C 14,5 km/h (3 Bft) 95,45 %
20.11.2017 20:18 1,7 C 5,0 C 95 % 1019,3 hPa 0,0 l/m 9,0 km/h (2 Bft) W-SW 239 0 min 0,000 mm 0,0 UV-I 0 W/m 1,0 C -0,8 C 12,9 km/h (3 Bft) 98,11 %
20.11.2017 20:20 1,8 C 5,0 C 95 % 1019,3 hPa 0,0 l/m 10,7 km/h (2 Bft) SW 232 0 min 0,000 mm 0,0 UV-I 0 W/m 1,1 C -2,0 C 16,1 km/h (3 Bft) 100,00 %
20.11.2017 20:22 1,7 C 5,0 C 95 % 1019,3 hPa 0,0 l/m 8,4 km/h (2 Bft) SW 220 0 min 0,000 mm 0,0 UV-I 0 W/m 1,0 C -0,2 C 12,9 km/h (3 Bft) 98,11 %
20.11.2017 20:24 1,8 C 5,0 C 95 % 1019,2 hPa 0,0 l/m 7,1 km/h (2 Bft) SW 232 0 min 0,000 mm 0,0 UV-I 0 W/m 1,1 C 1,1 C 12,9 km/h (3 Bft) 100,00 %
20.11.2017 20:26 1,8 C 5,0 C 95 % 1019,2 hPa 0,0 l/m 6,7 km/h (2 Bft) W-SW 248 0 min 0,000 mm 0,0 UV-I 0 W/m 1,1 C 1,5 C 11,3 km/h (2 Bft) 100,00 %
20.11.2017 20:28 1,8 C 5,0 C 95 % 1019,2 hPa 0,0 l/m 9,5 km/h (2 Bft) W-SW 237 0 min 0,000 mm 0,0 UV-I 0 W/m 1,1 C -1,1 C 16,1 km/h (3 Bft) 100,00 %
20.11.2017 20:30 1,8 C 5,0 C 95 % 1019,2 hPa 0,0 l/m 8,0 km/h (2 Bft) SW 225 0 min 0,000 mm 0,0 UV-I 0 W/m 1,1 C 0,2 C 16,1 km/h (3 Bft) 98,25 %
20.11.2017 20:35 1,8 C 5,0 C 95 % 1019,1 hPa 0,0 l/m 8,0 km/h (2 Bft) SW 225 0 min 0,000 mm 0,0 UV-I 0 W/m 1,1 C 0,2 C 16,1 km/h (3 Bft) 100,00 %
20.11.2017 20:38 1,8 C 5,0 C 95 % 1019,0 hPa 0,0 l/m 9,7 km/h (2 Bft) W-SW 238 0 min 0,000 mm 0,0 UV-I 0 W/m 1,1 C -1,2 C 14,5 km/h (3 Bft) 100,00 %
20.11.2017 20:40 1,8 C 5,0 C 96 % 1019,1 hPa 0,0 l/m 9,5 km/h (2 Bft) SW 235 0 min 0,000 mm 0,0 UV-I 0 W/m 1,2 C -1,1 C 16,1 km/h (3 Bft) 100,00 %
20.11.2017 20:42 1,8 C 5,0 C 95 % 1019,1 hPa 0,2 l/m 10,4 km/h (2 Bft) W-SW 246 0 min 0,000 mm 0,0 UV-I 0 W/m 1,1 C -1,8 C 17,7 km/h (3 Bft) 100,00 %
20.11.2017 20:44 1,8 C 5,0 C 95 % 1019,1 hPa 0,0 l/m 9,9 km/h (2 Bft) SW 232 0 min 0,000 mm 0,0 UV-I 0 W/m 1,1 C -1,4 C 14,5 km/h (3 Bft) 97,87 %
20.11.2017 20:46 1,9 C 5,0 C 95 % 1019,1 hPa 0,0 l/m 9,8 km/h (2 Bft) W 261 0 min 0,000 mm 0,0 UV-I 0 W/m 1,2 C -1,2 C 14,5 km/h (3 Bft) 97,73 %
20.11.2017 20:48 1,8 C 5,0 C 95 % 1019,1 hPa 0,0 l/m 11,4 km/h (2 Bft) W-SW 248 0 min 0,000 mm 0,0 UV-I 0 W/m 1,1 C -2,5 C 16,1 km/h (3 Bft) 100,00 %
20.11.2017 20:50 1,9 C 5,0 C 95 % 1019,1 hPa 0,0 l/m 9,3 km/h (2 Bft) SW 232 0 min 0,000 mm 0,0 UV-I 0 W/m 1,2 C -0,8 C 14,5 km/h (3 Bft) 100,00 %
20.11.2017 20:52 1,8 C 5,0 C 95 % 1019,0 hPa 0,0 l/m 8,4 km/h (2 Bft) SW 231 0 min 0,000 mm 0,0 UV-I 0 W/m 1,1 C -0,1 C 12,9 km/h (3 Bft) 100,00 %
20.11.2017 20:54 1,9 C 5,0 C 96 % 1019,1 hPa 0,0 l/m 9,7 km/h (2 Bft) SW 224 0 min 0,000 mm 0,0 UV-I 0 W/m 1,3 C -1,1 C 14,5 km/h (3 Bft) 100,00 %
20.11.2017 20:56 1,8 C 5,0 C 96 % 1019,1 hPa 0,0 l/m 6,7 km/h (2 Bft) SW 235 0 min 0,000 mm 0,0 UV-I 0 W/m 1,2 C 1,5 C 11,3 km/h (2 Bft) 100,00 %
20.11.2017 20:58 1,9 C 5,0 C 96 % 1019,0 hPa 0,2 l/m 7,0 km/h (2 Bft) SW 224 0 min 0,000 mm 0,0 UV-I 0 W/m 1,3 C 1,3 C 9,7 km/h (2 Bft) 97,87 %
20.11.2017 21:00 1,9 C 5,0 C 96 % 1019,0 hPa 0,0 l/m 8,2 km/h (2 Bft) W-SW 242 0 min 0,000 mm 0,0 UV-I 0 W/m 1,3 C 0,2 C 11,3 km/h (2 Bft) 100,00 %
20.11.2017 21:02 1,9 C 5,0 C 96 % 1019,0 hPa 0,0 l/m 5,8 km/h (2 Bft) W-SW 239 0 min 0,000 mm 0,0 UV-I 0 W/m 1,3 C 1,9 C 9,7 km/h (2 Bft) 98,11 %
20.11.2017 21:04 1,9 C 5,0 C 96 % 1018,9 hPa 0,0 l/m 7,7 km/h (2 Bft) W-SW 253 0 min 0,000 mm 0,0 UV-I 0 W/m 1,3 C 0,6 C 11,3 km/h (2 Bft) 93,62 %
20.11.2017 21:06 1,8 C 5,0 C 96 % 1018,9 hPa 0,0 l/m 5,8 km/h (2 Bft) SW 219 0 min 0,000 mm 0,0 UV-I 0 W/m 1,2 C 1,8 C 11,3 km/h (2 Bft) 100,00 %
20.11.2017 21:08 1,8 C 5,0 C 96 % 1018,9 hPa 0,0 l/m 4,4 km/h (1 Bft) W-NW 285 0 min 0,000 mm 0,0 UV-I 0 W/m 1,2 C 1,8 C 8,0 km/h (2 Bft) 96,23 %
20.11.2017 21:10 1,8 C 5,0 C 96 % 1018,9 hPa 0,0 l/m 5,1 km/h (1 Bft) SW 234 0 min 0,000 mm 0,0 UV-I 0 W/m 1,2 C 1,8 C 6,4 km/h (2 Bft) 97,37 %
20.11.2017 21:12 1,8 C 5,0 C 96 % 1018,9 hPa 0,0 l/m 4,8 km/h (1 Bft) SW 225 0 min 0,000 mm 0,0 UV-I 0 W/m 1,2 C 1,8 C 6,4 km/h (2 Bft) 98,00 %
20.11.2017 21:14 1,9 C 5,0 C 96 % 1018,9 hPa 0,0 l/m 4,6 km/h (1 Bft) SW 218 0 min 0,000 mm 0,0 UV-I 0 W/m 1,3 C 1,9 C 8,0 km/h (2 Bft) 97,87 %
20.11.2017 21:16 1,9 C 5,0 C 96 % 1018,9 hPa 0,0 l/m 3,0 km/h (1 Bft) SW 217 0 min 0,000 mm 0,0 UV-I 0 W/m 1,3 C 1,9 C 4,8 km/h (1 Bft) 98,00 %
20.11.2017 21:18 1,9 C 5,0 C 96 % 1018,9 hPa 0,0 l/m 4,9 km/h (1 Bft) W-SW 239 0 min 0,000 mm 0,0 UV-I 0 W/m 1,3 C 1,9 C 6,4 km/h (2 Bft) 96,00 %
20.11.2017 21:20 1,9 C 5,0 C 96 % 1018,9 hPa 0,0 l/m 3,7 km/h (1 Bft) W-SW 237 0 min 0,000 mm 0,0 UV-I 0 W/m 1,3 C 1,9 C 4,8 km/h (1 Bft) 97,37 %
20.11.2017 21:22 1,9 C 5,0 C 96 % 1018,9 hPa 0,0 l/m 3,9 km/h (1 Bft) SW 236 0 min 0,000 mm 0,0 UV-I 0 W/m 1,3 C 1,9 C 6,4 km/h (2 Bft) 98,04 %
20.11.2017 21:24 1,9 C 5,0 C 96 % 1018,8 hPa 0,0 l/m 4,7 km/h (1 Bft) S-SW 199 0 min 0,000 mm 0,0 UV-I 0 W/m 1,3 C 1,9 C 8,0 km/h (2 Bft) 94,00 %
20.11.2017 21:26 1,9 C 5,0 C 96 % 1018,8 hPa 0,0 l/m 5,0 km/h (1 Bft) S-SW 192 0 min 0,000 mm 0,0 UV-I 0 W/m 1,3 C 1,9 C 8,0 km/h (2 Bft) 100,00 %
20.11.2017 21:28 1,9 C 5,0 C 96 % 1018,9 hPa 0,0 l/m 4,7 km/h (1 Bft) S-SW 208 0 min 0,000 mm 0,0 UV-I 0 W/m 1,3 C 1,9 C 6,4 km/h (2 Bft) 98,00 %
20.11.2017 21:30 1,9 C 5,0 C 96 % 1018,8 hPa 0,0 l/m 4,1 km/h (1 Bft) SW 234 0 min 0,000 mm 0,0 UV-I 0 W/m 1,3 C 1,9 C 4,8 km/h (1 Bft) 98,11 %
20.11.2017 21:32 1,9 C 5,0 C 96 % 1018,8 hPa 0,0 l/m 3,5 km/h (1 Bft) SW 220 0 min 0,000 mm 0,0 UV-I 0 W/m 1,3 C 1,9 C 6,4 km/h (2 Bft) 96,30 %
20.11.2017 21:34 1,9 C 5,0 C 96 % 1018,7 hPa 0,0 l/m 4,8 km/h (1 Bft) S-SW 205 0 min 0,000 mm 0,0 UV-I 0 W/m 1,3 C 1,9 C 6,4 km/h (2 Bft) 98,51 %
20.11.2017 21:36 1,9 C 5,0 C 96 % 1018,7 hPa 0,0 l/m 3,5 km/h (1 Bft) S-SW 205 0 min 0,000 mm 0,0 UV-I 0 W/m 1,3 C 1,9 C 6,4 km/h (2 Bft) 100,00 %
20.11.2017 21:38 1,9 C 5,0 C 96 % 1018,7 hPa 0,0 l/m 1,8 km/h (1 Bft) S-SW 212 0 min 0,000 mm 0,0 UV-I 0 W/m 1,3 C 1,9 C 3,2 km/h (1 Bft) 100,00 %
20.11.2017 21:40 1,9 C 5,0 C 96 % 1018,6 hPa 0,0 l/m 3,5 km/h (1 Bft) SW 232 0 min 0,000 mm 0,0 UV-I 0 W/m 1,3 C 1,9 C 4,8 km/h (1 Bft) 98,00 %
20.11.2017 21:42 1,9 C 5,0 C 96 % 1018,6 hPa 0,0 l/m 1,4 km/h (1 Bft) SW 232 0 min 0,000 mm 0,0 UV-I 0 W/m 1,3 C 1,9 C 3,2 km/h (1 Bft) 100,00 %
20.11.2017 21:44 1,9 C 5,0 C 96 % 1018,6 hPa 0,0 l/m 0,4 km/h (0 Bft) SW 232 0 min 0,000 mm 0,0 UV-I 0 W/m 1,3 C 1,9 C 3,2 km/h (1 Bft) 100,00 %
20.11.2017 21:46 1,9 C 5,0 C 96 % 1018,6 hPa 0,0 l/m 1,8 km/h (1 Bft) SW 232 0 min 0,000 mm 0,0 UV-I 0 W/m 1,3 C 1,9 C 3,2 km/h (1 Bft) 100,00 %
20.11.2017 21:48 1,9 C 5,0 C 96 % 1018,6 hPa 0,0 l/m 2,5 km/h (1 Bft) W-SW 254 0 min 0,000 mm 0,0 UV-I 0 W/m 1,3 C 1,9 C 8,0 km/h (2 Bft) 100,00 %
20.11.2017 21:50 1,9 C 5,0 C 96 % 1018,6 hPa 0,0 l/m 4,3 km/h (1 Bft) W-SW 242 0 min 0,000 mm 0,0 UV-I 0 W/m 1,3 C 1,9 C 6,4 km/h (2 Bft) 98,00 %
20.11.2017 21:52 1,9 C 5,0 C 96 % 1018,6 hPa 0,0 l/m 2,7 km/h (1 Bft) W-SW 242 0 min 0,000 mm 0,0 UV-I 0 W/m 1,3 C 1,9 C 4,8 km/h (1 Bft) 100,00 %
20.11.2017 21:54 1,9 C 5,0 C 96 % 1018,5 hPa 0,0 l/m 2,5 km/h (1 Bft) W-SW 242 0 min 0,000 mm 0,0 UV-I 0 W/m 1,3 C 1,9 C 3,2 km/h (1 Bft) 100,00 %
20.11.2017 21:56 1,9 C 5,0 C 96 % 1018,5 hPa 0,0 l/m 4,3 km/h (1 Bft) SW 227 0 min 0,000 mm 0,0 UV-I 0 W/m 1,3 C 1,9 C 6,4 km/h (2 Bft) 100,00 %
20.11.2017 21:58 1,9 C 5,0 C 96 % 1018,6 hPa 0,0 l/m 4,4 km/h (1 Bft) SW 227 0 min 0,000 mm 0,0 UV-I 0 W/m 1,3 C 1,9 C 6,4 km/h (2 Bft) 100,00 %
20.11.2017 22:00 1,9 C 5,0 C 96 % 1018,5 hPa 0,0 l/m 3,8 km/h (1 Bft) SW 227 0 min 0,000 mm 0,0 UV-I 0 W/m 1,3 C 1,9 C 6,4 km/h (2 Bft) 100,00 %
20.11.2017 22:02 1,9 C 5,0 C 96 % 1018,5 hPa 0,2 l/m 4,4 km/h (1 Bft) SW 227 0 min 0,000 mm 0,0 UV-I 0 W/m 1,3 C 1,9 C 6,4 km/h (2 Bft) 100,00 %
20.11.2017 22:04 2,0 C 5,0 C 96 % 1018,4 hPa 0,0 l/m 4,1 km/h (1 Bft) SW 228 0 min 0,000 mm 0,0 UV-I 0 W/m 1,4 C 2,0 C 6,4 km/h (2 Bft) 100,00 %
20.11.2017 22:06 2,0 C 5,0 C 96 % 1018,4 hPa 0,0 l/m 4,7 km/h (1 Bft) W 259 0 min 0,000 mm 0,0 UV-I 0 W/m 1,4 C 2,0 C 6,4 km/h (2 Bft) 100,00 %
20.11.2017 22:08 2,0 C 5,0 C 96 % 1018,4 hPa 0,0 l/m 3,7 km/h (1 Bft) W 259 0 min 0,000 mm 0,0 UV-I 0 W/m 1,4 C 2,0 C 4,8 km/h (1 Bft) 98,11 %
20.11.2017 22:10 2,0 C 5,0 C 96 % 1018,3 hPa 0,0 l/m 4,2 km/h (1 Bft) W-SW 254 0 min 0,000 mm 0,0 UV-I 0 W/m 1,4 C 2,0 C 6,4 km/h (2 Bft) 100,00 %
20.11.2017 22:12 2,0 C 5,0 C 96 % 1018,4 hPa 0,0 l/m 5,7 km/h (1 Bft) W-SW 240 0 min 0,000 mm 0,0 UV-I 0 W/m 1,4 C 2,0 C 9,7 km/h (2 Bft) 100,00 %
20.11.2017 22:14 2,0 C 5,0 C 96 % 1018,3 hPa 0,0 l/m 5,9 km/h (2 Bft) SW 235 0 min 0,000 mm 0,0 UV-I 0 W/m 1,4 C 2,0 C 8,0 km/h (2 Bft) 98,39 %
20.11.2017 22:16 2,1 C 5,0 C 96 % 1018,3 hPa 0,0 l/m 6,5 km/h (2 Bft) W-SW 252 0 min 0,000 mm 0,0 UV-I 0 W/m 1,5 C 2,0 C 11,3 km/h (2 Bft) 100,00 %
20.11.2017 22:18 2,1 C 5,0 C 96 % 1018,3 hPa 0,0 l/m 8,9 km/h (2 Bft) S-SW 205 0 min 0,000 mm 0,0 UV-I 0 W/m 1,5 C -0,2 C 14,5 km/h (3 Bft) 97,56 %
20.11.2017 22:20 2,1 C 5,0 C 96 % 1018,2 hPa 0,0 l/m 8,0 km/h (2 Bft) SW 235 0 min 0,000 mm 0,0 UV-I 0 W/m 1,5 C 0,6 C 12,9 km/h (3 Bft) 100,00 %
20.11.2017 22:22 2,2 C 5,0 C 96 % 1018,3 hPa 0,0 l/m 10,2 km/h (2 Bft) SW 234 0 min 0,000 mm 0,0 UV-I 0 W/m 1,6 C -1,2 C 16,1 km/h (3 Bft) 97,56 %
20.11.2017 22:24 2,2 C 5,0 C 96 % 1018,2 hPa 0,0 l/m 9,5 km/h (2 Bft) SW 223 0 min 0,000 mm 0,0 UV-I 0 W/m 1,6 C -0,6 C 16,1 km/h (3 Bft) 100,00 %
20.11.2017 22:26 2,3 C 5,0 C 96 % 1018,3 hPa 0,0 l/m 8,7 km/h (2 Bft) W-SW 254 0 min 0,000 mm 0,0 UV-I 0 W/m 1,7 C 0,1 C 12,9 km/h (3 Bft) 100,00 %
20.11.2017 22:28 2,3 C 5,0 C 96 % 1018,2 hPa 0,0 l/m 7,8 km/h (2 Bft) W-SW 238 0 min 0,000 mm 0,0 UV-I 0 W/m 1,7 C 1,0 C 14,5 km/h (3 Bft) 100,00 %
20.11.2017 22:30 2,3 C 5,0 C 96 % 1018,2 hPa 0,0 l/m 8,0 km/h (2 Bft) S-SW 208 0 min 0,000 mm 0,0 UV-I 0 W/m 1,7 C 0,8 C 11,3 km/h (2 Bft) 100,00 %
20.11.2017 22:32 2,3 C 5,0 C 96 % 1018,2 hPa 0,0 l/m 7,7 km/h (2 Bft) S-SW 203 0 min 0,000 mm 0,0 UV-I 0 W/m 1,7 C 1,0 C 12,9 km/h (3 Bft) 97,73 %
20.11.2017 22:34 2,4 C 5,0 C 95 % 1018,2 hPa 0,0 l/m 7,7 km/h (2 Bft) S-SW 207 0 min 0,000 mm 0,0 UV-I 0 W/m 1,7 C 1,1 C 11,3 km/h (2 Bft) 100,00 %
20.11.2017 22:36 2,4 C 5,0 C 95 % 1018,0 hPa 0,0 l/m 8,6 km/h (2 Bft) SW 236 0 min 0,000 mm 0,0 UV-I 0 W/m 1,7 C 0,3 C 12,9 km/h (3 Bft) 98,00 %
20.11.2017 22:38 2,4 C 5,0 C 95 % 1018,0 hPa 0,0 l/m 9,5 km/h (2 Bft) W-SW 247 0 min 0,000 mm 0,0 UV-I 0 W/m 1,7 C -0,4 C 16,1 km/h (3 Bft) 100,00 %
20.11.2017 22:40 2,4 C 5,0 C 95 % 1018,0 hPa 0,0 l/m 9,0 km/h (2 Bft) W-SW 242 0 min 0,000 mm 0,0 UV-I 0 W/m 1,7 C 0,0 C 14,5 km/h (3 Bft) 100,00 %
20.11.2017 22:42 2,4 C 5,0 C 95 % 1018,0 hPa 0,0 l/m 10,5 km/h (2 Bft) W-SW 257 0 min 0,000 mm 0,0 UV-I 0 W/m 1,7 C -1,2 C 17,7 km/h (3 Bft) 97,87 %
20.11.2017 22:44 2,5 C 5,0 C 95 % 1018,0 hPa 0,2 l/m 8,5 km/h (2 Bft) SW 229 0 min 0,000 mm 0,0 UV-I 0 W/m 1,8 C 0,5 C 12,9 km/h (3 Bft) 100,00 %
20.11.2017 22:46 2,5 C 5,0 C 95 % 1017,9 hPa 0,0 l/m 13,3 km/h (3 Bft) S-SW 196 0 min 0,000 mm 0,0 UV-I 0 W/m 1,8 C -3,0 C 19,3 km/h (3 Bft) 100,00 %
20.11.2017 22:48 2,6 C 5,0 C 95 % 1017,9 hPa 0,0 l/m 10,9 km/h (2 Bft) SW 214 0 min 0,000 mm 0,0 UV-I 0 W/m 1,9 C -1,2 C 17,7 km/h (3 Bft) 98,31 %
20.11.2017 22:50 2,6 C 5,0 C 95 % 1017,9 hPa 0,0 l/m 10,4 km/h (2 Bft) W-SW 241 0 min 0,000 mm 0,0 UV-I 0 W/m 1,9 C -0,9 C 17,7 km/h (3 Bft) 100,00 %
20.11.2017 22:52 2,6 C 5,0 C 95 % 1017,9 hPa 0,0 l/m 12,7 km/h (3 Bft) W-SW 250 0 min 0,000 mm 0,0 UV-I 0 W/m 1,9 C -2,5 C 17,7 km/h (3 Bft) 98,18 %
20.11.2017 22:54 2,6 C 5,0 C 95 % 1017,9 hPa 0,0 l/m 11,0 km/h (2 Bft) SW 223 0 min 0,000 mm 0,0 UV-I 0 W/m 1,9 C -1,3 C 17,7 km/h (3 Bft) 100,00 %
20.11.2017 22:56 2,6 C 5,0 C 95 % 1017,9 hPa 0,0 l/m 8,8 km/h (2 Bft) W-SW 252 0 min 0,000 mm 0,0 UV-I 0 W/m 1,9 C 0,4 C 14,5 km/h (3 Bft) 100,00 %
20.11.2017 22:58 2,6 C 5,0 C 95 % 1017,9 hPa 0,0 l/m 11,8 km/h (2 Bft) W-SW 241 0 min 0,000 mm 0,0 UV-I 0 W/m 1,9 C -1,9 C 19,3 km/h (3 Bft) 100,00 %
20.11.2017 23:00 2,6 C 5,0 C 95 % 1017,9 hPa 0,0 l/m 10,7 km/h (2 Bft) W-SW 248 0 min 0,000 mm 0,0 UV-I 0 W/m 1,9 C -1,1 C 16,1 km/h (3 Bft) 97,73 %
20.11.2017 23:02 2,6 C 5,0 C 95 % 1017,9 hPa 0,0 l/m 9,8 km/h (2 Bft) W-SW 258 0 min 0,000 mm 0,0 UV-I 0 W/m 1,9 C -0,4 C 16,1 km/h (3 Bft) 100,00 %
20.11.2017 23:04 2,6 C 5,0 C 95 % 1017,8 hPa 0,0 l/m 9,9 km/h (2 Bft) SW 222 0 min 0,000 mm 0,0 UV-I 0 W/m 1,9 C -0,5 C 16,1 km/h (3 Bft) 100,00 %
20.11.2017 23:06 2,6 C 5,0 C 95 % 1017,8 hPa 0,2 l/m 8,5 km/h (2 Bft) W 263 0 min 0,000 mm 0,0 UV-I 0 W/m 1,9 C 0,6 C 12,9 km/h (3 Bft) 94,34 %
20.11.2017 23:08 2,6 C 5,0 C 95 % 1017,8 hPa 0,0 l/m 8,0 km/h (2 Bft) W-SW 249 0 min 0,000 mm 0,0 UV-I 0 W/m 1,9 C 1,1 C 12,9 km/h (3 Bft) 97,56 %
20.11.2017 23:10 2,5 C 5,0 C 95 % 1017,8 hPa 0,0 l/m 8,9 km/h (2 Bft) SW 232 0 min 0,000 mm 0,0 UV-I 0 W/m 1,8 C 0,2 C 12,9 km/h (3 Bft) 94,34 %
20.11.2017 23:12 2,5 C 5,0 C 95 % 1017,7 hPa 0,0 l/m 10,4 km/h (2 Bft) SW 229 0 min 0,000 mm 0,0 UV-I 0 W/m 1,8 C -1,0 C 20,9 km/h (4 Bft) 92,11 %
20.11.2017 23:14 2,4 C 5,0 C 95 % 1017,7 hPa 0,0 l/m 10,9 km/h (2 Bft) S-SW 194 0 min 0,000 mm 0,0 UV-I 0 W/m 1,7 C -1,5 C 17,7 km/h (3 Bft) 96,23 %
20.11.2017 23:16 2,4 C 5,0 C 95 % 1017,7 hPa 0,2 l/m 7,6 km/h (2 Bft) SW 232 0 min 0,000 mm 0,0 UV-I 0 W/m 1,7 C 1,2 C 11,3 km/h (2 Bft) 95,12 %
20.11.2017 23:18 2,4 C 5,0 C 95 % 1017,7 hPa 0,0 l/m 10,6 km/h (2 Bft) SW 234 0 min 0,000 mm 0,0 UV-I 0 W/m 1,7 C -1,3 C 14,5 km/h (3 Bft) 94,34 %
20.11.2017 23:20 2,4 C 5,0 C 95 % 1017,7 hPa 0,0 l/m 10,4 km/h (2 Bft) W-SW 244 0 min 0,000 mm 0,0 UV-I 0 W/m 1,7 C -1,1 C 17,7 km/h (3 Bft) 92,68 %
20.11.2017 23:22 2,4 C 5,0 C 95 % 1017,6 hPa 0,0 l/m 7,4 km/h (2 Bft) SW 229 0 min 0,000 mm 0,0 UV-I 0 W/m 1,7 C 1,4 C 14,5 km/h (3 Bft) 94,64 %
20.11.2017 23:24 2,4 C 5,0 C 95 % 1017,6 hPa 0,0 l/m 10,0 km/h (2 Bft) W-SW 246 0 min 0,000 mm 0,0 UV-I 0 W/m 1,7 C -0,8 C 16,1 km/h (3 Bft) 93,62 %
20.11.2017 23:26 2,3 C 5,0 C 95 % 1017,6 hPa 0,0 l/m 10,5 km/h (2 Bft) S-SW 209 0 min 0,000 mm 0,0 UV-I 0 W/m 1,6 C -1,3 C 17,7 km/h (3 Bft) 97,37 %
20.11.2017 23:28 2,3 C 5,0 C 95 % 1017,6 hPa 0,2 l/m 10,0 km/h (2 Bft) W-SW 248 0 min 0,000 mm 0,0 UV-I 0 W/m 1,6 C -0,9 C 16,1 km/h (3 Bft) 96,00 %
20.11.2017 23:30 2,3 C 5,0 C 95 % 1017,6 hPa 0,0 l/m 13,3 km/h (3 Bft) W-SW 244 0 min 0,000 mm 0,0 UV-I 0 W/m 1,6 C -3,2 C 19,3 km/h (3 Bft) 95,24 %
20.11.2017 23:32 2,3 C 5,0 C 95 % 1017,5 hPa 0,0 l/m 14,2 km/h (3 Bft) SW 233 0 min 0,000 mm 0,0 UV-I 0 W/m 1,6 C -3,7 C 19,3 km/h (3 Bft) 96,15 %
20.11.2017 23:34 2,3 C 5,0 C 95 % 1017,5 hPa 0,2 l/m 14,1 km/h (3 Bft) W-SW 247 0 min 0,000 mm 0,0 UV-I 0 W/m 1,6 C -3,7 C 19,3 km/h (3 Bft) 96,23 %
20.11.2017 23:36 2,3 C 5,0 C 95 % 1017,5 hPa 0,0 l/m 11,3 km/h (2 Bft) W 263 0 min 0,000 mm 0,0 UV-I 0 W/m 1,6 C -1,9 C 14,5 km/h (3 Bft) 93,33 %
20.11.2017 23:38 2,3 C 5,0 C 95 % 1017,5 hPa 0,0 l/m 11,7 km/h (2 Bft) SW 235 0 min 0,000 mm 0,0 UV-I 0 W/m 1,6 C -2,1 C 17,7 km/h (3 Bft) 96,00 %
20.11.2017 23:40 2,3 C 5,0 C 95 % 1017,5 hPa 0,0 l/m 14,8 km/h (3 Bft) W-SW 248 0 min 0,000 mm 0,0 UV-I 0 W/m 1,6 C -4,1 C 19,3 km/h (3 Bft) 94,29 %
20.11.2017 23:42 2,3 C 5,0 C 95 % 1017,5 hPa 0,0 l/m 9,3 km/h (2 Bft) W-SW 238 0 min 0,000 mm 0,0 UV-I 0 W/m 1,6 C -0,4 C 12,9 km/h (3 Bft) 96,43 %
20.11.2017 23:44 2,2 C 5,0 C 95 % 1017,5 hPa 0,0 l/m 11,4 km/h (2 Bft) W 267 0 min 0,000 mm 0,0 UV-I 0 W/m 1,5 C -2,1 C 16,1 km/h (3 Bft) 97,73 %
20.11.2017 23:46 2,2 C 5,0 C 95 % 1017,4 hPa 0,2 l/m 11,8 km/h (2 Bft) W-SW 257 0 min 0,000 mm 0,0 UV-I 0 W/m 1,5 C -2,3 C 19,3 km/h (3 Bft) 97,73 %
20.11.2017 23:48 2,2 C 5,0 C 95 % 1017,4 hPa 0,0 l/m 11,5 km/h (2 Bft) W-SW 241 0 min 0,000 mm 0,0 UV-I 0 W/m 1,5 C -2,1 C 19,3 km/h (3 Bft) 95,12 %
20.11.2017 23:50 2,2 C 5,0 C 95 % 1017,4 hPa 0,0 l/m 12,5 km/h (3 Bft) W-SW 237 0 min 0,000 mm 0,0 UV-I 0 W/m 1,5 C -2,8 C 17,7 km/h (3 Bft) 95,12 %
20.11.2017 23:52 2,2 C 5,0 C 95 % 1017,3 hPa 0,0 l/m 11,0 km/h (2 Bft) W 259 0 min 0,000 mm 0,0 UV-I 0 W/m 1,5 C -1,8 C 14,5 km/h (3 Bft) 96,43 %
20.11.2017 23:54 2,2 C 5,0 C 95 % 1017,3 hPa 0,2 l/m 9,8 km/h (2 Bft) W-SW 250 0 min 0,000 mm 0,0 UV-I 0 W/m 1,5 C -0,9 C 14,5 km/h (3 Bft) 98,11 %
20.11.2017 23:56 2,2 C 5,0 C 95 % 1017,4 hPa 0,0 l/m 8,4 km/h (2 Bft) W-SW 257 0 min 0,000 mm 0,0 UV-I 0 W/m 1,5 C 0,3 C 12,9 km/h (3 Bft) 92,11 %
20.11.2017 23:58 2,1 C 5,0 C 95 % 1017,3 hPa 0,0 l/m 9,1 km/h (2 Bft) W-SW 255 0 min 0,000 mm 0,0 UV-I 0 W/m 1,4 C -0,4 C 12,9 km/h (3 Bft) 98,31 %
_ Min-Zeit 18:26 00:00 15:20 23:52 - 21:44 - - - - - - 17:52 00:36 21:38 12:54
Minimum _ 1,1 C 5,0 C 76 % 1017,3 hPa - 0,4 km/h (0 Bft) - - - - - - 0,3 C -8,4 C 3,2 km/h (1 Bft) 90,24 %
_ Max-Zeit 13:04 00:00 18:42 10:36 00:08 03:14 - - 11:56 14:00 11:56 11:58 11:24 11:20 02:56 01:14
Maximum _ 5,0 C 5,0 C 96 % 1021,9 hPa 0,2 l/m 28,2 km/h
W-SW (4 Bft)
- - 4 min 0,102 mm 0,6 UV-I 250 W/m 2,3 C 4,0 C 51,5 km/h
W-SW (7 Bft)
100,00 %
Durchschnitt _ 2,9 C 5,0 C 89 % 1019,8 hPa #4,8 l/m 14,7 km/h (3 Bft) W-SW - #50 min. #0,686 mm 0,5 UV-I 83 W/m 1,2 C -2,8 C 22,8 km/h (4 Bft) 97,76 %